Time,TemperatureF,DewpointF,PressureIn,WindDirection,WindDirectionDegrees,WindSpeedMPH,WindSpeedGustMPH,Humidity,HourlyPrecipIn,Conditions,Clouds,dailyrainin,SolarRadiationWatts/m^2,SoftwareType,DateUTC
2013-11-14 00:00:00,29.6,20.0,30.27,WNW,295,0.0,0.0,67,0.00,,,0.00,520,WeatherCatV1.22B15,2013-11-14 05:00:00,
2013-11-14 00:01:00,29.6,20.0,30.26,WNW,295,1.0,2.0,67,0.00,,,0.00,520,WeatherCatV1.22B15,2013-11-14 05:01:00,
2013-11-14 00:06:00,29.6,20.0,30.26,WNW,295,0.0,1.0,67,0.00,,,0.00,520,WeatherCatV1.22B15,2013-11-14 05:06:00,
2013-11-14 00:07:00,29.7,20.1,30.26,WNW,295,0.0,1.0,67,0.00,,,0.00,520,WeatherCatV1.22B15,2013-11-14 05:07:00,
2013-11-14 00:11:00,29.5,19.9,30.26,WNW,295,1.0,1.0,67,0.00,,,0.00,520,WeatherCatV1.22B15,2013-11-14 05:11:00,
2013-11-14 00:12:00,29.5,19.9,30.26,WNW,295,0.0,1.0,67,0.00,,,0.00,520,WeatherCatV1.22B15,2013-11-14 05:12:00,
2013-11-14 00:16:00,29.4,19.8,30.26,WNW,295,1.0,1.0,67,0.00,,,0.00,520,WeatherCatV1.22B15,2013-11-14 05:16:00,
2013-11-14 00:17:00,29.3,19.7,30.26,WNW,295,0.0,1.0,67,0.00,,,0.00,520,WeatherCatV1.22B15,2013-11-14 05:17:00,
2013-11-14 00:18:00,29.3,20.1,30.26,WNW,295,0.0,0.0,68,0.00,,,0.00,520,WeatherCatV1.22B15,2013-11-14 05:18:00,
2013-11-14 00:21:00,29.2,20.0,30.26,WNW,295,0.0,0.0,68,0.00,,,0.00,520,WeatherCatV1.22B15,2013-11-14 05:21:00,
2013-11-14 00:22:00,29.2,20.0,30.26,WNW,295,0.0,0.0,68,0.00,,,0.00,520,WeatherCatV1.22B15,2013-11-14 05:22:00,
2013-11-14 00:23:00,29.1,19.9,30.26,WNW,295,0.0,0.0,68,0.00,,,0.00,520,WeatherCatV1.22B15,2013-11-14 05:23:00,
2013-11-14 00:26:00,28.9,20.0,30.25,WNW,295,0.0,2.0,69,0.00,,,0.00,520,WeatherCatV1.22B15,2013-11-14 05:26:00,
2013-11-14 00:27:00,28.9,20.0,30.25,WNW,295,0.0,2.0,69,0.00,,,0.00,520,WeatherCatV1.22B15,2013-11-14 05:27:00,
2013-11-14 00:28:00,28.9,20.0,30.25,WNW,295,0.0,2.0,69,0.00,,,0.00,520,WeatherCatV1.22B15,2013-11-14 05:28:00,
2013-11-14 00:31:00,28.7,19.8,30.25,WNW,295,0.0,0.0,69,0.00,,,0.00,520,WeatherCatV1.22B15,2013-11-14 05:31:00,
2013-11-14 00:32:00,28.7,19.8,30.25,WNW,295,0.0,0.0,69,0.00,,,0.00,520,WeatherCatV1.22B15,2013-11-14 05:32:00,
2013-11-14 00:33:00,28.6,19.7,30.25,WNW,295,0.0,0.0,69,0.00,,,0.00,520,WeatherCatV1.22B15,2013-11-14 05:33:00,
2013-11-14 00:36:00,28.3,19.5,30.26,WNW,295,0.0,0.0,69,0.00,,,0.00,520,WeatherCatV1.22B15,2013-11-14 05:36:00,
2013-11-14 00:37:00,28.3,19.5,30.26,WNW,295,0.0,0.0,69,0.00,,,0.00,520,WeatherCatV1.22B15,2013-11-14 05:37:00,
2013-11-14 00:38:00,28.2,19.7,30.25,WNW,295,0.0,0.0,70,0.00,,,0.00,520,WeatherCatV1.22B15,2013-11-14 05:38:00,
2013-11-14 00:39:00,28.1,19.6,30.25,WNW,295,0.0,1.0,70,0.00,,,0.00,520,WeatherCatV1.22B15,2013-11-14 05:39:00,
2013-11-14 00:42:00,27.9,19.4,30.25,WNW,295,0.0,0.0,70,0.00,,,0.00,520,WeatherCatV1.22B15,2013-11-14 05:42:00,
2013-11-14 00:43:00,27.8,19.3,30.25,WNW,295,0.0,0.0,70,0.00,,,0.00,520,WeatherCatV1.22B15,2013-11-14 05:43:00,
2013-11-14 00:44:00,27.8,19.3,30.25,WNW,295,0.0,0.0,70,0.00,,,0.00,520,WeatherCatV1.22B15,2013-11-14 05:44:00,
2013-11-14 00:47:00,27.6,19.5,30.26,WNW,295,0.0,0.0,71,0.00,,,0.00,520,WeatherCatV1.22B15,2013-11-14 05:47:00,
2013-11-14 00:48:00,27.5,19.4,30.25,WNW,295,0.0,0.0,71,0.00,,,0.00,520,WeatherCatV1.22B15,2013-11-14 05:48:00,
2013-11-14 00:50:00,27.4,19.6,30.25,WNW,295,0.0,0.0,72,0.00,,,0.00,520,WeatherCatV1.22B15,2013-11-14 05:50:00,
2013-11-14 00:52:00,27.2,19.4,30.25,WNW,295,0.0,0.0,72,0.00,,,0.00,520,WeatherCatV1.22B15,2013-11-14 05:52:00,
2013-11-14 00:53:00,27.1,19.3,30.25,WNW,295,0.0,0.0,72,0.00,,,0.00,520,WeatherCatV1.22B15,2013-11-14 05:53:00,
2013-11-14 00:55:00,27.0,19.2,30.25,WNW,295,0.0,0.0,72,0.00,,,0.00,520,WeatherCatV1.22B15,2013-11-14 05:55:00,
2013-11-14 00:57:00,26.9,19.4,30.25,WNW,295,0.0,0.0,73,0.00,,,0.00,520,WeatherCatV1.22B15,2013-11-14 05:57:00,
2013-11-14 01:00:00,26.7,19.5,30.24,WNW,295,0.0,0.0,74,0.00,,,0.00,520,WeatherCatV1.22B15,2013-11-14 06:00:00,
2013-11-14 01:01:00,26.7,19.5,30.24,WNW,295,0.0,0.0,74,0.00,,,0.00,520,WeatherCatV1.22B15,2013-11-14 06:01:00,
2013-11-14 01:02:00,26.6,19.5,30.24,WNW,295,0.0,1.0,74,0.00,,,0.00,520,WeatherCatV1.22B15,2013-11-14 06:02:00,
2013-11-14 01:03:00,26.6,19.5,30.24,WNW,295,0.0,1.0,74,0.00,,,0.00,520,WeatherCatV1.22B15,2013-11-14 06:03:00,
2013-11-14 01:05:00,26.6,19.5,30.24,WNW,295,0.0,1.0,74,0.00,,,0.00,520,WeatherCatV1.22B15,2013-11-14 06:05:00,
2013-11-14 01:06:00,26.6,19.5,30.23,WNW,295,0.0,1.0,74,0.00,,,0.00,520,WeatherCatV1.22B15,2013-11-14 06:06:00,
2013-11-14 01:07:00,26.7,19.5,30.23,WNW,295,0.0,0.0,74,0.00,,,0.00,520,WeatherCatV1.22B15,2013-11-14 06:07:00,
2013-11-14 01:08:00,26.7,19.5,30.23,WNW,295,0.0,0.0,74,0.00,,,0.00,520,WeatherCatV1.22B15,2013-11-14 06:08:00,
2013-11-14 01:11:00,26.7,19.5,30.23,WNW,295,0.0,0.0,74,0.00,,,0.00,520,WeatherCatV1.22B15,2013-11-14 06:11:00,
2013-11-14 01:13:00,26.6,19.5,30.23,WNW,295,0.0,0.0,74,0.00,,,0.00,520,WeatherCatV1.22B15,2013-11-14 06:13:00,
2013-11-14 01:14:00,26.6,19.5,30.23,WNW,295,0.0,1.0,74,0.00,,,0.00,520,WeatherCatV1.22B15,2013-11-14 06:14:00,
2013-11-14 01:16:00,26.5,19.4,30.23,WNW,295,0.0,0.0,74,0.00,,,0.00,520,WeatherCatV1.22B15,2013-11-14 06:16:00,
2013-11-14 01:17:00,26.5,19.4,30.23,WNW,295,0.0,0.0,74,0.00,,,0.00,520,WeatherCatV1.22B15,2013-11-14 06:17:00,
2013-11-14 01:18:00,26.4,19.3,30.23,WNW,295,0.0,0.0,74,0.00,,,0.00,520,WeatherCatV1.22B15,2013-11-14 06:18:00,
2013-11-14 01:19:00,26.4,19.3,30.23,WNW,295,0.0,0.0,74,0.00,,,0.00,520,WeatherCatV1.22B15,2013-11-14 06:19:00,
2013-11-14 01:22:00,26.3,19.2,30.23,WNW,295,0.0,0.0,74,0.00,,,0.00,520,WeatherCatV1.22B15,2013-11-14 06:22:00,
2013-11-14 01:23:00,26.2,19.4,30.23,WNW,295,0.0,0.0,75,0.00,,,0.00,520,WeatherCatV1.22B15,2013-11-14 06:23:00,
2013-11-14 01:24:00,26.2,19.4,30.23,WNW,295,0.0,0.0,75,0.00,,,0.00,520,WeatherCatV1.22B15,2013-11-14 06:24:00,
2013-11-14 01:27:00,26.1,19.3,30.23,WNW,295,0.0,0.0,75,0.00,,,0.00,520,WeatherCatV1.22B15,2013-11-14 06:27:00,
2013-11-14 01:28:00,26.1,19.3,30.23,WNW,295,0.0,0.0,75,0.00,,,0.00,520,WeatherCatV1.22B15,2013-11-14 06:28:00,
2013-11-14 01:29:00,26.1,19.3,30.23,WNW,295,0.0,1.0,75,0.00,,,0.00,520,WeatherCatV1.22B15,2013-11-14 06:29:00,
2013-11-14 01:32:00,26.2,19.4,30.23,WNW,295,0.0,1.0,75,0.00,,,0.00,520,WeatherCatV1.22B15,2013-11-14 06:32:00,
2013-11-14 01:33:00,26.2,19.4,30.23,WNW,295,0.0,1.0,75,0.00,,,0.00,520,WeatherCatV1.22B15,2013-11-14 06:33:00,
2013-11-14 01:34:00,26.2,19.4,30.23,WNW,295,0.0,1.0,75,0.00,,,0.00,520,WeatherCatV1.22B15,2013-11-14 06:34:00,
2013-11-14 01:35:00,26.3,19.5,30.23,WNW,295,0.0,0.0,75,0.00,,,0.00,520,WeatherCatV1.22B15,2013-11-14 06:35:00,
2013-11-14 01:37:00,26.5,19.7,30.22,WNW,295,0.0,0.0,75,0.00,,,0.00,520,WeatherCatV1.22B15,2013-11-14 06:37:00,
2013-11-14 01:38:00,26.5,19.7,30.23,WNW,295,0.0,0.0,75,0.00,,,0.00,520,WeatherCatV1.22B15,2013-11-14 06:38:00,
2013-11-14 01:39:00,26.5,19.7,30.22,WNW,295,0.0,0.0,75,0.00,,,0.00,520,WeatherCatV1.22B15,2013-11-14 06:39:00,
2013-11-14 01:40:00,26.6,19.5,30.22,WNW,295,0.0,0.0,74,0.00,,,0.00,520,WeatherCatV1.22B15,2013-11-14 06:40:00,
2013-11-14 01:43:00,26.8,19.3,30.22,WNW,295,0.0,0.0,73,0.00,,,0.00,520,WeatherCatV1.22B15,2013-11-14 06:43:00,
2013-11-14 01:44:00,26.9,19.4,30.22,WNW,295,0.0,0.0,73,0.00,,,0.00,520,WeatherCatV1.22B15,2013-11-14 06:44:00,
2013-11-14 01:45:00,27.1,19.3,30.22,WNW,295,0.0,0.0,72,0.00,,,0.00,520,WeatherCatV1.22B15,2013-11-14 06:45:00,
2013-11-14 01:48:00,27.5,19.7,30.22,WNW,295,0.0,2.0,72,0.00,,,0.00,520,WeatherCatV1.22B15,2013-11-14 06:48:00,
2013-11-14 01:49:00,27.6,19.8,30.22,WNW,295,1.0,1.0,72,0.00,,,0.00,520,WeatherCatV1.22B15,2013-11-14 06:49:00,
2013-11-14 01:50:00,27.6,19.8,30.22,WNW,295,0.0,1.0,72,0.00,,,0.00,520,WeatherCatV1.22B15,2013-11-14 06:50:00,
2013-11-14 01:53:00,27.9,19.7,30.22,WNW,295,0.0,0.0,71,0.00,,,0.00,520,WeatherCatV1.22B15,2013-11-14 06:53:00,
2013-11-14 01:54:00,27.9,19.7,30.22,WNW,295,0.0,0.0,71,0.00,,,0.00,520,WeatherCatV1.22B15,2013-11-14 06:54:00,
2013-11-14 01:55:00,27.9,19.7,30.22,WNW,295,0.0,0.0,71,0.00,,,0.00,520,WeatherCatV1.22B15,2013-11-14 06:55:00,
2013-11-14 01:56:00,27.9,19.7,30.22,WNW,295,0.0,1.0,71,0.00,,,0.00,520,WeatherCatV1.22B15,2013-11-14 06:56:00,
2013-11-14 01:58:00,28.0,19.5,30.22,WNW,295,0.0,0.0,70,0.00,,,0.00,520,WeatherCatV1.22B15,2013-11-14 06:58:00,
2013-11-14 01:59:00,28.1,19.6,30.22,WNW,295,0.0,0.0,70,0.00,,,0.00,520,WeatherCatV1.22B15,2013-11-14 06:59:00,
2013-11-14 02:00:00,28.1,19.6,30.22,WNW,295,0.0,0.0,70,0.00,,,0.00,520,WeatherCatV1.22B15,2013-11-14 07:00:00,
2013-11-14 02:01:00,28.1,19.6,30.22,WNW,295,0.0,1.0,70,0.00,,,0.00,520,WeatherCatV1.22B15,2013-11-14 07:01:00,
2013-11-14 02:02:00,28.1,19.6,30.22,WNW,295,0.0,1.0,70,0.00,,,0.00,520,WeatherCatV1.22B15,2013-11-14 07:02:00,
2013-11-14 02:04:00,28.2,19.7,30.22,WNW,295,0.0,1.0,70,0.00,,,0.00,520,WeatherCatV1.22B15,2013-11-14 07:04:00,
2013-11-14 02:05:00,28.2,19.7,30.22,WNW,295,0.0,1.0,70,0.00,,,0.00,520,WeatherCatV1.22B15,2013-11-14 07:05:00,
2013-11-14 02:06:00,28.2,19.7,30.22,WNW,295,0.0,1.0,70,0.00,,,0.00,520,WeatherCatV1.22B15,2013-11-14 07:06:00,
2013-11-14 02:07:00,28.2,19.7,30.22,WNW,295,0.0,1.0,70,0.00,,,0.00,520,WeatherCatV1.22B15,2013-11-14 07:07:00,
2013-11-14 02:09:00,28.2,20.0,30.22,WNW,295,0.0,0.0,71,0.00,,,0.00,520,WeatherCatV1.22B15,2013-11-14 07:09:00,
2013-11-14 02:10:00,28.2,20.0,30.22,WNW,295,0.0,0.0,71,0.00,,,0.00,520,WeatherCatV1.22B15,2013-11-14 07:10:00,
2013-11-14 02:11:00,28.2,20.0,30.22,WNW,295,0.0,0.0,71,0.00,,,0.00,520,WeatherCatV1.22B15,2013-11-14 07:11:00,
2013-11-14 02:12:00,28.1,19.9,30.22,WNW,295,0.0,0.0,71,0.00,,,0.00,520,WeatherCatV1.22B15,2013-11-14 07:12:00,
2013-11-14 02:14:00,28.1,19.9,30.22,WNW,295,0.0,0.0,71,0.00,,,0.00,520,WeatherCatV1.22B15,2013-11-14 07:14:00,
2013-11-14 02:15:00,28.0,19.8,30.22,WNW,295,0.0,0.0,71,0.00,,,0.00,520,WeatherCatV1.22B15,2013-11-14 07:15:00,
2013-11-14 02:16:00,28.0,19.8,30.22,WNW,295,0.0,0.0,71,0.00,,,0.00,520,WeatherCatV1.22B15,2013-11-14 07:16:00,
2013-11-14 02:18:00,28.0,19.8,30.22,WNW,295,0.0,1.0,71,0.00,,,0.00,520,WeatherCatV1.22B15,2013-11-14 07:18:00,
2013-11-14 02:20:00,28.0,19.8,30.22,WNW,295,1.0,1.0,71,0.00,,,0.00,520,WeatherCatV1.22B15,2013-11-14 07:20:00,
2013-11-14 02:21:00,28.0,19.8,30.21,WNW,295,0.0,0.0,71,0.00,,,0.00,520,WeatherCatV1.22B15,2013-11-14 07:21:00,
2013-11-14 02:23:00,28.1,19.9,30.21,WNW,295,0.0,1.0,71,0.00,,,0.00,520,WeatherCatV1.22B15,2013-11-14 07:23:00,
2013-11-14 02:25:00,28.1,19.9,30.21,WNW,295,0.0,1.0,71,0.00,,,0.00,520,WeatherCatV1.22B15,2013-11-14 07:25:00,
2013-11-14 02:26:00,28.1,19.9,30.21,WNW,295,0.0,0.0,71,0.00,,,0.00,520,WeatherCatV1.22B15,2013-11-14 07:26:00,
2013-11-14 02:27:00,28.1,19.9,30.21,WNW,295,0.0,1.0,71,0.00,,,0.00,520,WeatherCatV1.22B15,2013-11-14 07:27:00,
2013-11-14 02:28:00,28.2,20.0,30.21,WNW,295,0.0,1.0,71,0.00,,,0.00,520,WeatherCatV1.22B15,2013-11-14 07:28:00,
2013-11-14 02:30:00,28.1,19.9,30.21,WNW,295,0.0,1.0,71,0.00,,,0.00,520,WeatherCatV1.22B15,2013-11-14 07:30:00,
2013-11-14 02:31:00,28.1,19.9,30.21,WNW,295,0.0,1.0,71,0.00,,,0.00,520,WeatherCatV1.22B15,2013-11-14 07:31:00,
2013-11-14 02:32:00,28.1,19.9,30.21,WNW,295,0.0,1.0,71,0.00,,,0.00,520,WeatherCatV1.22B15,2013-11-14 07:32:00,
2013-11-14 02:33:00,28.1,19.9,30.21,WNW,295,0.0,0.0,71,0.00,,,0.00,520,WeatherCatV1.22B15,2013-11-14 07:33:00,
2013-11-14 02:34:00,28.1,19.6,30.20,WNW,295,0.0,0.0,70,0.00,,,0.00,520,WeatherCatV1.22B15,2013-11-14 07:34:00,
2013-11-14 02:35:00,28.1,19.6,30.21,WNW,295,0.0,0.0,70,0.00,,,0.00,520,WeatherCatV1.22B15,2013-11-14 07:35:00,
2013-11-14 02:36:00,28.1,19.6,30.21,WNW,295,0.0,0.0,70,0.00,,,0.00,520,WeatherCatV1.22B15,2013-11-14 07:36:00,
2013-11-14 02:37:00,28.2,19.7,30.21,WNW,295,0.0,0.0,70,0.00,,,0.00,520,WeatherCatV1.22B15,2013-11-14 07:37:00,
2013-11-14 02:38:00,28.1,19.6,30.21,WNW,295,0.0,0.0,70,0.00,,,0.00,520,WeatherCatV1.22B15,2013-11-14 07:38:00,
2013-11-14 02:39:00,28.1,19.6,30.21,WNW,295,1.0,1.0,70,0.00,,,0.00,520,WeatherCatV1.22B15,2013-11-14 07:39:00,
2013-11-14 02:41:00,28.1,19.6,30.21,WNW,295,0.0,1.0,70,0.00,,,0.00,520,WeatherCatV1.22B15,2013-11-14 07:41:00,
2013-11-14 02:42:00,28.1,19.6,30.21,WNW,295,0.0,0.0,70,0.00,,,0.00,520,WeatherCatV1.22B15,2013-11-14 07:42:00,
2013-11-14 02:43:00,28.1,19.6,30.21,WNW,295,0.0,0.0,70,0.00,,,0.00,520,WeatherCatV1.22B15,2013-11-14 07:43:00,
2013-11-14 02:44:00,28.1,19.6,30.21,WNW,295,0.0,1.0,70,0.00,,,0.00,520,WeatherCatV1.22B15,2013-11-14 07:44:00,
2013-11-14 02:46:00,28.1,19.6,30.21,WNW,295,0.0,1.0,70,0.00,,,0.00,520,WeatherCatV1.22B15,2013-11-14 07:46:00,
2013-11-14 02:47:00,28.1,19.6,30.21,WNW,295,0.0,0.0,70,0.00,,,0.00,520,WeatherCatV1.22B15,2013-11-14 07:47:00,
2013-11-14 02:49:00,28.1,19.9,30.21,WNW,295,0.0,1.0,71,0.00,,,0.00,520,WeatherCatV1.22B15,2013-11-14 07:49:00,
2013-11-14 02:51:00,28.1,19.9,30.21,WNW,295,0.0,1.0,71,0.00,,,0.00,520,WeatherCatV1.22B15,2013-11-14 07:51:00,
2013-11-14 02:52:00,28.1,19.9,30.21,WNW,295,0.0,0.0,71,0.00,,,0.00,520,WeatherCatV1.22B15,2013-11-14 07:52:00,
2013-11-14 02:54:00,28.1,19.6,30.21,WNW,295,0.0,1.0,70,0.00,,,0.00,520,WeatherCatV1.22B15,2013-11-14 07:54:00,
2013-11-14 02:55:00,28.1,19.6,30.21,WNW,295,1.0,1.0,70,0.00,,,0.00,520,WeatherCatV1.22B15,2013-11-14 07:55:00,
2013-11-14 02:56:00,28.2,19.7,30.21,WNW,295,0.0,1.0,70,0.00,,,0.00,520,WeatherCatV1.22B15,2013-11-14 07:56:00,
2013-11-14 02:57:00,28.2,19.7,30.21,WNW,295,0.0,1.0,70,0.00,,,0.00,520,WeatherCatV1.22B15,2013-11-14 07:57:00,
2013-11-14 02:58:00,28.3,19.8,30.21,WNW,295,0.0,1.0,70,0.00,,,0.00,520,WeatherCatV1.22B15,2013-11-14 07:58:00,
2013-11-14 02:59:00,28.3,19.8,30.21,WNW,295,0.0,1.0,70,0.00,,,0.00,520,WeatherCatV1.22B15,2013-11-14 07:59:00,
2013-11-14 03:00:00,28.3,19.8,30.21,WNW,295,0.0,1.0,70,0.00,,,0.00,520,WeatherCatV1.22B15,2013-11-14 08:00:00,
2013-11-14 03:01:00,28.3,19.8,30.21,WNW,295,1.0,1.0,70,0.00,,,0.00,520,WeatherCatV1.22B15,2013-11-14 08:01:00,
2013-11-14 03:02:00,28.3,19.8,30.21,WNW,295,0.0,1.0,70,0.00,,,0.00,520,WeatherCatV1.22B15,2013-11-14 08:02:00,
2013-11-14 03:03:00,28.3,19.8,30.21,WNW,295,0.0,1.0,70,0.00,,,0.00,520,WeatherCatV1.22B15,2013-11-14 08:03:00,
2013-11-14 03:04:00,28.3,19.8,30.21,WNW,295,0.0,0.0,70,0.00,,,0.00,520,WeatherCatV1.22B15,2013-11-14 08:04:00,
2013-11-14 03:05:00,28.3,19.8,30.21,WNW,295,0.0,0.0,70,0.00,,,0.00,520,WeatherCatV1.22B15,2013-11-14 08:05:00,
2013-11-14 03:06:00,28.3,19.8,30.21,WNW,295,1.0,1.0,70,0.00,,,0.00,520,WeatherCatV1.22B15,2013-11-14 08:06:00,
2013-11-14 03:07:00,28.3,19.8,30.21,WNW,295,0.0,1.0,70,0.00,,,0.00,520,WeatherCatV1.22B15,2013-11-14 08:07:00,
2013-11-14 03:08:00,28.4,19.9,30.21,WNW,295,0.0,0.0,70,0.00,,,0.00,520,WeatherCatV1.22B15,2013-11-14 08:08:00,
2013-11-14 03:09:00,28.4,19.9,30.21,WNW,295,0.0,1.0,70,0.00,,,0.00,520,WeatherCatV1.22B15,2013-11-14 08:09:00,
2013-11-14 03:10:00,28.4,19.9,30.21,WNW,295,0.0,1.0,70,0.00,,,0.00,520,WeatherCatV1.22B15,2013-11-14 08:10:00,
2013-11-14 03:11:00,28.4,19.9,30.21,WNW,295,0.0,2.0,70,0.00,,,0.00,520,WeatherCatV1.22B15,2013-11-14 08:11:00,
2013-11-14 03:12:00,28.4,19.9,30.21,WNW,295,0.0,2.0,70,0.00,,,0.00,520,WeatherCatV1.22B15,2013-11-14 08:12:00,
2013-11-14 03:13:00,28.5,20.0,30.21,WNW,295,0.0,0.0,70,0.00,,,0.00,520,WeatherCatV1.22B15,2013-11-14 08:13:00,
2013-11-14 03:14:00,28.5,19.6,30.21,WNW,295,0.0,0.0,69,0.00,,,0.00,520,WeatherCatV1.22B15,2013-11-14 08:14:00,
2013-11-14 03:15:00,28.5,19.6,30.21,WNW,295,2.0,3.0,69,0.00,,,0.00,520,WeatherCatV1.22B15,2013-11-14 08:15:00,
2013-11-14 03:16:00,28.6,19.7,30.21,WNW,295,0.0,3.0,69,0.00,,,0.00,520,WeatherCatV1.22B15,2013-11-14 08:16:00,
2013-11-14 03:17:00,28.6,19.7,30.20,WNW,295,0.0,3.0,69,0.00,,,0.00,520,WeatherCatV1.22B15,2013-11-14 08:17:00,
2013-11-14 03:18:00,28.7,19.8,30.20,WNW,295,0.0,0.0,69,0.00,,,0.00,520,WeatherCatV1.22B15,2013-11-14 08:18:00,
2013-11-14 03:19:00,28.7,19.8,30.20,WNW,295,0.0,1.0,69,0.00,,,0.00,520,WeatherCatV1.22B15,2013-11-14 08:19:00,
2013-11-14 03:20:00,28.7,19.8,30.21,WNW,295,0.0,1.0,69,0.00,,,0.00,520,WeatherCatV1.22B15,2013-11-14 08:20:00,
2013-11-14 03:21:00,28.7,19.8,30.21,WNW,295,0.0,1.0,69,0.00,,,0.00,520,WeatherCatV1.22B15,2013-11-14 08:21:00,
2013-11-14 03:22:00,28.7,19.8,30.21,WNW,295,0.0,1.0,69,0.00,,,0.00,520,WeatherCatV1.22B15,2013-11-14 08:22:00,
2013-11-14 03:23:00,28.6,19.7,30.21,WNW,295,0.0,1.0,69,0.00,,,0.00,520,WeatherCatV1.22B15,2013-11-14 08:23:00,
2013-11-14 03:24:00,28.6,19.7,30.21,WNW,295,0.0,0.0,69,0.00,,,0.00,520,WeatherCatV1.22B15,2013-11-14 08:24:00,
2013-11-14 03:25:00,28.6,19.7,30.21,WNW,295,1.0,1.0,69,0.00,,,0.00,520,WeatherCatV1.22B15,2013-11-14 08:25:00,
2013-11-14 03:26:00,28.6,19.7,30.21,WNW,295,0.0,1.0,69,0.00,,,0.00,520,WeatherCatV1.22B15,2013-11-14 08:26:00,
2013-11-14 03:27:00,28.5,19.6,30.21,WNW,295,0.0,0.0,69,0.00,,,0.00,520,WeatherCatV1.22B15,2013-11-14 08:27:00,
2013-11-14 03:28:00,28.6,19.7,30.21,WNW,295,0.0,1.0,69,0.00,,,0.00,520,WeatherCatV1.22B15,2013-11-14 08:28:00,
2013-11-14 03:30:00,28.5,19.6,30.21,WNW,295,0.0,1.0,69,0.00,,,0.00,520,WeatherCatV1.22B15,2013-11-14 08:30:00,
2013-11-14 03:31:00,28.4,19.5,30.21,WNW,295,0.0,0.0,69,0.00,,,0.00,520,WeatherCatV1.22B15,2013-11-14 08:31:00,
2013-11-14 03:32:00,28.4,19.5,30.21,WNW,295,0.0,0.0,69,0.00,,,0.00,520,WeatherCatV1.22B15,2013-11-14 08:32:00,
2013-11-14 03:33:00,28.3,19.8,30.21,WNW,295,0.0,1.0,70,0.00,,,0.00,520,WeatherCatV1.22B15,2013-11-14 08:33:00,
2013-11-14 03:35:00,28.3,19.8,30.20,WNW,295,0.0,1.0,70,0.00,,,0.00,520,WeatherCatV1.22B15,2013-11-14 08:35:00,
2013-11-14 03:36:00,28.2,19.7,30.20,WNW,295,0.0,0.0,70,0.00,,,0.00,520,WeatherCatV1.22B15,2013-11-14 08:36:00,
2013-11-14 03:37:00,28.2,19.7,30.21,WNW,295,0.0,1.0,70,0.00,,,0.00,520,WeatherCatV1.22B15,2013-11-14 08:37:00,
2013-11-14 03:39:00,28.2,19.7,30.21,WNW,295,0.0,1.0,70,0.00,,,0.00,520,WeatherCatV1.22B15,2013-11-14 08:39:00,
2013-11-14 03:40:00,28.2,19.7,30.21,WNW,295,0.0,1.0,70,0.00,,,0.00,520,WeatherCatV1.22B15,2013-11-14 08:40:00,
2013-11-14 03:41:00,28.2,19.7,30.21,WNW,295,0.0,1.0,70,0.00,,,0.00,520,WeatherCatV1.22B15,2013-11-14 08:41:00,
2013-11-14 03:42:00,28.2,19.7,30.21,WNW,295,0.0,0.0,70,0.00,,,0.00,520,WeatherCatV1.22B15,2013-11-14 08:42:00,
2013-11-14 03:44:00,28.1,19.6,30.21,WNW,295,0.0,0.0,70,0.00,,,0.00,520,WeatherCatV1.22B15,2013-11-14 08:44:00,
2013-11-14 03:46:00,28.1,19.3,30.21,WNW,295,0.0,1.0,69,0.00,,,0.00,520,WeatherCatV1.22B15,2013-11-14 08:46:00,
2013-11-14 03:48:00,28.1,19.6,30.21,WNW,295,0.0,0.0,70,0.00,,,0.00,520,WeatherCatV1.22B15,2013-11-14 08:48:00,
2013-11-14 03:50:00,28.1,19.6,30.21,WNW,295,0.0,1.0,70,0.00,,,0.00,520,WeatherCatV1.22B15,2013-11-14 08:50:00,
2013-11-14 03:51:00,28.1,19.6,30.21,WNW,295,0.0,1.0,70,0.00,,,0.00,520,WeatherCatV1.22B15,2013-11-14 08:51:00,
2013-11-14 03:52:00,28.1,19.6,30.21,WNW,295,0.0,1.0,70,0.00,,,0.00,520,WeatherCatV1.22B15,2013-11-14 08:52:00,
2013-11-14 03:53:00,28.1,19.6,30.21,WNW,295,0.0,1.0,70,0.00,,,0.00,520,WeatherCatV1.22B15,2013-11-14 08:53:00,
2013-11-14 03:56:00,28.0,19.5,30.21,WNW,295,0.0,0.0,70,0.00,,,0.00,520,WeatherCatV1.22B15,2013-11-14 08:56:00,
2013-11-14 03:57:00,27.9,19.4,30.21,WNW,295,0.0,1.0,70,0.00,,,0.00,520,WeatherCatV1.22B15,2013-11-14 08:57:00,
2013-11-14 03:59:00,27.9,19.7,30.21,WNW,295,0.0,1.0,71,0.00,,,0.00,520,WeatherCatV1.22B15,2013-11-14 08:59:00,
2013-11-14 04:01:00,27.9,19.4,30.21,WNW,295,0.0,0.0,70,0.00,,,0.00,520,WeatherCatV1.22B15,2013-11-14 09:01:00,
2013-11-14 04:02:00,27.9,19.4,30.21,WNW,295,0.0,1.0,70,0.00,,,0.00,520,WeatherCatV1.22B15,2013-11-14 09:02:00,
2013-11-14 04:04:00,27.9,19.7,30.21,WNW,295,0.0,2.0,71,0.00,,,0.00,520,WeatherCatV1.22B15,2013-11-14 09:04:00,
2013-11-14 04:06:00,27.9,19.7,30.21,WNW,295,0.0,1.0,71,0.00,,,0.00,520,WeatherCatV1.22B15,2013-11-14 09:06:00,
2013-11-14 04:07:00,27.8,19.6,30.21,WNW,295,0.0,1.0,71,0.00,,,0.00,520,WeatherCatV1.22B15,2013-11-14 09:07:00,
2013-11-14 04:09:00,27.9,19.7,30.21,WNW,295,1.0,1.0,71,0.00,,,0.00,520,WeatherCatV1.22B15,2013-11-14 09:09:00,
2013-11-14 04:11:00,27.9,19.7,30.21,WNW,295,0.0,1.0,71,0.00,,,0.00,520,WeatherCatV1.22B15,2013-11-14 09:11:00,
2013-11-14 04:12:00,28.0,19.5,30.21,WNW,295,1.0,1.0,70,0.00,,,0.00,520,WeatherCatV1.22B15,2013-11-14 09:12:00,
2013-11-14 04:15:00,28.1,19.6,30.21,WNW,295,0.0,1.0,70,0.00,,,0.00,520,WeatherCatV1.22B15,2013-11-14 09:15:00,
2013-11-14 04:16:00,28.1,19.6,30.22,WNW,295,1.0,1.0,70,0.00,,,0.00,520,WeatherCatV1.22B15,2013-11-14 09:16:00,
2013-11-14 04:17:00,28.1,19.6,30.21,WNW,295,0.0,1.0,70,0.00,,,0.00,520,WeatherCatV1.22B15,2013-11-14 09:17:00,
2013-11-14 04:18:00,28.2,19.7,30.21,WNW,295,0.0,1.0,70,0.00,,,0.00,520,WeatherCatV1.22B15,2013-11-14 09:18:00,
2013-11-14 04:20:00,28.2,19.7,30.22,WNW,295,0.0,0.0,70,0.00,,,0.00,520,WeatherCatV1.22B15,2013-11-14 09:20:00,
2013-11-14 04:21:00,28.1,19.6,30.22,WNW,295,0.0,1.0,70,0.00,,,0.00,520,WeatherCatV1.22B15,2013-11-14 09:21:00,
2013-11-14 04:22:00,28.1,19.6,30.22,WNW,295,0.0,1.0,70,0.00,,,0.00,520,WeatherCatV1.22B15,2013-11-14 09:22:00,
2013-11-14 04:23:00,28.0,19.5,30.22,WNW,295,0.0,1.0,70,0.00,,,0.00,520,WeatherCatV1.22B15,2013-11-14 09:23:00,
2013-11-14 04:25:00,27.9,19.4,30.22,WNW,295,0.0,1.0,70,0.00,,,0.00,520,WeatherCatV1.22B15,2013-11-14 09:25:00,
2013-11-14 04:26:00,27.8,19.3,30.22,WNW,295,0.0,1.0,70,0.00,,,0.00,520,WeatherCatV1.22B15,2013-11-14 09:26:00,
2013-11-14 04:27:00,27.9,19.4,30.22,WNW,295,0.0,1.0,70,0.00,,,0.00,520,WeatherCatV1.22B15,2013-11-14 09:27:00,
2013-11-14 04:28:00,27.8,19.3,30.22,WNW,295,0.0,0.0,70,0.00,,,0.00,520,WeatherCatV1.22B15,2013-11-14 09:28:00,
2013-11-14 04:30:00,27.7,19.5,30.22,WNW,295,0.0,0.0,71,0.00,,,0.00,520,WeatherCatV1.22B15,2013-11-14 09:30:00,
2013-11-14 04:32:00,27.7,19.5,30.22,WNW,295,0.0,1.0,71,0.00,,,0.00,520,WeatherCatV1.22B15,2013-11-14 09:32:00,
2013-11-14 04:33:00,27.7,19.5,30.22,WNW,295,0.0,0.0,71,0.00,,,0.00,520,WeatherCatV1.22B15,2013-11-14 09:33:00,
2013-11-14 04:35:00,27.6,19.5,30.22,WNW,295,0.0,0.0,71,0.00,,,0.00,520,WeatherCatV1.22B15,2013-11-14 09:35:00,
2013-11-14 04:37:00,27.6,19.5,30.22,WNW,295,0.0,1.0,71,0.00,,,0.00,520,WeatherCatV1.22B15,2013-11-14 09:37:00,
2013-11-14 04:38:00,27.6,19.5,30.22,WNW,295,0.0,1.0,71,0.00,,,0.00,520,WeatherCatV1.22B15,2013-11-14 09:38:00,
2013-11-14 04:40:00,27.5,19.4,30.22,WNW,295,0.0,0.0,71,0.00,,,0.00,520,WeatherCatV1.22B15,2013-11-14 09:40:00,
2013-11-14 04:42:00,27.4,19.3,30.22,WNW,295,0.0,0.0,71,0.00,,,0.00,520,WeatherCatV1.22B15,2013-11-14 09:42:00,
2013-11-14 04:43:00,27.5,19.4,30.22,WNW,295,0.0,0.0,71,0.00,,,0.00,520,WeatherCatV1.22B15,2013-11-14 09:43:00,
2013-11-14 04:44:00,27.5,19.7,30.22,WNW,295,0.0,0.0,72,0.00,,,0.00,520,WeatherCatV1.22B15,2013-11-14 09:44:00,
2013-11-14 04:45:00,27.4,19.6,30.22,WNW,295,1.0,1.0,72,0.00,,,0.00,520,WeatherCatV1.22B15,2013-11-14 09:45:00,
2013-11-14 04:48:00,27.4,19.6,30.22,WNW,295,0.0,0.0,72,0.00,,,0.00,520,WeatherCatV1.22B15,2013-11-14 09:48:00,
2013-11-14 04:49:00,27.4,19.6,30.22,WNW,295,0.0,1.0,72,0.00,,,0.00,520,WeatherCatV1.22B15,2013-11-14 09:49:00,
2013-11-14 04:50:00,27.4,19.3,30.22,WNW,295,0.0,1.0,71,0.00,,,0.00,520,WeatherCatV1.22B15,2013-11-14 09:50:00,
2013-11-14 04:53:00,27.7,19.5,30.22,WNW,295,0.0,1.0,71,0.00,,,0.00,520,WeatherCatV1.22B15,2013-11-14 09:53:00,
2013-11-14 04:54:00,27.7,19.5,30.22,WNW,295,0.0,1.0,71,0.00,,,0.00,520,WeatherCatV1.22B15,2013-11-14 09:54:00,
2013-11-14 04:56:00,27.7,19.5,30.22,WNW,295,0.0,0.0,71,0.00,,,0.00,520,WeatherCatV1.22B15,2013-11-14 09:56:00,
2013-11-14 04:58:00,27.7,19.5,30.22,WNW,295,0.0,0.0,71,0.00,,,0.00,520,WeatherCatV1.22B15,2013-11-14 09:58:00,
2013-11-14 04:59:00,27.7,19.5,30.22,WNW,295,0.0,0.0,71,0.00,,,0.00,520,WeatherCatV1.22B15,2013-11-14 09:59:00,
2013-11-14 05:01:00,27.7,19.2,30.22,WNW,295,0.0,1.0,70,0.00,,,0.00,520,WeatherCatV1.22B15,2013-11-14 10:01:00,
2013-11-14 05:03:00,27.8,19.3,30.22,WNW,295,0.0,1.0,70,0.00,,,0.00,520,WeatherCatV1.22B15,2013-11-14 10:03:00,
2013-11-14 05:04:00,27.8,19.3,30.22,WNW,295,0.0,1.0,70,0.00,,,0.00,520,WeatherCatV1.22B15,2013-11-14 10:04:00,
2013-11-14 05:05:00,27.8,19.3,30.22,WNW,295,0.0,0.0,70,0.00,,,0.00,520,WeatherCatV1.22B15,2013-11-14 10:05:00,
2013-11-14 05:07:00,27.8,19.3,30.22,WNW,295,0.0,0.0,70,0.00,,,0.00,520,WeatherCatV1.22B15,2013-11-14 10:07:00,
2013-11-14 05:09:00,27.8,19.6,30.22,WNW,295,0.0,0.0,71,0.00,,,0.00,520,WeatherCatV1.22B15,2013-11-14 10:09:00,
2013-11-14 05:10:00,27.8,19.3,30.22,WNW,295,0.0,0.0,70,0.00,,,0.00,520,WeatherCatV1.22B15,2013-11-14 10:10:00,
2013-11-14 05:12:00,27.8,19.3,30.22,WNW,295,0.0,0.0,70,0.00,,,0.00,520,WeatherCatV1.22B15,2013-11-14 10:12:00,
2013-11-14 05:14:00,27.7,19.2,30.22,WNW,295,0.0,0.0,70,0.00,,,0.00,520,WeatherCatV1.22B15,2013-11-14 10:14:00,
2013-11-14 05:15:00,27.7,19.2,30.22,WNW,295,0.0,0.0,70,0.00,,,0.00,520,WeatherCatV1.22B15,2013-11-14 10:15:00,
2013-11-14 05:16:00,27.7,19.5,30.22,WNW,295,0.0,0.0,71,0.00,,,0.00,520,WeatherCatV1.22B15,2013-11-14 10:16:00,
2013-11-14 05:18:00,27.6,19.5,30.22,WNW,295,0.0,1.0,71,0.00,,,0.00,520,WeatherCatV1.22B15,2013-11-14 10:18:00,
2013-11-14 05:19:00,27.6,19.5,30.22,WNW,295,0.0,1.0,71,0.00,,,0.00,520,WeatherCatV1.22B15,2013-11-14 10:19:00,
2013-11-14 05:20:00,27.5,19.4,30.22,WNW,295,0.0,1.0,71,0.00,,,0.00,520,WeatherCatV1.22B15,2013-11-14 10:20:00,
2013-11-14 05:21:00,27.5,19.4,30.22,WNW,295,0.0,1.0,71,0.00,,,0.00,520,WeatherCatV1.22B15,2013-11-14 10:21:00,
2013-11-14 05:23:00,27.5,19.4,30.22,WNW,295,0.0,0.0,71,0.00,,,0.00,520,WeatherCatV1.22B15,2013-11-14 10:23:00,
2013-11-14 05:24:00,27.4,19.3,30.22,WNW,295,0.0,0.0,71,0.00,,,0.00,520,WeatherCatV1.22B15,2013-11-14 10:24:00,
2013-11-14 05:25:00,27.4,19.3,30.22,WNW,295,0.0,1.0,71,0.00,,,0.00,520,WeatherCatV1.22B15,2013-11-14 10:25:00,
2013-11-14 05:26:00,27.4,19.3,30.22,WNW,295,0.0,1.0,71,0.00,,,0.00,520,WeatherCatV1.22B15,2013-11-14 10:26:00,
2013-11-14 05:28:00,27.4,19.3,30.22,WNW,295,0.0,0.0,71,0.00,,,0.00,520,WeatherCatV1.22B15,2013-11-14 10:28:00,
2013-11-14 05:29:00,27.3,19.2,30.22,WNW,295,0.0,0.0,71,0.00,,,0.00,520,WeatherCatV1.22B15,2013-11-14 10:29:00,
2013-11-14 05:30:00,27.3,19.2,30.22,WNW,295,0.0,0.0,71,0.00,,,0.00,520,WeatherCatV1.22B15,2013-11-14 10:30:00,
2013-11-14 05:31:00,27.3,19.2,30.22,WNW,295,0.0,0.0,71,0.00,,,0.00,520,WeatherCatV1.22B15,2013-11-14 10:31:00,
2013-11-14 05:33:00,27.3,19.2,30.22,WNW,295,0.0,1.0,71,0.00,,,0.00,520,WeatherCatV1.22B15,2013-11-14 10:33:00,
2013-11-14 05:34:00,27.3,18.8,30.22,WNW,295,0.0,0.0,70,0.00,,,0.00,520,WeatherCatV1.22B15,2013-11-14 10:34:00,
2013-11-14 05:35:00,27.2,19.1,30.22,WNW,295,0.0,1.0,71,0.00,,,0.00,520,WeatherCatV1.22B15,2013-11-14 10:35:00,
2013-11-14 05:36:00,27.2,19.1,30.22,WNW,295,0.0,1.0,71,0.00,,,0.00,520,WeatherCatV1.22B15,2013-11-14 10:36:00,
2013-11-14 05:38:00,27.1,19.0,30.22,WNW,295,1.0,1.0,71,0.00,,,0.00,520,WeatherCatV1.22B15,2013-11-14 10:38:00,
2013-11-14 05:39:00,27.2,19.1,30.22,WNW,295,0.0,1.0,71,0.00,,,0.00,520,WeatherCatV1.22B15,2013-11-14 10:39:00,
2013-11-14 05:40:00,27.2,19.1,30.22,WNW,295,0.0,1.0,71,0.00,,,0.00,520,WeatherCatV1.22B15,2013-11-14 10:40:00,
2013-11-14 05:41:00,27.2,19.1,30.21,WNW,295,0.0,1.0,71,0.00,,,0.00,520,WeatherCatV1.22B15,2013-11-14 10:41:00,
2013-11-14 05:44:00,27.1,19.3,30.21,WNW,295,1.0,1.0,72,0.00,,,0.00,520,WeatherCatV1.22B15,2013-11-14 10:44:00,
2013-11-14 05:45:00,27.2,19.1,30.22,WNW,295,0.0,2.0,71,0.00,,,0.00,520,WeatherCatV1.22B15,2013-11-14 10:45:00,
2013-11-14 05:46:00,27.3,19.2,30.22,WNW,295,0.0,2.0,71,0.00,,,0.00,520,WeatherCatV1.22B15,2013-11-14 10:46:00,
2013-11-14 05:49:00,27.6,19.1,30.22,WNW,295,1.0,2.0,70,0.00,,,0.00,520,WeatherCatV1.22B15,2013-11-14 10:49:00,
2013-11-14 05:50:00,27.7,19.2,30.22,WNW,295,0.0,2.0,70,0.00,,,0.00,520,WeatherCatV1.22B15,2013-11-14 10:50:00,
2013-11-14 05:52:00,27.8,19.3,30.22,WNW,295,0.0,0.0,70,0.00,,,0.00,520,WeatherCatV1.22B15,2013-11-14 10:52:00,
2013-11-14 05:54:00,27.8,19.0,30.22,WNW,295,0.0,1.0,69,0.00,,,0.00,520,WeatherCatV1.22B15,2013-11-14 10:54:00,
2013-11-14 05:55:00,27.8,19.0,30.22,WNW,295,0.0,0.0,69,0.00,,,0.00,520,WeatherCatV1.22B15,2013-11-14 10:55:00,
2013-11-14 05:57:00,27.8,19.0,30.22,WNW,295,0.0,0.0,69,0.00,,,0.00,520,WeatherCatV1.22B15,2013-11-14 10:57:00,
2013-11-14 05:59:00,27.7,18.9,30.22,WNW,295,0.0,0.0,69,0.00,,,0.00,520,WeatherCatV1.22B15,2013-11-14 10:59:00,
2013-11-14 06:00:00,27.7,18.9,30.22,WNW,295,0.0,0.0,69,0.00,,,0.00,520,WeatherCatV1.22B15,2013-11-14 11:00:00,
2013-11-14 06:02:00,27.7,18.9,30.22,WNW,295,0.0,0.0,69,0.00,,,0.00,520,WeatherCatV1.22B15,2013-11-14 11:02:00,
2013-11-14 06:05:00,27.7,18.9,30.22,WNW,295,0.0,0.0,69,0.00,,,0.00,520,WeatherCatV1.22B15,2013-11-14 11:05:00,
2013-11-14 06:06:00,27.7,18.9,30.22,WNW,295,0.0,0.0,69,0.00,,,0.00,520,WeatherCatV1.22B15,2013-11-14 11:06:00,
2013-11-14 06:07:00,27.7,18.9,30.22,WNW,295,0.0,0.0,69,0.00,,,0.00,520,WeatherCatV1.22B15,2013-11-14 11:07:00,
2013-11-14 06:09:00,27.6,18.8,30.22,WNW,295,0.0,0.0,69,0.00,,,0.00,520,WeatherCatV1.22B15,2013-11-14 11:09:00,
2013-11-14 06:10:00,27.7,18.9,30.22,WNW,295,0.0,0.0,69,0.00,,,0.00,520,WeatherCatV1.22B15,2013-11-14 11:10:00,
2013-11-14 06:11:00,27.6,18.8,30.22,WNW,295,0.0,0.0,69,0.00,,,0.00,520,WeatherCatV1.22B15,2013-11-14 11:11:00,
2013-11-14 06:12:00,27.6,18.8,30.22,WNW,295,0.0,0.0,69,0.00,,,0.00,520,WeatherCatV1.22B15,2013-11-14 11:12:00,
2013-11-14 06:14:00,27.7,18.9,30.22,WNW,295,0.0,0.0,69,0.00,,,0.00,520,WeatherCatV1.22B15,2013-11-14 11:14:00,
2013-11-14 06:15:00,27.7,19.2,30.22,WNW,295,0.0,0.0,70,0.00,,,0.00,520,WeatherCatV1.22B15,2013-11-14 11:15:00,
2013-11-14 06:16:00,27.7,19.2,30.22,WNW,295,1.0,2.0,70,0.00,,,0.00,520,WeatherCatV1.22B15,2013-11-14 11:16:00,
2013-11-14 06:17:00,27.7,18.9,30.22,WNW,295,0.0,2.0,69,0.00,,,0.00,520,WeatherCatV1.22B15,2013-11-14 11:17:00,
2013-11-14 06:20:00,27.8,19.0,30.22,WNW,295,0.0,1.0,69,0.00,,,0.00,520,WeatherCatV1.22B15,2013-11-14 11:20:00,
2013-11-14 06:21:00,27.9,19.1,30.22,WNW,295,0.0,0.0,69,0.00,,,0.00,520,WeatherCatV1.22B15,2013-11-14 11:21:00,
2013-11-14 06:22:00,28.0,19.2,30.22,WNW,295,0.0,1.0,69,0.00,,,0.00,520,WeatherCatV1.22B15,2013-11-14 11:22:00,
2013-11-14 06:25:00,28.0,18.8,30.22,WNW,295,0.0,1.0,68,0.00,,,0.00,520,WeatherCatV1.22B15,2013-11-14 11:25:00,
2013-11-14 06:26:00,28.0,18.8,30.22,WNW,295,0.0,0.0,68,0.00,,,0.00,520,WeatherCatV1.22B15,2013-11-14 11:26:00,
2013-11-14 06:27:00,28.0,18.8,30.22,WNW,295,0.0,1.0,68,0.00,,,0.00,520,WeatherCatV1.22B15,2013-11-14 11:27:00,
2013-11-14 06:30:00,28.2,19.0,30.22,WNW,295,0.0,1.0,68,0.00,,,0.00,520,WeatherCatV1.22B15,2013-11-14 11:30:00,
2013-11-14 06:31:00,28.2,19.0,30.22,WNW,295,0.0,1.0,68,0.00,,,0.00,520,WeatherCatV1.22B15,2013-11-14 11:31:00,
2013-11-14 06:32:00,28.2,19.0,30.22,WNW,295,0.0,1.0,68,0.00,,,0.00,520,WeatherCatV1.22B15,2013-11-14 11:32:00,
2013-11-14 06:36:00,28.2,19.0,30.22,WNW,295,0.0,0.0,68,0.00,,,0.00,520,WeatherCatV1.22B15,2013-11-14 11:36:00,
2013-11-14 06:37:00,28.2,19.0,30.22,WNW,295,0.0,0.0,68,0.00,,,0.00,520,WeatherCatV1.22B15,2013-11-14 11:37:00,
2013-11-14 06:38:00,28.3,19.1,30.22,WNW,295,0.0,1.0,68,0.00,,,0.00,520,WeatherCatV1.22B15,2013-11-14 11:38:00,
2013-11-14 06:41:00,28.3,19.1,30.22,WNW,295,0.0,0.0,68,0.00,,,0.00,520,WeatherCatV1.22B15,2013-11-14 11:41:00,
2013-11-14 06:42:00,28.3,19.1,30.22,WNW,295,0.0,0.0,68,0.00,,,0.00,520,WeatherCatV1.22B15,2013-11-14 11:42:00,
2013-11-14 06:43:00,28.3,19.1,30.22,WNW,295,0.0,0.0,68,0.00,,,0.00,520,WeatherCatV1.22B15,2013-11-14 11:43:00,
2013-11-14 06:46:00,28.2,19.0,30.22,WNW,295,0.0,1.0,68,0.00,,,0.00,520,WeatherCatV1.22B15,2013-11-14 11:46:00,
2013-11-14 06:47:00,28.2,19.0,30.22,WNW,295,0.0,1.0,68,0.00,,,0.00,520,WeatherCatV1.22B15,2013-11-14 11:47:00,
2013-11-14 06:49:00,28.2,19.0,30.22,WNW,295,0.0,3.0,68,0.00,,,0.00,520,WeatherCatV1.22B15,2013-11-14 11:49:00,
2013-11-14 06:51:00,28.3,19.1,30.22,WNW,295,0.0,1.0,68,0.00,,,0.00,520,WeatherCatV1.22B15,2013-11-14 11:51:00,
2013-11-14 06:52:00,28.3,19.1,30.22,WNW,295,0.0,1.0,68,0.00,,,0.00,520,WeatherCatV1.22B15,2013-11-14 11:52:00,
2013-11-14 06:53:00,28.3,19.1,30.22,WNW,295,0.0,1.0,68,0.00,,,0.00,520,WeatherCatV1.22B15,2013-11-14 11:53:00,
2013-11-14 06:54:00,28.3,19.1,30.22,WNW,295,0.0,1.0,68,0.00,,,0.00,520,WeatherCatV1.22B15,2013-11-14 11:54:00,
2013-11-14 06:56:00,28.3,19.1,30.22,WNW,295,0.0,0.0,68,0.00,,,0.00,520,WeatherCatV1.22B15,2013-11-14 11:56:00,
2013-11-14 06:57:00,28.3,19.1,30.22,WNW,295,0.0,0.0,68,0.00,,,0.00,520,WeatherCatV1.22B15,2013-11-14 11:57:00,
2013-11-14 06:58:00,28.3,19.1,30.22,WNW,295,0.0,0.0,68,0.00,,,0.00,520,WeatherCatV1.22B15,2013-11-14 11:58:00,
2013-11-14 06:59:00,28.3,19.1,30.22,WNW,295,0.0,0.0,68,0.00,,,0.00,520,WeatherCatV1.22B15,2013-11-14 11:59:00,
2013-11-14 07:02:00,28.3,19.1,30.22,WNW,295,0.0,1.0,68,0.00,,,0.00,520,WeatherCatV1.22B15,2013-11-14 12:02:00,
2013-11-14 07:03:00,28.3,19.1,30.22,WNW,295,0.0,1.0,68,0.00,,,0.00,520,WeatherCatV1.22B15,2013-11-14 12:03:00,
2013-11-14 07:04:00,28.2,19.0,30.22,WNW,295,0.0,2.0,68,0.00,,,0.00,520,WeatherCatV1.22B15,2013-11-14 12:04:00,
2013-11-14 07:05:00,28.3,19.1,30.22,WNW,295,0.0,1.0,68,0.00,,,0.00,520,WeatherCatV1.22B15,2013-11-14 12:05:00,
2013-11-14 07:07:00,28.3,19.1,30.22,WNW,295,0.0,0.0,68,0.00,,,0.00,520,WeatherCatV1.22B15,2013-11-14 12:07:00,
2013-11-14 07:08:00,28.3,19.1,30.22,WNW,295,1.0,1.0,68,0.00,,,0.00,520,WeatherCatV1.22B15,2013-11-14 12:08:00,
2013-11-14 07:09:00,28.3,19.5,30.22,WNW,295,1.0,3.0,69,0.00,,,0.00,520,WeatherCatV1.22B15,2013-11-14 12:09:00,
2013-11-14 07:10:00,28.3,19.1,30.22,WNW,295,1.0,3.0,68,0.00,,,0.00,520,WeatherCatV1.22B15,2013-11-14 12:10:00,
2013-11-14 07:12:00,28.5,19.3,30.23,WNW,295,0.0,1.0,68,0.00,,,0.00,520,WeatherCatV1.22B15,2013-11-14 12:12:00,
2013-11-14 07:13:00,28.5,19.3,30.22,WNW,295,1.0,1.0,68,0.00,,,0.00,520,WeatherCatV1.22B15,2013-11-14 12:13:00,
2013-11-14 07:14:00,28.6,19.7,30.23,WNW,295,1.0,1.0,69,0.00,,,0.00,520,WeatherCatV1.22B15,2013-11-14 12:14:00,
2013-11-14 07:16:00,28.6,19.4,30.22,WNW,295,0.0,3.0,68,0.00,,,0.00,520,WeatherCatV1.22B15,2013-11-14 12:16:00,
2013-11-14 07:17:00,28.7,19.5,30.22,WNW,295,0.0,1.0,68,0.00,,,0.00,520,WeatherCatV1.22B15,2013-11-14 12:17:00,
2013-11-14 07:18:00,28.7,19.5,30.22,WNW,295,1.0,1.0,68,0.00,,,0.00,520,WeatherCatV1.22B15,2013-11-14 12:18:00,
2013-11-14 07:19:00,28.8,19.6,30.23,WNW,295,0.0,1.0,68,0.00,,,0.00,520,WeatherCatV1.22B15,2013-11-14 12:19:00,
2013-11-14 07:21:00,28.8,19.6,30.23,WNW,295,0.0,1.0,68,0.00,,,0.00,520,WeatherCatV1.22B15,2013-11-14 12:21:00,
2013-11-14 07:22:00,28.8,19.6,30.23,WNW,295,1.0,1.0,68,0.00,,,0.00,520,WeatherCatV1.22B15,2013-11-14 12:22:00,
2013-11-14 07:23:00,28.8,19.6,30.23,WNW,295,0.0,2.0,68,0.00,,,0.00,520,WeatherCatV1.22B15,2013-11-14 12:23:00,
2013-11-14 07:24:00,28.9,19.7,30.23,WNW,295,0.0,2.0,68,0.00,,,0.00,520,WeatherCatV1.22B15,2013-11-14 12:24:00,
2013-11-14 07:25:00,28.9,19.7,30.23,WNW,295,1.0,3.0,68,0.00,,,0.00,520,WeatherCatV1.22B15,2013-11-14 12:25:00,
2013-11-14 07:26:00,29.0,19.4,30.23,WNW,295,0.0,3.0,67,0.00,,,0.00,520,WeatherCatV1.22B15,2013-11-14 12:26:00,
2013-11-14 07:27:00,29.0,19.4,30.23,WNW,295,0.0,1.0,67,0.00,,,0.00,520,WeatherCatV1.22B15,2013-11-14 12:27:00,
2013-11-14 07:28:00,29.2,19.6,30.23,WNW,295,0.0,1.0,67,0.00,,,0.00,520,WeatherCatV1.22B15,2013-11-14 12:28:00,
2013-11-14 07:29:00,29.2,19.6,30.23,WNW,295,1.0,1.0,67,0.00,,,0.00,520,WeatherCatV1.22B15,2013-11-14 12:29:00,
2013-11-14 07:30:00,29.2,19.6,30.23,WNW,295,1.0,1.0,67,0.00,,,0.00,520,WeatherCatV1.22B15,2013-11-14 12:30:00,
2013-11-14 07:31:00,29.3,19.7,30.23,WNW,295,1.0,2.0,67,0.00,,,0.00,520,WeatherCatV1.22B15,2013-11-14 12:31:00,
2013-11-14 07:32:00,29.3,19.7,30.23,WNW,295,1.0,2.0,67,0.00,,,0.00,520,WeatherCatV1.22B15,2013-11-14 12:32:00,
2013-11-14 07:33:00,29.3,19.4,30.23,WNW,295,1.0,1.0,66,0.00,,,0.00,520,WeatherCatV1.22B15,2013-11-14 12:33:00,
2013-11-14 07:34:00,29.4,19.8,30.23,WNW,295,1.0,1.0,67,0.00,,,0.00,520,WeatherCatV1.22B15,2013-11-14 12:34:00,
2013-11-14 07:35:00,29.4,19.5,30.23,WNW,295,1.0,1.0,66,0.00,,,0.00,520,WeatherCatV1.22B15,2013-11-14 12:35:00,
2013-11-14 07:37:00,29.5,19.6,30.23,WNW,295,0.0,1.0,66,0.00,,,0.00,520,WeatherCatV1.22B15,2013-11-14 12:37:00,
2013-11-14 07:38:00,29.5,19.6,30.23,WNW,295,1.0,1.0,66,0.00,,,0.00,520,WeatherCatV1.22B15,2013-11-14 12:38:00,
2013-11-14 07:40:00,29.6,19.7,30.23,WNW,295,1.0,4.0,66,0.00,,,0.00,520,WeatherCatV1.22B15,2013-11-14 12:40:00,
2013-11-14 07:41:00,29.7,19.8,30.23,WNW,295,0.0,4.0,66,0.00,,,0.00,520,WeatherCatV1.22B15,2013-11-14 12:41:00,
2013-11-14 07:42:00,29.7,19.8,30.23,WNW,295,1.0,2.0,66,0.00,,,0.00,520,WeatherCatV1.22B15,2013-11-14 12:42:00,
2013-11-14 07:43:00,29.8,19.9,30.23,WNW,295,1.0,1.0,66,0.00,,,0.00,520,WeatherCatV1.22B15,2013-11-14 12:43:00,
2013-11-14 07:45:00,29.9,19.6,30.23,WNW,295,1.0,1.0,65,0.00,,,0.00,520,WeatherCatV1.22B15,2013-11-14 12:45:00,
2013-11-14 07:46:00,30.0,19.7,30.23,WNW,295,0.0,3.0,65,0.00,,,0.00,520,WeatherCatV1.22B15,2013-11-14 12:46:00,
2013-11-14 07:47:00,30.1,19.8,30.23,WNW,295,1.0,2.0,65,0.00,,,0.00,520,WeatherCatV1.22B15,2013-11-14 12:47:00,
2013-11-14 07:48:00,30.1,19.8,30.23,WNW,295,0.0,2.0,65,0.00,,,0.00,520,WeatherCatV1.22B15,2013-11-14 12:48:00,
2013-11-14 07:49:00,30.2,19.9,30.23,WNW,295,0.0,2.0,65,0.00,,,0.00,520,WeatherCatV1.22B15,2013-11-14 12:49:00,
2013-11-14 07:50:00,30.2,19.9,30.23,WNW,295,1.0,2.0,65,0.00,,,0.00,520,WeatherCatV1.22B15,2013-11-14 12:50:00,
2013-11-14 07:51:00,30.3,20.0,30.23,WNW,295,1.0,2.0,65,0.00,,,0.00,520,WeatherCatV1.22B15,2013-11-14 12:51:00,
2013-11-14 07:52:00,30.4,20.1,30.23,WNW,295,1.0,2.0,65,0.00,,,0.00,520,WeatherCatV1.22B15,2013-11-14 12:52:00,
2013-11-14 07:53:00,30.4,19.7,30.23,WNW,295,1.0,2.0,64,0.00,,,0.00,520,WeatherCatV1.22B15,2013-11-14 12:53:00,
2013-11-14 07:54:00,30.4,19.7,30.23,WNW,295,1.0,2.0,64,0.00,,,0.00,520,WeatherCatV1.22B15,2013-11-14 12:54:00,
2013-11-14 07:55:00,30.5,19.8,30.23,WNW,295,1.0,2.0,64,0.00,,,0.00,520,WeatherCatV1.22B15,2013-11-14 12:55:00,
2013-11-14 07:56:00,30.5,19.8,30.23,WNW,295,1.0,1.0,64,0.00,,,0.00,520,WeatherCatV1.22B15,2013-11-14 12:56:00,
2013-11-14 07:58:00,30.6,19.9,30.23,WNW,295,0.0,2.0,64,0.00,,,0.00,520,WeatherCatV1.22B15,2013-11-14 12:58:00,
2013-11-14 07:59:00,30.6,19.9,30.23,WNW,295,1.0,2.0,64,0.00,,,0.00,520,WeatherCatV1.22B15,2013-11-14 12:59:00,
2013-11-14 08:00:00,30.7,20.0,30.23,WNW,295,1.0,2.0,64,0.00,,,0.00,520,WeatherCatV1.22B15,2013-11-14 13:00:00,
2013-11-14 08:01:00,30.7,20.0,30.23,WNW,295,0.0,2.0,64,0.00,,,0.00,520,WeatherCatV1.22B15,2013-11-14 13:01:00,
2013-11-14 08:02:00,30.8,20.1,30.23,WNW,295,3.0,3.0,64,0.00,,,0.00,520,WeatherCatV1.22B15,2013-11-14 13:02:00,
2013-11-14 08:03:00,30.8,20.1,30.23,WNW,295,0.0,3.0,64,0.00,,,0.00,520,WeatherCatV1.22B15,2013-11-14 13:03:00,
2013-11-14 08:04:00,30.8,20.1,30.23,WNW,295,0.0,3.0,64,0.00,,,0.00,520,WeatherCatV1.22B15,2013-11-14 13:04:00,
2013-11-14 08:05:00,30.9,20.2,30.23,WNW,295,2.0,3.0,64,0.00,,,0.00,520,WeatherCatV1.22B15,2013-11-14 13:05:00,
2013-11-14 08:06:00,30.9,20.2,30.23,WNW,295,1.0,3.0,64,0.00,,,0.00,520,WeatherCatV1.22B15,2013-11-14 13:06:00,
2013-11-14 08:08:00,31.0,20.3,30.23,WNW,295,1.0,2.0,64,0.00,,,0.00,520,WeatherCatV1.22B15,2013-11-14 13:08:00,
2013-11-14 08:09:00,31.1,20.0,30.23,WNW,295,1.0,2.0,63,0.00,,,0.00,520,WeatherCatV1.22B15,2013-11-14 13:09:00,
2013-11-14 08:11:00,31.2,20.1,30.23,WNW,295,1.0,1.0,63,0.00,,,0.00,520,WeatherCatV1.22B15,2013-11-14 13:11:00,
2013-11-14 08:12:00,31.2,20.1,30.23,WNW,295,1.0,2.0,63,0.00,,,0.00,520,WeatherCatV1.22B15,2013-11-14 13:12:00,
2013-11-14 08:13:00,31.3,20.2,30.23,WNW,295,2.0,2.0,63,0.00,,,0.00,520,WeatherCatV1.22B15,2013-11-14 13:13:00,
2013-11-14 08:14:00,31.3,20.2,30.23,WNW,295,0.0,2.0,63,0.00,,,0.00,520,WeatherCatV1.22B15,2013-11-14 13:14:00,
2013-11-14 08:15:00,31.4,19.9,30.23,WNW,295,2.0,2.0,62,0.00,,,0.00,520,WeatherCatV1.22B15,2013-11-14 13:15:00,
2013-11-14 08:16:00,31.4,19.9,30.23,WNW,295,0.0,2.0,62,0.00,,,0.00,520,WeatherCatV1.22B15,2013-11-14 13:16:00,
2013-11-14 08:17:00,31.5,20.0,30.23,WNW,295,0.0,1.0,62,0.00,,,0.00,520,WeatherCatV1.22B15,2013-11-14 13:17:00,
2013-11-14 08:18:00,31.6,20.1,30.23,WNW,295,0.0,2.0,62,0.00,,,0.00,520,WeatherCatV1.22B15,2013-11-14 13:18:00,
2013-11-14 08:19:00,31.6,20.5,30.23,WNW,295,0.0,2.0,63,0.00,,,0.00,520,WeatherCatV1.22B15,2013-11-14 13:19:00,
2013-11-14 08:20:00,31.6,20.1,30.23,WNW,295,0.0,0.0,62,0.00,,,0.00,520,WeatherCatV1.22B15,2013-11-14 13:20:00,
2013-11-14 08:21:00,31.7,20.2,30.23,WNW,295,2.0,2.0,62,0.00,,,0.00,520,WeatherCatV1.22B15,2013-11-14 13:21:00,
2013-11-14 08:22:00,31.7,20.2,30.23,WNW,295,1.0,2.0,62,0.00,,,0.00,520,WeatherCatV1.22B15,2013-11-14 13:22:00,
2013-11-14 08:23:00,31.8,20.3,30.23,WNW,295,0.0,1.0,62,0.00,,,0.00,520,WeatherCatV1.22B15,2013-11-14 13:23:00,
2013-11-14 08:24:00,31.8,20.3,30.23,WNW,295,0.0,2.0,62,0.00,,,0.00,520,WeatherCatV1.22B15,2013-11-14 13:24:00,
2013-11-14 08:25:00,31.9,20.4,30.23,WNW,295,1.0,2.0,62,0.00,,,0.00,520,WeatherCatV1.22B15,2013-11-14 13:25:00,
2013-11-14 08:27:00,32.0,20.5,30.23,WNW,295,0.0,2.0,62,0.00,,,0.00,520,WeatherCatV1.22B15,2013-11-14 13:27:00,
2013-11-14 08:28:00,32.1,20.2,30.23,WNW,295,1.0,1.0,61,0.00,,,0.00,520,WeatherCatV1.22B15,2013-11-14 13:28:00,
2013-11-14 08:29:00,32.1,20.2,30.23,WNW,295,0.0,1.0,61,0.00,,,0.00,520,WeatherCatV1.22B15,2013-11-14 13:29:00,
2013-11-14 08:30:00,32.2,20.3,30.23,WNW,295,1.0,1.0,61,0.00,,,0.00,520,WeatherCatV1.22B15,2013-11-14 13:30:00,
2013-11-14 08:32:00,32.3,20.4,30.23,WNW,295,1.0,2.0,61,0.00,,,0.00,520,WeatherCatV1.22B15,2013-11-14 13:32:00,
2013-11-14 08:33:00,32.4,20.5,30.23,WNW,295,0.0,2.0,61,0.00,,,0.00,520,WeatherCatV1.22B15,2013-11-14 13:33:00,
2013-11-14 08:34:00,32.4,20.5,30.23,WNW,295,1.0,2.0,61,0.00,,,0.00,520,WeatherCatV1.22B15,2013-11-14 13:34:00,
2013-11-14 08:35:00,32.4,20.5,30.24,WNW,295,0.0,1.0,61,0.00,,,0.00,520,WeatherCatV1.22B15,2013-11-14 13:35:00,
2013-11-14 08:37:00,32.5,20.6,30.24,WNW,295,3.0,4.0,61,0.00,,,0.00,520,WeatherCatV1.22B15,2013-11-14 13:37:00,
2013-11-14 08:38:00,32.5,20.2,30.24,WNW,295,1.0,4.0,60,0.00,,,0.00,520,WeatherCatV1.22B15,2013-11-14 13:38:00,
2013-11-14 08:39:00,32.6,20.7,30.24,WNW,295,1.0,4.0,61,0.00,,,0.00,520,WeatherCatV1.22B15,2013-11-14 13:39:00,
2013-11-14 08:40:00,32.7,20.4,30.24,WNW,295,1.0,3.0,60,0.00,,,0.00,520,WeatherCatV1.22B15,2013-11-14 13:40:00,
2013-11-14 08:42:00,32.8,20.9,30.24,WNW,295,1.0,1.0,61,0.00,,,0.00,520,WeatherCatV1.22B15,2013-11-14 13:42:00,
2013-11-14 08:43:00,32.8,20.9,30.24,WNW,295,0.0,1.0,61,0.00,,,0.00,520,WeatherCatV1.22B15,2013-11-14 13:43:00,
2013-11-14 08:44:00,32.9,20.6,30.24,WNW,295,1.0,1.0,60,0.00,,,0.00,520,WeatherCatV1.22B15,2013-11-14 13:44:00,
2013-11-14 08:45:00,33.0,21.0,30.24,WNW,295,0.0,0.0,61,0.00,,,0.00,520,WeatherCatV1.22B15,2013-11-14 13:45:00,
2013-11-14 08:47:00,33.0,21.0,30.24,WNW,295,0.0,1.0,61,0.00,,,0.00,520,WeatherCatV1.22B15,2013-11-14 13:47:00,
2013-11-14 08:48:00,33.1,20.8,30.24,WNW,295,1.0,1.0,60,0.00,,,0.00,520,WeatherCatV1.22B15,2013-11-14 13:48:00,
2013-11-14 08:49:00,33.1,20.8,30.24,WNW,295,0.0,1.0,60,0.00,,,0.00,520,WeatherCatV1.22B15,2013-11-14 13:49:00,
2013-11-14 08:50:00,33.2,20.8,30.24,WNW,295,0.0,1.0,60,0.00,,,0.00,520,WeatherCatV1.22B15,2013-11-14 13:50:00,
2013-11-14 08:51:00,33.2,20.8,30.24,WNW,295,0.0,1.0,60,0.00,,,0.00,520,WeatherCatV1.22B15,2013-11-14 13:51:00,
2013-11-14 08:52:00,33.3,20.9,30.24,WNW,295,0.0,2.0,60,0.00,,,0.00,520,WeatherCatV1.22B15,2013-11-14 13:52:00,
2013-11-14 08:54:00,33.4,20.6,30.24,WNW,295,2.0,2.0,59,0.00,,,0.00,520,WeatherCatV1.22B15,2013-11-14 13:54:00,
2013-11-14 08:55:00,33.5,20.7,30.24,WNW,295,0.0,2.0,59,0.00,,,0.00,520,WeatherCatV1.22B15,2013-11-14 13:55:00,
2013-11-14 08:56:00,33.6,21.2,30.24,WNW,295,1.0,1.0,60,0.00,,,0.00,520,WeatherCatV1.22B15,2013-11-14 13:56:00,
2013-11-14 08:58:00,33.7,20.9,30.24,WNW,295,0.0,3.0,59,0.00,,,0.00,520,WeatherCatV1.22B15,2013-11-14 13:58:00,
2013-11-14 08:59:00,33.8,21.0,30.24,WNW,295,0.0,1.0,59,0.00,,,0.00,520,WeatherCatV1.22B15,2013-11-14 13:59:00,
2013-11-14 09:00:00,33.9,21.1,30.24,WNW,295,0.0,0.0,59,0.00,,,0.00,520,WeatherCatV1.22B15,2013-11-14 14:00:00,
2013-11-14 09:01:00,33.9,21.1,30.24,WNW,295,2.0,2.0,59,0.00,,,0.00,520,WeatherCatV1.22B15,2013-11-14 14:01:00,
2013-11-14 09:02:00,34.0,20.8,30.24,WNW,295,0.0,2.0,58,0.00,,,0.00,520,WeatherCatV1.22B15,2013-11-14 14:02:00,
2013-11-14 09:03:00,34.1,20.9,30.24,WNW,295,1.0,3.0,58,0.00,,,0.00,520,WeatherCatV1.22B15,2013-11-14 14:03:00,
2013-11-14 09:04:00,34.1,20.9,30.24,WNW,295,0.0,3.0,58,0.00,,,0.00,520,WeatherCatV1.22B15,2013-11-14 14:04:00,
2013-11-14 09:05:00,34.2,21.0,30.24,WNW,295,1.0,1.0,58,0.00,,,0.00,520,WeatherCatV1.22B15,2013-11-14 14:05:00,
2013-11-14 09:06:00,34.3,21.1,30.24,WNW,295,0.0,2.0,58,0.00,,,0.00,520,WeatherCatV1.22B15,2013-11-14 14:06:00,
2013-11-14 09:07:00,34.4,21.2,30.24,WNW,295,0.0,1.0,58,0.00,,,0.00,520,WeatherCatV1.22B15,2013-11-14 14:07:00,
2013-11-14 09:08:00,34.4,21.2,30.24,WNW,295,0.0,1.0,58,0.00,,,0.00,520,WeatherCatV1.22B15,2013-11-14 14:08:00,
2013-11-14 09:09:00,34.5,21.3,30.24,WNW,295,1.0,2.0,58,0.00,,,0.00,520,WeatherCatV1.22B15,2013-11-14 14:09:00,
2013-11-14 09:10:00,34.5,20.9,30.24,WNW,295,1.0,2.0,57,0.00,,,0.00,520,WeatherCatV1.22B15,2013-11-14 14:10:00,
2013-11-14 09:12:00,34.7,21.5,30.24,WNW,295,1.0,3.0,58,0.00,,,0.00,520,WeatherCatV1.22B15,2013-11-14 14:12:00,
2013-11-14 09:13:00,34.8,21.1,30.23,WNW,295,1.0,3.0,57,0.00,,,0.00,520,WeatherCatV1.22B15,2013-11-14 14:13:00,
2013-11-14 09:14:00,34.9,21.2,30.24,WNW,295,1.0,1.0,57,0.00,,,0.00,520,WeatherCatV1.22B15,2013-11-14 14:14:00,
2013-11-14 09:15:00,35.0,21.3,30.23,WNW,295,0.0,2.0,57,0.00,,,0.00,520,WeatherCatV1.22B15,2013-11-14 14:15:00,
2013-11-14 09:16:00,35.1,21.4,30.23,WNW,295,1.0,1.0,57,0.00,,,0.00,520,WeatherCatV1.22B15,2013-11-14 14:16:00,
2013-11-14 09:17:00,35.2,21.5,30.24,WNW,295,0.0,2.0,57,0.00,,,0.00,520,WeatherCatV1.22B15,2013-11-14 14:17:00,
2013-11-14 09:18:00,35.3,21.2,30.23,WNW,295,1.0,2.0,56,0.00,,,0.00,520,WeatherCatV1.22B15,2013-11-14 14:18:00,
2013-11-14 09:19:00,35.4,21.3,30.24,WNW,295,1.0,2.0,56,0.00,,,0.00,520,WeatherCatV1.22B15,2013-11-14 14:19:00,
2013-11-14 09:20:00,35.5,21.4,30.23,WNW,295,1.0,2.0,56,0.00,,,0.00,520,WeatherCatV1.22B15,2013-11-14 14:20:00,
2013-11-14 09:22:00,35.7,21.6,30.23,WNW,295,1.0,2.0,56,0.00,,,0.00,520,WeatherCatV1.22B15,2013-11-14 14:22:00,
2013-11-14 09:23:00,35.8,21.7,30.23,WNW,295,2.0,2.0,56,0.00,,,0.00,520,WeatherCatV1.22B15,2013-11-14 14:23:00,
2013-11-14 09:24:00,35.9,21.8,30.23,WNW,295,1.0,2.0,56,0.00,,,0.00,520,WeatherCatV1.22B15,2013-11-14 14:24:00,
2013-11-14 09:25:00,36.0,21.0,30.23,WNW,295,1.0,2.0,54,0.00,,,0.00,520,WeatherCatV1.22B15,2013-11-14 14:25:00,
2013-11-14 09:27:00,36.2,21.2,30.23,WNW,295,0.0,2.0,54,0.00,,,0.00,520,WeatherCatV1.22B15,2013-11-14 14:27:00,
2013-11-14 09:28:00,36.3,21.3,30.23,WNW,295,1.0,1.0,54,0.00,,,0.00,520,WeatherCatV1.22B15,2013-11-14 14:28:00,
2013-11-14 09:29:00,36.4,21.4,30.23,WNW,295,0.0,1.0,54,0.00,,,0.00,520,WeatherCatV1.22B15,2013-11-14 14:29:00,
2013-11-14 09:31:00,36.5,21.9,30.23,WNW,295,1.0,1.0,55,0.00,,,0.00,520,WeatherCatV1.22B15,2013-11-14 14:31:00,
2013-11-14 09:33:00,36.7,21.2,30.23,WNW,295,1.0,4.0,53,0.00,,,0.00,520,WeatherCatV1.22B15,2013-11-14 14:33:00,
2013-11-14 09:34:00,36.9,21.4,30.23,WNW,295,3.0,4.0,53,0.00,,,0.00,520,WeatherCatV1.22B15,2013-11-14 14:34:00,
2013-11-14 09:35:00,37.1,20.7,30.23,WNW,295,1.0,3.0,51,0.00,,,0.00,520,WeatherCatV1.22B15,2013-11-14 14:35:00,
2013-11-14 09:36:00,37.2,20.8,30.23,WNW,295,2.0,3.0,51,0.00,,,0.00,520,WeatherCatV1.22B15,2013-11-14 14:36:00,
2013-11-14 09:38:00,37.3,20.9,30.23,WNW,295,1.0,1.0,51,0.00,,,0.00,520,WeatherCatV1.22B15,2013-11-14 14:38:00,
2013-11-14 09:39:00,37.5,20.6,30.23,WNW,295,2.0,4.0,50,0.00,,,0.00,520,WeatherCatV1.22B15,2013-11-14 14:39:00,
2013-11-14 09:40:00,37.7,20.3,30.23,WNW,295,0.0,1.0,49,0.00,,,0.00,520,WeatherCatV1.22B15,2013-11-14 14:40:00,
2013-11-14 09:41:00,37.8,20.4,30.23,WNW,295,4.0,4.0,49,0.00,,,0.00,520,WeatherCatV1.22B15,2013-11-14 14:41:00,
2013-11-14 09:43:00,38.0,20.1,30.23,WNW,295,2.0,4.0,48,0.00,,,0.00,520,WeatherCatV1.22B15,2013-11-14 14:43:00,
2013-11-14 09:44:00,38.2,20.3,30.23,WNW,295,3.0,3.0,48,0.00,,,0.00,520,WeatherCatV1.22B15,2013-11-14 14:44:00,
2013-11-14 09:45:00,38.2,19.8,30.23,WNW,295,5.0,6.0,47,0.00,,,0.00,520,WeatherCatV1.22B15,2013-11-14 14:45:00,
2013-11-14 09:46:00,38.4,20.0,30.23,WNW,295,0.0,6.0,47,0.00,,,0.00,520,WeatherCatV1.22B15,2013-11-14 14:46:00,
2013-11-14 09:47:00,38.5,20.5,30.23,WNW,295,1.0,6.0,48,0.00,,,0.00,520,WeatherCatV1.22B15,2013-11-14 14:47:00,
2013-11-14 09:48:00,38.7,20.2,30.23,WNW,295,1.0,2.0,47,0.00,,,0.00,520,WeatherCatV1.22B15,2013-11-14 14:48:00,
2013-11-14 09:49:00,38.8,20.3,30.23,WNW,296,1.0,4.0,47,0.00,,,0.00,520,WeatherCatV1.22B15,2013-11-14 14:49:00,
2013-11-14 09:51:00,38.9,19.9,30.23,WNW,295,1.0,4.0,46,0.00,,,0.00,520,WeatherCatV1.22B15,2013-11-14 14:51:00,
2013-11-14 09:52:00,39.1,20.1,30.23,WNW,295,0.0,3.0,46,0.00,,,0.00,520,WeatherCatV1.22B15,2013-11-14 14:52:00,
2013-11-14 09:53:00,39.2,20.7,30.23,WNW,295,1.0,2.0,47,0.00,,,0.00,520,WeatherCatV1.22B15,2013-11-14 14:53:00,
2013-11-14 09:54:00,39.3,20.3,30.23,WNW,295,1.0,2.0,46,0.00,,,0.00,520,WeatherCatV1.22B15,2013-11-14 14:54:00,
2013-11-14 09:56:00,39.5,19.9,30.23,WNW,295,2.0,5.0,45,0.00,,,0.00,520,WeatherCatV1.22B15,2013-11-14 14:56:00,
2013-11-14 09:57:00,39.5,19.9,30.23,WNW,295,1.0,5.0,45,0.00,,,0.00,520,WeatherCatV1.22B15,2013-11-14 14:57:00,
2013-11-14 09:58:00,39.7,20.1,30.23,WNW,295,0.0,2.0,45,0.00,,,0.00,520,WeatherCatV1.22B15,2013-11-14 14:58:00,
2013-11-14 09:59:00,39.7,20.1,30.23,WNW,295,0.0,2.0,45,0.00,,,0.00,520,WeatherCatV1.22B15,2013-11-14 14:59:00,
2013-11-14 10:01:00,40.0,19.9,30.23,WNW,295,0.0,1.0,44,0.00,,,0.00,520,WeatherCatV1.22B15,2013-11-14 15:01:00,
2013-11-14 10:02:00,40.1,20.0,30.23,WNW,295,1.0,1.0,44,0.00,,,0.00,520,WeatherCatV1.22B15,2013-11-14 15:02:00,
2013-11-14 10:04:00,40.4,20.8,30.23,WNW,295,0.0,2.0,45,0.00,,,0.00,520,WeatherCatV1.22B15,2013-11-14 15:04:00,
2013-11-14 10:05:00,40.5,20.9,30.22,WNW,295,0.0,1.0,45,0.00,,,0.00,520,WeatherCatV1.22B15,2013-11-14 15:05:00,
2013-11-14 10:06:00,40.7,21.0,30.23,WNW,295,1.0,2.0,45,0.00,,,0.00,520,WeatherCatV1.22B15,2013-11-14 15:06:00,
2013-11-14 10:07:00,40.8,20.6,30.23,WNW,295,1.0,2.0,44,0.00,,,0.00,520,WeatherCatV1.22B15,2013-11-14 15:07:00,
2013-11-14 10:09:00,40.9,19.6,30.23,WNW,295,3.0,7.0,42,0.00,,,0.00,520,WeatherCatV1.22B15,2013-11-14 15:09:00,
2013-11-14 10:10:00,40.9,20.1,30.23,WNW,295,1.0,3.0,43,0.00,,,0.00,520,WeatherCatV1.22B15,2013-11-14 15:10:00,
2013-11-14 10:12:00,41.1,20.3,30.22,WNW,295,1.0,1.0,43,0.00,,,0.00,520,WeatherCatV1.22B15,2013-11-14 15:12:00,
2013-11-14 10:13:00,41.1,20.3,30.22,WNW,295,1.0,1.0,43,0.00,,,0.00,520,WeatherCatV1.22B15,2013-11-14 15:13:00,
2013-11-14 10:14:00,41.3,20.5,30.23,WNW,295,1.0,1.0,43,0.00,,,0.00,520,WeatherCatV1.22B15,2013-11-14 15:14:00,
2013-11-14 10:15:00,41.4,20.0,30.22,WNW,295,1.0,2.0,42,0.00,,,0.00,520,WeatherCatV1.22B15,2013-11-14 15:15:00,
2013-11-14 10:17:00,41.6,20.2,30.22,WNW,295,1.0,4.0,42,0.00,,,0.00,520,WeatherCatV1.22B15,2013-11-14 15:17:00,
2013-11-14 10:18:00,41.6,20.2,30.23,WNW,295,0.0,4.0,42,0.00,,,0.00,520,WeatherCatV1.22B15,2013-11-14 15:18:00,
2013-11-14 10:19:00,41.7,19.8,30.22,WNW,295,1.0,2.0,41,0.00,,,0.00,520,WeatherCatV1.22B15,2013-11-14 15:19:00,
2013-11-14 10:20:00,41.7,20.3,30.22,WNW,295,1.0,1.0,42,0.00,,,0.00,520,WeatherCatV1.22B15,2013-11-14 15:20:00,
2013-11-14 10:21:00,41.7,20.3,30.23,WNW,295,0.0,1.0,42,0.00,,,0.00,520,WeatherCatV1.22B15,2013-11-14 15:21:00,
2013-11-14 10:22:00,41.9,21.0,30.22,WNW,295,1.0,1.0,43,0.00,,,0.00,520,WeatherCatV1.22B15,2013-11-14 15:22:00,
2013-11-14 10:23:00,42.0,21.1,30.23,WNW,295,1.0,1.0,43,0.00,,,0.00,520,WeatherCatV1.22B15,2013-11-14 15:23:00,
2013-11-14 10:25:00,42.1,20.1,30.23,WNW,295,1.0,3.0,41,0.00,,,0.00,520,WeatherCatV1.22B15,2013-11-14 15:25:00,
2013-11-14 10:26:00,42.2,20.2,30.23,WNW,295,1.0,3.0,41,0.00,,,0.00,520,WeatherCatV1.22B15,2013-11-14 15:26:00,
2013-11-14 10:28:00,42.4,20.4,30.22,WNW,295,2.0,3.0,41,0.00,,,0.00,520,WeatherCatV1.22B15,2013-11-14 15:28:00,
2013-11-14 10:29:00,42.4,20.4,30.23,WNW,295,3.0,3.0,41,0.00,,,0.00,520,WeatherCatV1.22B15,2013-11-14 15:29:00,
2013-11-14 10:30:00,42.4,20.4,30.23,WNW,295,1.0,3.0,41,0.00,,,0.00,520,WeatherCatV1.22B15,2013-11-14 15:30:00,
2013-11-14 10:31:00,42.5,19.9,30.23,WNW,295,1.0,3.0,40,0.00,,,0.00,520,WeatherCatV1.22B15,2013-11-14 15:31:00,
2013-11-14 10:33:00,42.6,19.4,30.22,WNW,295,3.0,4.0,39,0.00,,,0.00,520,WeatherCatV1.22B15,2013-11-14 15:33:00,
2013-11-14 10:34:00,42.7,19.5,30.22,WNW,295,2.0,4.0,39,0.00,,,0.00,520,WeatherCatV1.22B15,2013-11-14 15:34:00,
2013-11-14 10:35:00,42.7,19.5,30.22,WNW,295,1.0,1.0,39,0.00,,,0.00,520,WeatherCatV1.22B15,2013-11-14 15:35:00,
2013-11-14 10:36:00,42.7,20.1,30.22,WNW,295,0.0,1.0,40,0.00,,,0.00,520,WeatherCatV1.22B15,2013-11-14 15:36:00,
2013-11-14 10:38:00,42.9,19.7,30.22,WNW,295,2.0,2.0,39,0.00,,,0.00,520,WeatherCatV1.22B15,2013-11-14 15:38:00,
2013-11-14 10:40:00,43.1,19.9,30.22,WNW,295,2.0,3.0,39,0.00,,,0.00,520,WeatherCatV1.22B15,2013-11-14 15:40:00,
2013-11-14 10:41:00,43.1,19.9,30.22,WNW,295,2.0,5.0,39,0.00,,,0.00,520,WeatherCatV1.22B15,2013-11-14 15:41:00,
2013-11-14 10:42:00,43.2,19.9,30.22,WNW,295,5.0,6.0,39,0.00,,,0.00,520,WeatherCatV1.22B15,2013-11-14 15:42:00,
2013-11-14 10:43:00,43.2,19.9,30.22,WNW,295,1.0,6.0,39,0.00,,,0.00,520,WeatherCatV1.22B15,2013-11-14 15:43:00,
2013-11-14 10:44:00,43.2,19.9,30.22,WNW,295,3.0,4.0,39,0.00,,,0.00,520,WeatherCatV1.22B15,2013-11-14 15:44:00,
2013-11-14 10:45:00,43.2,19.9,30.22,WNW,295,1.0,3.0,39,0.00,,,0.00,520,WeatherCatV1.22B15,2013-11-14 15:45:00,
2013-11-14 10:46:00,43.3,20.0,30.22,WNW,295,2.0,4.0,39,0.00,,,0.00,520,WeatherCatV1.22B15,2013-11-14 15:46:00,
2013-11-14 10:48:00,43.3,19.4,30.22,WNW,295,3.0,4.0,38,0.00,,,0.00,520,WeatherCatV1.22B15,2013-11-14 15:48:00,
2013-11-14 10:49:00,43.4,19.5,30.22,WNW,295,0.0,2.0,38,0.00,,,0.00,520,WeatherCatV1.22B15,2013-11-14 15:49:00,
2013-11-14 10:50:00,43.5,20.2,30.22,WNW,295,1.0,3.0,39,0.00,,,0.00,520,WeatherCatV1.22B15,2013-11-14 15:50:00,
2013-11-14 10:51:00,43.5,20.2,30.22,WNW,295,1.0,3.0,39,0.00,,,0.00,520,WeatherCatV1.22B15,2013-11-14 15:51:00,
2013-11-14 10:53:00,43.5,20.2,30.22,WNW,295,1.0,3.0,39,0.00,,,0.00,520,WeatherCatV1.22B15,2013-11-14 15:53:00,
2013-11-14 10:54:00,43.6,20.3,30.22,WNW,295,1.0,2.0,39,0.00,,,0.00,520,WeatherCatV1.22B15,2013-11-14 15:54:00,
2013-11-14 10:55:00,43.6,20.3,30.22,WNW,295,2.0,4.0,39,0.00,,,0.00,520,WeatherCatV1.22B15,2013-11-14 15:55:00,
2013-11-14 10:56:00,43.7,19.8,30.22,WNW,295,2.0,4.0,38,0.00,,,0.00,520,WeatherCatV1.22B15,2013-11-14 15:56:00,
2013-11-14 10:58:00,43.7,20.4,30.22,WNW,295,1.0,2.0,39,0.00,,,0.00,520,WeatherCatV1.22B15,2013-11-14 15:58:00,
2013-11-14 10:59:00,43.7,19.8,30.21,WNW,295,1.0,3.0,38,0.00,,,0.00,520,WeatherCatV1.22B15,2013-11-14 15:59:00,
2013-11-14 11:00:00,43.7,19.8,30.21,WNW,295,2.0,4.0,38,0.00,,,0.00,520,WeatherCatV1.22B15,2013-11-14 16:00:00,
2013-11-14 11:01:00,43.7,19.1,30.21,WNW,295,1.0,4.0,37,0.00,,,0.00,520,WeatherCatV1.22B15,2013-11-14 16:01:00,
2013-11-14 11:03:00,43.7,19.8,30.21,WNW,295,1.0,3.0,38,0.00,,,0.00,520,WeatherCatV1.22B15,2013-11-14 16:03:00,
2013-11-14 11:04:00,43.7,19.8,30.21,WNW,295,0.0,3.0,38,0.00,,,0.00,520,WeatherCatV1.22B15,2013-11-14 16:04:00,
2013-11-14 11:05:00,43.8,19.9,30.21,WNW,295,1.0,2.0,38,0.00,,,0.00,520,WeatherCatV1.22B15,2013-11-14 16:05:00,
2013-11-14 11:06:00,43.9,20.6,30.21,WNW,295,2.0,3.0,39,0.00,,,0.00,520,WeatherCatV1.22B15,2013-11-14 16:06:00,
2013-11-14 11:07:00,43.9,20.0,30.21,WNW,295,1.0,3.0,38,0.00,,,0.00,520,WeatherCatV1.22B15,2013-11-14 16:07:00,
2013-11-14 11:08:00,43.9,19.3,30.21,WNW,295,2.0,2.0,37,0.00,,,0.00,520,WeatherCatV1.22B15,2013-11-14 16:08:00,
2013-11-14 11:09:00,43.9,19.3,30.21,WNW,295,1.0,2.0,37,0.00,,,0.00,520,WeatherCatV1.22B15,2013-11-14 16:09:00,
2013-11-14 11:10:00,43.9,19.3,30.21,WNW,295,1.0,3.0,37,0.00,,,0.00,520,WeatherCatV1.22B15,2013-11-14 16:10:00,
2013-11-14 11:11:00,43.9,20.0,30.21,WNW,295,2.0,3.0,38,0.00,,,0.00,520,WeatherCatV1.22B15,2013-11-14 16:11:00,
2013-11-14 11:12:00,43.9,19.3,30.21,WNW,295,0.0,3.0,37,0.00,,,0.00,520,WeatherCatV1.22B15,2013-11-14 16:12:00,
2013-11-14 11:13:00,43.9,19.3,30.21,WNW,295,4.0,4.0,37,0.00,,,0.00,520,WeatherCatV1.22B15,2013-11-14 16:13:00,
2013-11-14 11:14:00,43.9,19.3,30.21,WNW,295,2.0,4.0,37,0.00,,,0.00,520,WeatherCatV1.22B15,2013-11-14 16:14:00,
2013-11-14 11:15:00,44.0,19.4,30.21,WNW,295,1.0,4.0,37,0.00,,,0.00,520,WeatherCatV1.22B15,2013-11-14 16:15:00,
2013-11-14 11:16:00,44.1,20.1,30.21,WNW,295,1.0,4.0,38,0.00,,,0.00,520,WeatherCatV1.22B15,2013-11-14 16:16:00,
2013-11-14 11:17:00,44.1,20.7,30.21,WNW,295,0.0,2.0,39,0.00,,,0.00,520,WeatherCatV1.22B15,2013-11-14 16:17:00,
2013-11-14 11:18:00,44.3,20.9,30.21,WNW,295,0.0,2.0,39,0.00,,,0.00,520,WeatherCatV1.22B15,2013-11-14 16:18:00,
2013-11-14 11:19:00,44.3,20.9,30.21,WNW,295,0.0,2.0,39,0.00,,,0.00,520,WeatherCatV1.22B15,2013-11-14 16:19:00,
2013-11-14 11:20:00,44.6,21.2,30.21,WNW,295,1.0,2.0,39,0.00,,,0.00,520,WeatherCatV1.22B15,2013-11-14 16:20:00,
2013-11-14 11:22:00,44.9,20.9,30.21,WNW,295,2.0,3.0,38,0.00,,,0.00,520,WeatherCatV1.22B15,2013-11-14 16:22:00,
2013-11-14 11:24:00,45.1,19.8,30.21,WNW,295,1.0,3.0,36,0.00,,,0.00,520,WeatherCatV1.22B15,2013-11-14 16:24:00,
2013-11-14 11:25:00,45.1,19.8,30.21,WNW,295,1.0,4.0,36,0.00,,,0.00,520,WeatherCatV1.22B15,2013-11-14 16:25:00,
2013-11-14 11:27:00,45.0,19.7,30.21,WNW,295,1.0,4.0,36,0.00,,,0.00,520,WeatherCatV1.22B15,2013-11-14 16:27:00,
2013-11-14 11:28:00,45.0,20.3,30.21,WNW,295,1.0,6.0,37,0.00,,,0.00,520,WeatherCatV1.22B15,2013-11-14 16:28:00,
2013-11-14 11:29:00,45.0,20.3,30.20,WNW,295,0.0,6.0,37,0.00,,,0.00,520,WeatherCatV1.22B15,2013-11-14 16:29:00,
2013-11-14 11:31:00,45.2,20.5,30.20,WNW,295,3.0,5.0,37,0.00,,,0.00,520,WeatherCatV1.22B15,2013-11-14 16:31:00,
2013-11-14 11:32:00,45.2,20.5,30.20,WNW,295,2.0,5.0,37,0.00,,,0.00,520,WeatherCatV1.22B15,2013-11-14 16:32:00,
2013-11-14 11:33:00,45.3,19.9,30.20,WNW,295,2.0,3.0,36,0.00,,,0.00,520,WeatherCatV1.22B15,2013-11-14 16:33:00,
2013-11-14 11:34:00,45.3,19.9,30.20,WNW,295,1.0,5.0,36,0.00,,,0.00,520,WeatherCatV1.22B15,2013-11-14 16:34:00,
2013-11-14 11:36:00,45.2,19.2,30.20,WNW,295,1.0,6.0,35,0.00,,,0.00,520,WeatherCatV1.22B15,2013-11-14 16:36:00,
2013-11-14 11:37:00,45.2,20.5,30.20,WNW,295,4.0,7.0,37,0.00,,,0.00,520,WeatherCatV1.22B15,2013-11-14 16:37:00,
2013-11-14 11:38:00,45.2,19.9,30.20,WNW,295,0.0,7.0,36,0.00,,,0.00,520,WeatherCatV1.22B15,2013-11-14 16:38:00,
2013-11-14 11:39:00,45.2,20.5,30.20,WNW,295,2.0,7.0,37,0.00,,,0.00,520,WeatherCatV1.22B15,2013-11-14 16:39:00,
2013-11-14 11:42:00,45.2,19.9,30.20,WNW,295,3.0,6.0,36,0.00,,,0.00,520,WeatherCatV1.22B15,2013-11-14 16:42:00,
2013-11-14 11:43:00,45.2,20.5,30.20,WNW,295,2.0,6.0,37,0.00,,,0.00,520,WeatherCatV1.22B15,2013-11-14 16:43:00,
2013-11-14 11:44:00,45.2,19.9,30.19,WNW,295,1.0,6.0,36,0.00,,,0.00,520,WeatherCatV1.22B15,2013-11-14 16:44:00,
2013-11-14 11:45:00,45.2,20.5,30.19,WNW,295,2.0,2.0,37,0.00,,,0.00,520,WeatherCatV1.22B15,2013-11-14 16:45:00,
2013-11-14 11:47:00,45.3,19.9,30.19,WNW,295,3.0,4.0,36,0.00,,,0.00,520,WeatherCatV1.22B15,2013-11-14 16:47:00,
2013-11-14 11:48:00,45.4,20.0,30.19,WNW,295,1.0,4.0,36,0.00,,,0.00,520,WeatherCatV1.22B15,2013-11-14 16:48:00,
2013-11-14 11:49:00,45.4,20.0,30.19,WNW,295,3.0,4.0,36,0.00,,,0.00,520,WeatherCatV1.22B15,2013-11-14 16:49:00,
2013-11-14 11:50:00,45.5,20.1,30.19,WNW,295,1.0,4.0,36,0.00,,,0.00,520,WeatherCatV1.22B15,2013-11-14 16:50:00,
2013-11-14 11:52:00,45.6,19.5,30.19,WNW,295,2.0,5.0,35,0.00,,,0.00,520,WeatherCatV1.22B15,2013-11-14 16:52:00,
2013-11-14 11:53:00,45.6,19.5,30.19,WNW,295,3.0,5.0,35,0.00,,,0.00,520,WeatherCatV1.22B15,2013-11-14 16:53:00,
2013-11-14 11:54:00,45.6,19.5,30.19,WNW,295,4.0,4.0,35,0.00,,,0.00,520,WeatherCatV1.22B15,2013-11-14 16:54:00,
2013-11-14 11:55:00,45.6,18.9,30.19,WNW,295,2.0,4.0,34,0.00,,,0.00,520,WeatherCatV1.22B15,2013-11-14 16:55:00,
2013-11-14 11:57:00,45.8,20.4,30.19,WNW,295,1.0,3.0,36,0.00,,,0.00,520,WeatherCatV1.22B15,2013-11-14 16:57:00,
2013-11-14 11:58:00,45.8,20.4,30.19,WNW,295,1.0,3.0,36,0.00,,,0.00,520,WeatherCatV1.22B15,2013-11-14 16:58:00,
2013-11-14 11:59:00,46.0,20.6,30.19,WNW,295,0.0,7.0,36,0.00,,,0.00,520,WeatherCatV1.22B15,2013-11-14 16:59:00,
2013-11-14 12:00:00,46.1,20.6,30.19,WNW,295,1.0,7.0,36,0.00,,,0.00,520,WeatherCatV1.22B15,2013-11-14 17:00:00,
2013-11-14 12:01:00,46.2,20.7,30.19,WNW,295,2.0,4.0,36,0.00,,,0.00,520,WeatherCatV1.22B15,2013-11-14 17:01:00,
2013-11-14 12:03:00,46.2,19.4,30.19,WNW,295,2.0,3.0,34,0.00,,,0.00,520,WeatherCatV1.22B15,2013-11-14 17:03:00,
2013-11-14 12:04:00,46.3,19.5,30.19,WNW,295,2.0,5.0,34,0.00,,,0.00,520,WeatherCatV1.22B15,2013-11-14 17:04:00,
2013-11-14 12:05:00,46.3,19.5,30.19,WNW,295,1.0,5.0,34,0.00,,,0.00,520,WeatherCatV1.22B15,2013-11-14 17:05:00,
2013-11-14 12:06:00,46.3,19.5,30.19,WNW,295,1.0,4.0,34,0.00,,,0.00,520,WeatherCatV1.22B15,2013-11-14 17:06:00,
2013-11-14 12:08:00,46.3,20.2,30.18,WNW,295,5.0,5.0,35,0.00,,,0.00,520,WeatherCatV1.22B15,2013-11-14 17:08:00,
2013-11-14 12:09:00,46.4,19.6,30.18,WNW,295,1.0,6.0,34,0.00,,,0.00,520,WeatherCatV1.22B15,2013-11-14 17:09:00,
2013-11-14 12:10:00,46.4,20.2,30.18,WNW,295,2.0,4.0,35,0.00,,,0.00,520,WeatherCatV1.22B15,2013-11-14 17:10:00,
2013-11-14 12:11:00,46.5,19.7,30.18,WNW,295,1.0,2.0,34,0.00,,,0.00,520,WeatherCatV1.22B15,2013-11-14 17:11:00,
2013-11-14 12:13:00,46.6,20.4,30.18,WNW,295,0.0,2.0,35,0.00,,,0.00,520,WeatherCatV1.22B15,2013-11-14 17:13:00,
2013-11-14 12:14:00,46.7,21.2,30.18,WNW,295,1.0,3.0,36,0.00,,,0.00,520,WeatherCatV1.22B15,2013-11-14 17:14:00,
2013-11-14 12:15:00,46.9,20.7,30.18,WNW,295,0.0,1.0,35,0.00,,,0.00,520,WeatherCatV1.22B15,2013-11-14 17:15:00,
2013-11-14 12:16:00,46.9,20.7,30.18,WNW,295,0.0,1.0,35,0.00,,,0.00,520,WeatherCatV1.22B15,2013-11-14 17:16:00,
2013-11-14 12:18:00,47.2,21.0,30.18,WNW,295,1.0,3.0,35,0.00,,,0.00,520,WeatherCatV1.22B15,2013-11-14 17:18:00,
2013-11-14 12:20:00,47.3,21.0,30.18,WNW,295,1.0,1.0,35,0.00,,,0.00,520,WeatherCatV1.22B15,2013-11-14 17:20:00,
2013-11-14 12:21:00,47.4,21.1,30.18,WNW,295,1.0,1.0,35,0.00,,,0.00,520,WeatherCatV1.22B15,2013-11-14 17:21:00,
2013-11-14 12:23:00,47.6,20.6,30.18,WNW,295,1.0,2.0,34,0.00,,,0.00,520,WeatherCatV1.22B15,2013-11-14 17:23:00,
2013-11-14 12:25:00,47.8,20.8,30.18,WNW,295,2.0,3.0,34,0.00,,,0.00,520,WeatherCatV1.22B15,2013-11-14 17:25:00,
2013-11-14 12:26:00,47.8,20.8,30.18,WNW,295,1.0,3.0,34,0.00,,,0.00,520,WeatherCatV1.22B15,2013-11-14 17:26:00,
2013-11-14 12:27:00,47.8,20.1,30.18,WNW,295,1.0,3.0,33,0.00,,,0.00,520,WeatherCatV1.22B15,2013-11-14 17:27:00,
2013-11-14 12:28:00,47.8,20.1,30.18,WNW,295,1.0,3.0,33,0.00,,,0.00,520,WeatherCatV1.22B15,2013-11-14 17:28:00,
2013-11-14 12:29:00,47.8,20.1,30.18,WNW,295,0.0,2.0,33,0.00,,,0.00,520,WeatherCatV1.22B15,2013-11-14 17:29:00,
2013-11-14 12:30:00,47.8,20.8,30.18,WNW,295,0.0,1.0,34,0.00,,,0.00,520,WeatherCatV1.22B15,2013-11-14 17:30:00,
2013-11-14 12:31:00,47.8,20.8,30.18,WNW,295,1.0,1.0,34,0.00,,,0.00,520,WeatherCatV1.22B15,2013-11-14 17:31:00,
2013-11-14 12:33:00,47.8,20.8,30.18,WNW,295,1.0,3.0,34,0.00,,,0.00,520,WeatherCatV1.22B15,2013-11-14 17:33:00,
2013-11-14 12:34:00,47.9,20.2,30.18,WNW,295,1.0,2.0,33,0.00,,,0.00,520,WeatherCatV1.22B15,2013-11-14 17:34:00,
2013-11-14 12:36:00,47.9,20.2,30.17,WNW,295,2.0,3.0,33,0.00,,,0.00,520,WeatherCatV1.22B15,2013-11-14 17:36:00,
2013-11-14 12:38:00,48.0,20.3,30.17,WNW,295,1.0,4.0,33,0.00,,,0.00,520,WeatherCatV1.22B15,2013-11-14 17:38:00,
2013-11-14 12:39:00,48.0,19.6,30.17,WNW,295,1.0,4.0,32,0.00,,,0.00,520,WeatherCatV1.22B15,2013-11-14 17:39:00,
2013-11-14 12:41:00,48.1,20.4,30.17,WNW,295,1.0,3.0,33,0.00,,,0.00,520,WeatherCatV1.22B15,2013-11-14 17:41:00,
2013-11-14 12:42:00,48.0,20.3,30.17,WNW,295,2.0,3.0,33,0.00,,,0.00,520,WeatherCatV1.22B15,2013-11-14 17:42:00,
2013-11-14 12:43:00,48.1,19.6,30.17,WNW,295,1.0,3.0,32,0.00,,,0.00,520,WeatherCatV1.22B15,2013-11-14 17:43:00,
2013-11-14 12:44:00,48.0,19.6,30.17,WNW,295,0.0,3.0,32,0.00,,,0.00,520,WeatherCatV1.22B15,2013-11-14 17:44:00,
2013-11-14 12:46:00,48.1,19.6,30.17,WNW,295,0.0,2.0,32,0.00,,,0.00,520,WeatherCatV1.22B15,2013-11-14 17:46:00,
2013-11-14 12:47:00,48.1,21.1,30.17,WNW,295,0.0,1.0,34,0.00,,,0.00,520,WeatherCatV1.22B15,2013-11-14 17:47:00,
2013-11-14 12:48:00,48.2,20.5,30.17,WNW,295,1.0,2.0,33,0.00,,,0.00,520,WeatherCatV1.22B15,2013-11-14 17:48:00,
2013-11-14 12:49:00,48.2,20.5,30.17,WNW,295,1.0,2.0,33,0.00,,,0.00,520,WeatherCatV1.22B15,2013-11-14 17:49:00,
2013-11-14 12:51:00,48.3,19.8,30.17,WNW,295,4.0,5.0,32,0.00,,,0.00,520,WeatherCatV1.22B15,2013-11-14 17:51:00,
2013-11-14 12:52:00,48.3,19.1,30.17,WNW,295,2.0,5.0,31,0.00,,,0.00,520,WeatherCatV1.22B15,2013-11-14 17:52:00,
2013-11-14 12:54:00,48.2,19.7,30.17,WNW,295,1.0,3.0,32,0.00,,,0.00,520,WeatherCatV1.22B15,2013-11-14 17:54:00,
2013-11-14 12:55:00,48.2,20.5,30.17,WNW,295,2.0,2.0,33,0.00,,,0.00,520,WeatherCatV1.22B15,2013-11-14 17:55:00,
2013-11-14 12:56:00,48.2,19.7,30.17,WNW,295,2.0,4.0,32,0.00,,,0.00,520,WeatherCatV1.22B15,2013-11-14 17:56:00,
2013-11-14 12:57:00,48.2,19.7,30.17,WNW,295,1.0,4.0,32,0.00,,,0.00,520,WeatherCatV1.22B15,2013-11-14 17:57:00,
2013-11-14 12:59:00,48.2,19.7,30.17,WNW,295,1.0,3.0,32,0.00,,,0.00,520,WeatherCatV1.22B15,2013-11-14 17:59:00,
2013-11-14 13:00:00,48.2,19.7,30.17,WNW,295,1.0,4.0,32,0.00,,,0.00,520,WeatherCatV1.22B15,2013-11-14 18:00:00,
2013-11-14 13:01:00,48.2,19.7,30.17,WNW,295,3.0,4.0,32,0.00,,,0.00,520,WeatherCatV1.22B15,2013-11-14 18:01:00,
2013-11-14 13:02:00,48.3,19.1,30.17,WNW,295,2.0,6.0,31,0.00,,,0.00,520,WeatherCatV1.22B15,2013-11-14 18:02:00,
2013-11-14 13:03:00,48.4,19.9,30.17,WNW,295,2.0,6.0,32,0.00,,,0.00,520,WeatherCatV1.22B15,2013-11-14 18:03:00,
2013-11-14 13:04:00,48.4,19.9,30.17,WNW,295,2.0,3.0,32,0.00,,,0.00,520,WeatherCatV1.22B15,2013-11-14 18:04:00,
2013-11-14 13:05:00,48.5,20.0,30.17,WNW,295,2.0,4.0,32,0.00,,,0.00,520,WeatherCatV1.22B15,2013-11-14 18:05:00,
2013-11-14 13:06:00,48.5,20.0,30.17,WNW,295,1.0,4.0,32,0.00,,,0.00,520,WeatherCatV1.22B15,2013-11-14 18:06:00,
2013-11-14 13:07:00,48.5,20.0,30.17,WNW,295,0.0,2.0,32,0.00,,,0.00,520,WeatherCatV1.22B15,2013-11-14 18:07:00,
2013-11-14 13:09:00,48.5,20.0,30.17,WNW,295,2.0,3.0,32,0.00,,,0.00,520,WeatherCatV1.22B15,2013-11-14 18:09:00,
2013-11-14 13:10:00,48.5,19.3,30.17,WNW,295,3.0,3.0,31,0.00,,,0.00,520,WeatherCatV1.22B15,2013-11-14 18:10:00,
2013-11-14 13:11:00,48.5,19.3,30.17,WNW,295,0.0,4.0,31,0.00,,,0.00,520,WeatherCatV1.22B15,2013-11-14 18:11:00,
2013-11-14 13:12:00,48.6,20.1,30.17,WNW,295,2.0,4.0,32,0.00,,,0.00,520,WeatherCatV1.22B15,2013-11-14 18:12:00,
2013-11-14 13:14:00,48.6,20.1,30.17,WNW,295,1.0,5.0,32,0.00,,,0.00,520,WeatherCatV1.22B15,2013-11-14 18:14:00,
2013-11-14 13:15:00,48.6,20.1,30.17,WNW,295,3.0,3.0,32,0.00,,,0.00,520,WeatherCatV1.22B15,2013-11-14 18:15:00,
2013-11-14 13:16:00,48.7,20.2,30.17,WNW,295,1.0,3.0,32,0.00,,,0.00,520,WeatherCatV1.22B15,2013-11-14 18:16:00,
2013-11-14 13:17:00,48.7,19.4,30.17,WNW,295,2.0,3.0,31,0.00,,,0.00,520,WeatherCatV1.22B15,2013-11-14 18:17:00,
2013-11-14 13:19:00,48.8,20.3,30.17,WNW,295,2.0,3.0,32,0.00,,,0.00,520,WeatherCatV1.22B15,2013-11-14 18:19:00,
2013-11-14 13:20:00,48.8,20.3,30.17,WNW,295,2.0,4.0,32,0.00,,,0.00,520,WeatherCatV1.22B15,2013-11-14 18:20:00,
2013-11-14 13:21:00,48.8,20.3,30.17,WNW,295,1.0,4.0,32,0.00,,,0.00,520,WeatherCatV1.22B15,2013-11-14 18:21:00,
2013-11-14 13:22:00,48.9,19.6,30.17,WNW,295,2.0,3.0,31,0.00,,,0.00,520,WeatherCatV1.22B15,2013-11-14 18:22:00,
2013-11-14 13:25:00,48.9,19.6,30.17,WNW,295,3.0,4.0,31,0.00,,,0.00,520,WeatherCatV1.22B15,2013-11-14 18:25:00,
2013-11-14 13:26:00,48.9,19.6,30.17,WNW,295,2.0,3.0,31,0.00,,,0.00,520,WeatherCatV1.22B15,2013-11-14 18:26:00,
2013-11-14 13:27:00,49.0,19.7,30.17,WNW,295,1.0,3.0,31,0.00,,,0.00,520,WeatherCatV1.22B15,2013-11-14 18:27:00,
2013-11-14 13:28:00,49.0,19.7,30.17,WNW,295,1.0,2.0,31,0.00,,,0.00,520,WeatherCatV1.22B15,2013-11-14 18:28:00,
2013-11-14 13:30:00,49.1,19.8,30.17,WNW,295,0.0,4.0,31,0.00,,,0.00,520,WeatherCatV1.22B15,2013-11-14 18:30:00,
2013-11-14 13:31:00,49.1,20.5,30.17,WNW,295,1.0,3.0,32,0.00,,,0.00,520,WeatherCatV1.22B15,2013-11-14 18:31:00,
2013-11-14 13:32:00,49.1,20.5,30.17,WNW,295,1.0,3.0,32,0.00,,,0.00,520,WeatherCatV1.22B15,2013-11-14 18:32:00,
2013-11-14 13:33:00,49.1,20.5,30.17,WNW,295,0.0,3.0,32,0.00,,,0.00,520,WeatherCatV1.22B15,2013-11-14 18:33:00,
2013-11-14 13:35:00,49.2,20.6,30.17,WNW,295,0.0,2.0,32,0.00,,,0.00,520,WeatherCatV1.22B15,2013-11-14 18:35:00,
2013-11-14 13:36:00,49.2,20.6,30.17,WNW,295,3.0,3.0,32,0.00,,,0.00,520,WeatherCatV1.22B15,2013-11-14 18:36:00,
2013-11-14 13:37:00,49.1,19.8,30.17,WNW,295,3.0,3.0,31,0.00,,,0.00,520,WeatherCatV1.22B15,2013-11-14 18:37:00,
2013-11-14 13:38:00,49.1,19.8,30.17,WNW,295,2.0,5.0,31,0.00,,,0.00,520,WeatherCatV1.22B15,2013-11-14 18:38:00,
2013-11-14 13:41:00,49.0,18.9,30.17,WNW,295,1.0,5.0,30,0.00,,,0.00,520,WeatherCatV1.22B15,2013-11-14 18:41:00,
2013-11-14 13:42:00,48.9,19.6,30.17,WNW,295,4.0,5.0,31,0.00,,,0.00,520,WeatherCatV1.22B15,2013-11-14 18:42:00,
2013-11-14 13:43:00,48.9,18.9,30.16,WNW,295,3.0,5.0,30,0.00,,,0.00,520,WeatherCatV1.22B15,2013-11-14 18:43:00,
2013-11-14 13:44:00,48.9,19.6,30.16,WNW,295,1.0,5.0,31,0.00,,,0.00,520,WeatherCatV1.22B15,2013-11-14 18:44:00,
2013-11-14 13:46:00,48.9,20.4,30.16,WNW,295,1.0,2.0,32,0.00,,,0.00,520,WeatherCatV1.22B15,2013-11-14 18:46:00,
2013-11-14 13:47:00,48.9,19.6,30.16,WNW,295,2.0,3.0,31,0.00,,,0.00,520,WeatherCatV1.22B15,2013-11-14 18:47:00,
2013-11-14 13:48:00,48.9,19.6,30.16,WNW,295,3.0,3.0,31,0.00,,,0.00,520,WeatherCatV1.22B15,2013-11-14 18:48:00,
2013-11-14 13:49:00,48.9,19.6,30.16,WNW,295,2.0,4.0,31,0.00,,,0.00,520,WeatherCatV1.22B15,2013-11-14 18:49:00,
2013-11-14 13:51:00,48.9,19.6,30.16,WNW,295,2.0,3.0,31,0.00,,,0.00,520,WeatherCatV1.22B15,2013-11-14 18:51:00,
2013-11-14 13:52:00,48.9,19.6,30.16,WNW,295,3.0,4.0,31,0.00,,,0.00,520,WeatherCatV1.22B15,2013-11-14 18:52:00,
2013-11-14 13:53:00,48.9,19.6,30.16,WNW,295,1.0,4.0,31,0.00,,,0.00,520,WeatherCatV1.22B15,2013-11-14 18:53:00,
2013-11-14 13:54:00,49.0,19.7,30.16,WNW,295,2.0,4.0,31,0.00,,,0.00,520,WeatherCatV1.22B15,2013-11-14 18:54:00,
2013-11-14 13:56:00,49.1,19.8,30.16,WNW,295,1.0,2.0,31,0.00,,,0.00,520,WeatherCatV1.22B15,2013-11-14 18:56:00,
2013-11-14 13:57:00,49.1,19.8,30.16,WNW,295,0.0,1.0,31,0.00,,,0.00,520,WeatherCatV1.22B15,2013-11-14 18:57:00,
2013-11-14 13:58:00,49.1,19.8,30.16,WNW,295,1.0,1.0,31,0.00,,,0.00,520,WeatherCatV1.22B15,2013-11-14 18:58:00,
2013-11-14 13:59:00,49.1,19.8,30.16,WNW,295,1.0,3.0,31,0.00,,,0.00,520,WeatherCatV1.22B15,2013-11-14 18:59:00,
2013-11-14 14:01:00,49.2,19.9,30.16,WNW,295,2.0,3.0,31,0.00,,,0.00,520,WeatherCatV1.22B15,2013-11-14 19:01:00,
2013-11-14 14:02:00,49.2,19.9,30.16,WNW,295,1.0,3.0,31,0.00,,,0.00,520,WeatherCatV1.22B15,2013-11-14 19:02:00,
2013-11-14 14:03:00,49.2,19.9,30.16,WNW,295,1.0,3.0,31,0.00,,,0.00,520,WeatherCatV1.22B15,2013-11-14 19:03:00,
2013-11-14 14:04:00,49.2,19.9,30.16,WNW,295,0.0,3.0,31,0.00,,,0.00,520,WeatherCatV1.22B15,2013-11-14 19:04:00,
2013-11-14 14:05:00,49.2,19.9,30.16,WNW,295,0.0,3.0,31,0.00,,,0.00,520,WeatherCatV1.22B15,2013-11-14 19:05:00,
2013-11-14 14:08:00,49.3,20.7,30.16,WNW,295,1.0,2.0,32,0.00,,,0.00,520,WeatherCatV1.22B15,2013-11-14 19:08:00,
2013-11-14 14:09:00,49.3,20.7,30.16,WNW,295,1.0,1.0,32,0.00,,,0.00,520,WeatherCatV1.22B15,2013-11-14 19:09:00,
2013-11-14 14:10:00,49.3,20.7,30.16,WNW,295,1.0,2.0,32,0.00,,,0.00,520,WeatherCatV1.22B15,2013-11-14 19:10:00,
2013-11-14 14:13:00,49.3,20.0,30.16,WNW,295,1.0,3.0,31,0.00,,,0.00,520,WeatherCatV1.22B15,2013-11-14 19:13:00,
2013-11-14 14:14:00,49.3,20.7,30.16,WNW,295,1.0,2.0,32,0.00,,,0.00,520,WeatherCatV1.22B15,2013-11-14 19:14:00,
2013-11-14 14:15:00,49.3,20.7,30.16,WNW,295,1.0,3.0,32,0.00,,,0.00,520,WeatherCatV1.22B15,2013-11-14 19:15:00,
2013-11-14 14:18:00,49.1,19.8,30.16,WNW,295,1.0,2.0,31,0.00,,,0.00,520,WeatherCatV1.22B15,2013-11-14 19:18:00,
2013-11-14 14:19:00,49.1,19.8,30.16,WNW,295,1.0,2.0,31,0.00,,,0.00,520,WeatherCatV1.22B15,2013-11-14 19:19:00,
2013-11-14 14:20:00,49.1,21.2,30.16,WNW,295,0.0,2.0,33,0.00,,,0.00,520,WeatherCatV1.22B15,2013-11-14 19:20:00,
2013-11-14 14:23:00,49.1,19.8,30.16,WNW,295,2.0,3.0,31,0.00,,,0.00,520,WeatherCatV1.22B15,2013-11-14 19:23:00,
2013-11-14 14:24:00,49.1,19.8,30.16,WNW,295,1.0,3.0,31,0.00,,,0.00,520,WeatherCatV1.22B15,2013-11-14 19:24:00,
2013-11-14 14:25:00,49.1,19.0,30.16,WNW,295,1.0,2.0,30,0.00,,,0.00,520,WeatherCatV1.22B15,2013-11-14 19:25:00,
2013-11-14 14:28:00,49.1,19.8,30.16,WNW,295,3.0,5.0,31,0.00,,,0.00,520,WeatherCatV1.22B15,2013-11-14 19:28:00,
2013-11-14 14:29:00,49.1,19.8,30.16,WNW,295,1.0,5.0,31,0.00,,,0.00,520,WeatherCatV1.22B15,2013-11-14 19:29:00,
2013-11-14 14:30:00,49.1,19.8,30.16,WNW,295,1.0,1.0,31,0.00,,,0.00,520,WeatherCatV1.22B15,2013-11-14 19:30:00,
2013-11-14 14:33:00,49.1,19.8,30.16,WNW,295,1.0,2.0,31,0.00,,,0.00,520,WeatherCatV1.22B15,2013-11-14 19:33:00,
2013-11-14 14:34:00,49.1,19.0,30.16,WNW,295,5.0,5.0,30,0.00,,,0.00,520,WeatherCatV1.22B15,2013-11-14 19:34:00,
2013-11-14 14:35:00,49.1,19.0,30.16,WNW,295,2.0,6.0,30,0.00,,,0.00,520,WeatherCatV1.22B15,2013-11-14 19:35:00,
2013-11-14 14:36:00,49.1,19.8,30.16,WNW,295,2.0,6.0,31,0.00,,,0.00,520,WeatherCatV1.22B15,2013-11-14 19:36:00,
2013-11-14 14:39:00,49.0,19.7,30.16,WNW,295,1.0,1.0,31,0.00,,,0.00,520,WeatherCatV1.22B15,2013-11-14 19:39:00,
2013-11-14 14:40:00,49.1,19.8,30.16,WNW,295,0.0,1.0,31,0.00,,,0.00,520,WeatherCatV1.22B15,2013-11-14 19:40:00,
2013-11-14 14:41:00,49.1,19.8,30.16,WNW,295,1.0,2.0,31,0.00,,,0.00,520,WeatherCatV1.22B15,2013-11-14 19:41:00,
2013-11-14 14:44:00,49.1,20.5,30.16,WNW,295,1.0,2.0,32,0.00,,,0.00,520,WeatherCatV1.22B15,2013-11-14 19:44:00,
2013-11-14 14:45:00,49.1,20.5,30.16,WNW,295,1.0,2.0,32,0.00,,,0.00,520,WeatherCatV1.22B15,2013-11-14 19:45:00,
2013-11-14 14:46:00,49.1,19.8,30.16,WNW,295,3.0,3.0,31,0.00,,,0.00,520,WeatherCatV1.22B15,2013-11-14 19:46:00,
2013-11-14 14:49:00,49.2,19.9,30.16,WNW,295,1.0,1.0,31,0.00,,,0.00,520,WeatherCatV1.22B15,2013-11-14 19:49:00,
2013-11-14 14:50:00,49.2,19.9,30.16,WNW,295,1.0,4.0,31,0.00,,,0.00,520,WeatherCatV1.22B15,2013-11-14 19:50:00,
2013-11-14 14:51:00,49.2,20.6,30.16,WNW,295,2.0,4.0,32,0.00,,,0.00,520,WeatherCatV1.22B15,2013-11-14 19:51:00,
2013-11-14 14:54:00,49.2,19.9,30.16,WNW,295,1.0,5.0,31,0.00,,,0.00,520,WeatherCatV1.22B15,2013-11-14 19:54:00,
2013-11-14 14:55:00,49.2,19.9,30.16,WNW,295,3.0,4.0,31,0.00,,,0.00,520,WeatherCatV1.22B15,2013-11-14 19:55:00,
2013-11-14 14:56:00,49.2,19.9,30.16,WNW,295,1.0,4.0,31,0.00,,,0.00,520,WeatherCatV1.22B15,2013-11-14 19:56:00,
2013-11-14 14:59:00,49.3,19.2,30.16,WNW,295,0.0,3.0,30,0.00,,,0.00,520,WeatherCatV1.22B15,2013-11-14 19:59:00,
2013-11-14 15:00:00,49.4,20.0,30.16,WNW,295,3.0,6.0,31,0.00,,,0.00,520,WeatherCatV1.22B15,2013-11-14 20:00:00,
2013-11-14 15:01:00,49.4,19.3,30.16,WNW,295,1.0,6.0,30,0.00,,,0.00,520,WeatherCatV1.22B15,2013-11-14 20:01:00,
2013-11-14 15:02:00,49.4,19.3,30.16,WNW,295,1.0,6.0,30,0.00,,,0.00,520,WeatherCatV1.22B15,2013-11-14 20:02:00,
2013-11-14 15:04:00,49.6,19.5,30.16,WNW,295,0.0,2.0,30,0.00,,,0.00,520,WeatherCatV1.22B15,2013-11-14 20:04:00,
2013-11-14 15:05:00,49.6,20.2,30.16,WNW,295,2.0,2.0,31,0.00,,,0.00,520,WeatherCatV1.22B15,2013-11-14 20:05:00,
2013-11-14 15:06:00,49.6,19.5,30.16,WNW,295,2.0,2.0,30,0.00,,,0.00,520,WeatherCatV1.22B15,2013-11-14 20:06:00,
2013-11-14 15:07:00,49.7,19.5,30.16,WNW,295,1.0,7.0,30,0.00,,,0.00,520,WeatherCatV1.22B15,2013-11-14 20:07:00,
2013-11-14 15:09:00,49.6,19.5,30.16,WNW,295,3.0,3.0,30,0.00,,,0.00,520,WeatherCatV1.22B15,2013-11-14 20:09:00,
2013-11-14 15:11:00,49.6,19.5,30.16,WNW,295,2.0,3.0,30,0.00,,,0.00,520,WeatherCatV1.22B15,2013-11-14 20:11:00,
2013-11-14 15:12:00,49.6,19.5,30.16,WNW,295,1.0,3.0,30,0.00,,,0.00,520,WeatherCatV1.22B15,2013-11-14 20:12:00,
2013-11-14 15:14:00,49.6,18.7,30.16,WNW,295,2.0,5.0,29,0.00,,,0.00,520,WeatherCatV1.22B15,2013-11-14 20:14:00,
2013-11-14 15:16:00,49.6,19.5,30.16,WNW,295,2.0,5.0,30,0.00,,,0.00,520,WeatherCatV1.22B15,2013-11-14 20:16:00,
2013-11-14 15:17:00,49.6,19.5,30.16,WNW,295,3.0,3.0,30,0.00,,,0.00,520,WeatherCatV1.22B15,2013-11-14 20:17:00,
2013-11-14 15:18:00,49.6,19.5,30.16,WNW,295,0.0,3.0,30,0.00,,,0.00,520,WeatherCatV1.22B15,2013-11-14 20:18:00,
2013-11-14 15:20:00,49.6,19.5,30.16,WNW,295,3.0,3.0,30,0.00,,,0.00,520,WeatherCatV1.22B15,2013-11-14 20:20:00,
2013-11-14 15:21:00,49.7,19.5,30.17,WNW,295,0.0,4.0,30,0.00,,,0.00,520,WeatherCatV1.22B15,2013-11-14 20:21:00,
2013-11-14 15:22:00,49.7,19.5,30.17,WNW,295,1.0,1.0,30,0.00,,,0.00,520,WeatherCatV1.22B15,2013-11-14 20:22:00,
2013-11-14 15:23:00,49.7,19.5,30.17,WNW,295,2.0,2.0,30,0.00,,,0.00,520,WeatherCatV1.22B15,2013-11-14 20:23:00,
2013-11-14 15:25:00,49.7,20.3,30.16,WNW,295,0.0,1.0,31,0.00,,,0.00,520,WeatherCatV1.22B15,2013-11-14 20:25:00,
2013-11-14 15:26:00,49.6,20.2,30.16,WNW,295,0.0,0.0,31,0.00,,,0.00,520,WeatherCatV1.22B15,2013-11-14 20:26:00,
2013-11-14 15:27:00,49.6,20.2,30.16,WNW,295,2.0,2.0,31,0.00,,,0.00,520,WeatherCatV1.22B15,2013-11-14 20:27:00,
2013-11-14 15:28:00,49.6,19.5,30.16,WNW,295,0.0,2.0,30,0.00,,,0.00,520,WeatherCatV1.22B15,2013-11-14 20:28:00,
2013-11-14 15:30:00,49.6,19.5,30.16,WNW,295,0.0,1.0,30,0.00,,,0.00,520,WeatherCatV1.22B15,2013-11-14 20:30:00,
2013-11-14 15:31:00,49.6,19.5,30.17,WNW,295,1.0,1.0,30,0.00,,,0.00,520,WeatherCatV1.22B15,2013-11-14 20:31:00,
2013-11-14 15:32:00,49.6,19.5,30.17,WNW,295,0.0,1.0,30,0.00,,,0.00,520,WeatherCatV1.22B15,2013-11-14 20:32:00,
2013-11-14 15:33:00,49.6,20.2,30.17,WNW,295,0.0,1.0,31,0.00,,,0.00,520,WeatherCatV1.22B15,2013-11-14 20:33:00,
2013-11-14 15:34:00,49.6,20.2,30.17,WNW,295,0.0,1.0,31,0.00,,,0.00,520,WeatherCatV1.22B15,2013-11-14 20:34:00,
2013-11-14 15:35:00,49.5,20.1,30.17,WNW,295,1.0,1.0,31,0.00,,,0.00,520,WeatherCatV1.22B15,2013-11-14 20:35:00,
2013-11-14 15:37:00,49.6,18.7,30.17,WNW,295,1.0,3.0,29,0.00,,,0.00,520,WeatherCatV1.22B15,2013-11-14 20:37:00,
2013-11-14 15:38:00,49.6,19.5,30.17,WNW,295,1.0,3.0,30,0.00,,,0.00,520,WeatherCatV1.22B15,2013-11-14 20:38:00,
2013-11-14 15:39:00,49.6,19.5,30.17,WNW,295,0.0,2.0,30,0.00,,,0.00,520,WeatherCatV1.22B15,2013-11-14 20:39:00,
2013-11-14 15:41:00,49.6,20.2,30.17,WNW,295,0.0,1.0,31,0.00,,,0.00,520,WeatherCatV1.22B15,2013-11-14 20:41:00,
2013-11-14 15:42:00,49.5,19.4,30.17,WNW,295,1.0,1.0,30,0.00,,,0.00,520,WeatherCatV1.22B15,2013-11-14 20:42:00,
2013-11-14 15:43:00,49.5,19.4,30.17,WNW,295,0.0,1.0,30,0.00,,,0.00,520,WeatherCatV1.22B15,2013-11-14 20:43:00,
2013-11-14 15:44:00,49.5,19.4,30.17,WNW,295,1.0,1.0,30,0.00,,,0.00,520,WeatherCatV1.22B15,2013-11-14 20:44:00,
2013-11-14 15:46:00,49.3,20.0,30.17,WNW,295,0.0,1.0,31,0.00,,,0.00,520,WeatherCatV1.22B15,2013-11-14 20:46:00,
2013-11-14 15:48:00,49.3,20.7,30.17,WNW,295,0.0,0.0,32,0.00,,,0.00,520,WeatherCatV1.22B15,2013-11-14 20:48:00,
2013-11-14 15:49:00,49.2,19.9,30.17,WNW,295,0.0,1.0,31,0.00,,,0.00,520,WeatherCatV1.22B15,2013-11-14 20:49:00,
2013-11-14 15:51:00,49.1,19.8,30.17,WNW,295,0.0,1.0,31,0.00,,,0.00,520,WeatherCatV1.22B15,2013-11-14 20:51:00,
2013-11-14 15:53:00,49.1,20.5,30.17,WNW,295,0.0,1.0,32,0.00,,,0.00,520,WeatherCatV1.22B15,2013-11-14 20:53:00,
2013-11-14 15:54:00,49.0,20.4,30.17,WNW,295,0.0,1.0,32,0.00,,,0.00,520,WeatherCatV1.22B15,2013-11-14 20:54:00,
2013-11-14 15:56:00,48.9,20.4,30.17,WNW,295,0.0,1.0,32,0.00,,,0.00,520,WeatherCatV1.22B15,2013-11-14 20:56:00,
2013-11-14 15:58:00,48.9,20.4,30.16,WNW,295,0.0,3.0,32,0.00,,,0.00,520,WeatherCatV1.22B15,2013-11-14 20:58:00,
2013-11-14 15:59:00,48.9,20.4,30.16,WNW,295,1.0,1.0,32,0.00,,,0.00,520,WeatherCatV1.22B15,2013-11-14 20:59:00,
2013-11-14 16:00:00,48.8,20.3,30.16,WNW,295,1.0,1.0,32,0.00,,,0.00,520,WeatherCatV1.22B15,2013-11-14 21:00:00,
2013-11-14 16:01:00,48.8,19.5,30.16,WNW,295,2.0,2.0,31,0.00,,,0.00,520,WeatherCatV1.22B15,2013-11-14 21:01:00,
2013-11-14 16:03:00,48.8,19.5,30.16,WNW,295,0.0,3.0,31,0.00,,,0.00,520,WeatherCatV1.22B15,2013-11-14 21:03:00,
2013-11-14 16:04:00,48.8,19.5,30.16,WNW,295,0.0,0.0,31,0.00,,,0.00,520,WeatherCatV1.22B15,2013-11-14 21:04:00,
2013-11-14 16:05:00,48.7,20.2,30.16,WNW,295,1.0,3.0,32,0.00,,,0.00,520,WeatherCatV1.22B15,2013-11-14 21:05:00,
2013-11-14 16:06:00,48.7,19.4,30.16,WNW,295,0.0,3.0,31,0.00,,,0.00,520,WeatherCatV1.22B15,2013-11-14 21:06:00,
2013-11-14 16:08:00,48.6,20.1,30.16,WNW,295,0.0,1.0,32,0.00,,,0.00,520,WeatherCatV1.22B15,2013-11-14 21:08:00,
2013-11-14 16:09:00,48.5,19.3,30.16,WNW,295,0.0,3.0,31,0.00,,,0.00,520,WeatherCatV1.22B15,2013-11-14 21:09:00,
2013-11-14 16:10:00,48.5,19.3,30.16,WNW,295,0.0,3.0,31,0.00,,,0.00,520,WeatherCatV1.22B15,2013-11-14 21:10:00,
2013-11-14 16:11:00,48.5,20.0,30.16,WNW,295,0.0,1.0,32,0.00,,,0.00,520,WeatherCatV1.22B15,2013-11-14 21:11:00,
2013-11-14 16:13:00,48.3,19.8,30.16,WNW,295,0.0,2.0,32,0.00,,,0.00,520,WeatherCatV1.22B15,2013-11-14 21:13:00,
2013-11-14 16:14:00,48.3,19.8,30.16,WNW,295,0.0,2.0,32,0.00,,,0.00,520,WeatherCatV1.22B15,2013-11-14 21:14:00,
2013-11-14 16:15:00,48.3,19.8,30.16,WNW,295,1.0,1.0,32,0.00,,,0.00,520,WeatherCatV1.22B15,2013-11-14 21:15:00,
2013-11-14 16:16:00,48.2,19.7,30.16,WNW,295,0.0,1.0,32,0.00,,,0.00,520,WeatherCatV1.22B15,2013-11-14 21:16:00,
2013-11-14 16:17:00,48.1,19.6,30.16,WNW,295,0.0,0.0,32,0.00,,,0.00,520,WeatherCatV1.22B15,2013-11-14 21:17:00,
2013-11-14 16:19:00,48.0,19.6,30.16,WNW,295,1.0,1.0,32,0.00,,,0.00,520,WeatherCatV1.22B15,2013-11-14 21:19:00,
2013-11-14 16:20:00,47.9,19.5,30.16,WNW,295,0.0,1.0,32,0.00,,,0.00,520,WeatherCatV1.22B15,2013-11-14 21:20:00,
2013-11-14 16:21:00,47.9,18.7,30.16,WNW,295,1.0,2.0,31,0.00,,,0.00,520,WeatherCatV1.22B15,2013-11-14 21:21:00,
2013-11-14 16:22:00,47.9,18.7,30.16,WNW,295,0.0,2.0,31,0.00,,,0.00,520,WeatherCatV1.22B15,2013-11-14 21:22:00,
2013-11-14 16:25:00,47.7,19.3,30.16,WNW,295,0.0,1.0,32,0.00,,,0.00,520,WeatherCatV1.22B15,2013-11-14 21:25:00,
2013-11-14 16:26:00,47.5,19.1,30.16,WNW,295,0.0,1.0,32,0.00,,,0.00,520,WeatherCatV1.22B15,2013-11-14 21:26:00,
2013-11-14 16:27:00,47.5,19.1,30.16,WNW,295,0.0,1.0,32,0.00,,,0.00,520,WeatherCatV1.22B15,2013-11-14 21:27:00,
2013-11-14 16:30:00,47.2,19.6,30.16,WNW,295,1.0,1.0,33,0.00,,,0.00,520,WeatherCatV1.22B15,2013-11-14 21:30:00,
2013-11-14 16:31:00,47.1,19.5,30.16,WNW,295,0.0,1.0,33,0.00,,,0.00,520,WeatherCatV1.22B15,2013-11-14 21:31:00,
2013-11-14 16:32:00,47.0,19.4,30.16,WNW,295,1.0,1.0,33,0.00,,,0.00,520,WeatherCatV1.22B15,2013-11-14 21:32:00,
2013-11-14 16:35:00,46.8,19.2,30.16,WNW,295,0.0,1.0,33,0.00,,,0.00,520,WeatherCatV1.22B15,2013-11-14 21:35:00,
2013-11-14 16:37:00,46.8,19.2,30.17,WNW,295,1.0,1.0,33,0.00,,,0.00,520,WeatherCatV1.22B15,2013-11-14 21:37:00,
2013-11-14 16:40:00,46.7,19.1,30.17,WNW,295,5.0,5.0,33,0.00,,,0.00,520,WeatherCatV1.22B15,2013-11-14 21:40:00,
2013-11-14 16:42:00,46.8,19.2,30.17,WNW,295,0.0,2.0,33,0.00,,,0.00,520,WeatherCatV1.22B15,2013-11-14 21:42:00,
2013-11-14 16:45:00,46.9,19.3,30.17,WNW,295,2.0,2.0,33,0.00,,,0.00,520,WeatherCatV1.22B15,2013-11-14 21:45:00,
2013-11-14 16:47:00,46.8,19.2,30.17,WNW,295,3.0,3.0,33,0.00,,,0.00,520,WeatherCatV1.22B15,2013-11-14 21:47:00,
2013-11-14 16:48:00,46.8,19.2,30.17,WNW,295,4.0,4.0,33,0.00,,,0.00,520,WeatherCatV1.22B15,2013-11-14 21:48:00,
2013-11-14 16:50:00,46.8,19.2,30.17,WNW,295,2.0,2.0,33,0.00,,,0.00,520,WeatherCatV1.22B15,2013-11-14 21:50:00,
2013-11-14 16:51:00,46.8,18.5,30.17,WNW,295,1.0,2.0,32,0.00,,,0.00,520,WeatherCatV1.22B15,2013-11-14 21:51:00,
2013-11-14 16:52:00,46.8,19.2,30.17,WNW,295,1.0,1.0,33,0.00,,,0.00,520,WeatherCatV1.22B15,2013-11-14 21:52:00,
2013-11-14 16:53:00,46.8,19.2,30.17,WNW,295,0.0,1.0,33,0.00,,,0.00,520,WeatherCatV1.22B15,2013-11-14 21:53:00,
2013-11-14 16:54:00,46.7,19.8,30.17,WNW,295,2.0,2.0,34,0.00,,,0.00,520,WeatherCatV1.22B15,2013-11-14 21:54:00,
2013-11-14 16:55:00,46.6,19.0,30.17,WNW,295,2.0,4.0,33,0.00,,,0.00,520,WeatherCatV1.22B15,2013-11-14 21:55:00,
2013-11-14 16:56:00,46.6,19.0,30.17,WNW,295,0.0,4.0,33,0.00,,,0.00,520,WeatherCatV1.22B15,2013-11-14 21:56:00,
2013-11-14 16:58:00,46.6,19.8,30.17,WNW,295,1.0,3.0,34,0.00,,,0.00,520,WeatherCatV1.22B15,2013-11-14 21:58:00,
2013-11-14 16:59:00,46.6,19.0,30.17,WNW,295,0.0,2.0,33,0.00,,,0.00,520,WeatherCatV1.22B15,2013-11-14 21:59:00,
2013-11-14 17:00:00,46.5,19.7,30.17,WNW,295,0.0,1.0,34,0.00,,,0.00,520,WeatherCatV1.22B15,2013-11-14 22:00:00,
2013-11-14 17:01:00,46.5,19.7,30.17,WNW,295,0.0,1.0,34,0.00,,,0.00,520,WeatherCatV1.22B15,2013-11-14 22:01:00,
2013-11-14 17:03:00,46.5,19.0,30.17,WNW,295,0.0,8.0,33,0.00,,,0.00,520,WeatherCatV1.22B15,2013-11-14 22:03:00,
2013-11-14 17:04:00,46.5,19.7,30.17,WNW,295,0.0,1.0,34,0.00,,,0.00,520,WeatherCatV1.22B15,2013-11-14 22:04:00,
2013-11-14 17:05:00,46.5,19.0,30.17,WNW,295,0.0,1.0,33,0.00,,,0.00,520,WeatherCatV1.22B15,2013-11-14 22:05:00,
2013-11-14 17:06:00,46.5,19.0,30.17,WNW,295,0.0,1.0,33,0.00,,,0.00,520,WeatherCatV1.22B15,2013-11-14 22:06:00,
2013-11-14 17:08:00,46.3,19.5,30.18,WNW,295,0.0,2.0,34,0.00,,,0.00,520,WeatherCatV1.22B15,2013-11-14 22:08:00,
2013-11-14 17:10:00,46.2,18.7,30.18,WNW,295,1.0,1.0,33,0.00,,,0.00,520,WeatherCatV1.22B15,2013-11-14 22:10:00,
2013-11-14 17:11:00,46.1,18.6,30.18,WNW,295,2.0,2.0,33,0.00,,,0.00,520,WeatherCatV1.22B15,2013-11-14 22:11:00,
2013-11-14 17:13:00,46.1,19.3,30.18,WNW,295,1.0,1.0,34,0.00,,,0.00,520,WeatherCatV1.22B15,2013-11-14 22:13:00,
2013-11-14 17:14:00,46.0,19.2,30.18,WNW,295,2.0,3.0,34,0.00,,,0.00,520,WeatherCatV1.22B15,2013-11-14 22:14:00,
2013-11-14 17:15:00,46.0,19.2,30.18,WNW,295,0.0,3.0,34,0.00,,,0.00,520,WeatherCatV1.22B15,2013-11-14 22:15:00,
2013-11-14 17:16:00,46.0,19.2,30.18,WNW,295,1.0,1.0,34,0.00,,,0.00,520,WeatherCatV1.22B15,2013-11-14 22:16:00,
2013-11-14 17:18:00,45.9,19.1,30.18,WNW,295,1.0,2.0,34,0.00,,,0.00,520,WeatherCatV1.22B15,2013-11-14 22:18:00,
2013-11-14 17:19:00,45.9,19.1,30.18,WNW,295,0.0,2.0,34,0.00,,,0.00,520,WeatherCatV1.22B15,2013-11-14 22:19:00,
2013-11-14 17:20:00,45.8,19.0,30.18,WNW,295,4.0,4.0,34,0.00,,,0.00,520,WeatherCatV1.22B15,2013-11-14 22:20:00,
2013-11-14 17:21:00,45.8,18.4,30.18,WNW,295,1.0,5.0,33,0.00,,,0.00,520,WeatherCatV1.22B15,2013-11-14 22:21:00,
2013-11-14 17:22:00,45.8,19.0,30.18,WNW,295,0.0,5.0,34,0.00,,,0.00,520,WeatherCatV1.22B15,2013-11-14 22:22:00,
2013-11-14 17:23:00,45.7,19.0,30.18,WNW,295,1.0,3.0,34,0.00,,,0.00,520,WeatherCatV1.22B15,2013-11-14 22:23:00,
2013-11-14 17:24:00,45.7,19.0,30.18,WNW,295,0.0,2.0,34,0.00,,,0.00,520,WeatherCatV1.22B15,2013-11-14 22:24:00,
2013-11-14 17:25:00,45.7,18.3,30.18,WNW,295,1.0,1.0,33,0.00,,,0.00,520,WeatherCatV1.22B15,2013-11-14 22:25:00,
2013-11-14 17:26:00,45.6,18.9,30.18,WNW,295,1.0,1.0,34,0.00,,,0.00,520,WeatherCatV1.22B15,2013-11-14 22:26:00,
2013-11-14 17:27:00,45.6,18.9,30.18,WNW,295,1.0,1.0,34,0.00,,,0.00,520,WeatherCatV1.22B15,2013-11-14 22:27:00,
2013-11-14 17:29:00,45.5,18.8,30.18,WNW,295,2.0,3.0,34,0.00,,,0.00,520,WeatherCatV1.22B15,2013-11-14 22:29:00,
2013-11-14 17:31:00,45.5,18.8,30.18,WNW,295,0.0,1.0,34,0.00,,,0.00,520,WeatherCatV1.22B15,2013-11-14 22:31:00,
2013-11-14 17:32:00,45.5,18.8,30.18,WNW,295,1.0,1.0,34,0.00,,,0.00,520,WeatherCatV1.22B15,2013-11-14 22:32:00,
2013-11-14 17:34:00,45.4,18.7,30.18,WNW,295,1.0,1.0,34,0.00,,,0.00,520,WeatherCatV1.22B15,2013-11-14 22:34:00,
2013-11-14 17:36:00,45.4,18.0,30.19,WNW,295,2.0,4.0,33,0.00,,,0.00,520,WeatherCatV1.22B15,2013-11-14 22:36:00,
2013-11-14 17:37:00,45.4,18.7,30.18,WNW,295,1.0,4.0,34,0.00,,,0.00,520,WeatherCatV1.22B15,2013-11-14 22:37:00,
2013-11-14 17:39:00,45.4,18.7,30.18,WNW,295,2.0,3.0,34,0.00,,,0.00,520,WeatherCatV1.22B15,2013-11-14 22:39:00,
2013-11-14 17:40:00,45.4,18.0,30.19,WNW,295,0.0,3.0,33,0.00,,,0.00,520,WeatherCatV1.22B15,2013-11-14 22:40:00,
2013-11-14 17:41:00,45.5,18.1,30.19,WNW,295,0.0,1.0,33,0.00,,,0.00,520,WeatherCatV1.22B15,2013-11-14 22:41:00,
2013-11-14 17:42:00,45.4,18.0,30.18,WNW,295,0.0,1.0,33,0.00,,,0.00,520,WeatherCatV1.22B15,2013-11-14 22:42:00,
2013-11-14 17:43:00,45.4,18.0,30.18,WNW,295,0.0,0.0,33,0.00,,,0.00,520,WeatherCatV1.22B15,2013-11-14 22:43:00,
2013-11-14 17:44:00,45.4,18.7,30.18,WNW,295,1.0,1.0,34,0.00,,,0.00,520,WeatherCatV1.22B15,2013-11-14 22:44:00,
2013-11-14 17:45:00,45.3,17.9,30.18,WNW,295,1.0,3.0,33,0.00,,,0.00,520,WeatherCatV1.22B15,2013-11-14 22:45:00,
2013-11-14 17:47:00,45.2,18.5,30.19,WNW,295,1.0,1.0,34,0.00,,,0.00,520,WeatherCatV1.22B15,2013-11-14 22:47:00,
2013-11-14 17:48:00,45.1,18.4,30.19,WNW,295,2.0,3.0,34,0.00,,,0.00,520,WeatherCatV1.22B15,2013-11-14 22:48:00,
2013-11-14 17:49:00,45.1,18.4,30.19,WNW,295,0.0,3.0,34,0.00,,,0.00,520,WeatherCatV1.22B15,2013-11-14 22:49:00,
2013-11-14 17:50:00,45.0,18.3,30.19,WNW,295,1.0,2.0,34,0.00,,,0.00,520,WeatherCatV1.22B15,2013-11-14 22:50:00,
2013-11-14 17:52:00,45.0,18.3,30.19,WNW,295,0.0,2.0,34,0.00,,,0.00,520,WeatherCatV1.22B15,2013-11-14 22:52:00,
2013-11-14 17:53:00,44.9,18.9,30.19,WNW,295,0.0,1.0,35,0.00,,,0.00,520,WeatherCatV1.22B15,2013-11-14 22:53:00,
2013-11-14 17:54:00,44.8,18.8,30.19,WNW,295,0.0,1.0,35,0.00,,,0.00,520,WeatherCatV1.22B15,2013-11-14 22:54:00,
2013-11-14 17:55:00,44.7,18.8,30.19,WNW,295,1.0,2.0,35,0.00,,,0.00,520,WeatherCatV1.22B15,2013-11-14 22:55:00,
2013-11-14 17:57:00,44.6,18.0,30.19,WNW,295,0.0,3.0,34,0.00,,,0.00,520,WeatherCatV1.22B15,2013-11-14 22:57:00,
2013-11-14 17:58:00,44.6,18.7,30.19,WNW,295,1.0,3.0,35,0.00,,,0.00,520,WeatherCatV1.22B15,2013-11-14 22:58:00,
2013-11-14 17:59:00,44.5,18.6,30.19,WNW,295,0.0,1.0,35,0.00,,,0.00,520,WeatherCatV1.22B15,2013-11-14 22:59:00,
2013-11-14 18:01:00,44.5,18.6,30.19,WNW,295,0.0,1.0,35,0.00,,,0.00,520,WeatherCatV1.22B15,2013-11-14 23:01:00,
2013-11-14 18:03:00,44.4,18.5,30.19,WNW,297,0.0,0.0,35,0.00,,,0.00,520,WeatherCatV1.22B15,2013-11-14 23:03:00,
2013-11-14 18:04:00,44.3,18.4,30.19,WNW,297,0.0,0.0,35,0.00,,,0.00,520,WeatherCatV1.22B15,2013-11-14 23:04:00,
2013-11-14 18:06:00,44.0,18.1,30.19,WNW,297,0.0,1.0,35,0.00,,,0.00,520,WeatherCatV1.22B15,2013-11-14 23:06:00,
2013-11-14 18:08:00,44.0,18.1,30.19,WNW,297,0.0,2.0,35,0.00,,,0.00,520,WeatherCatV1.22B15,2013-11-14 23:08:00,
2013-11-14 18:09:00,43.9,18.0,30.19,WNW,297,0.0,2.0,35,0.00,,,0.00,520,WeatherCatV1.22B15,2013-11-14 23:09:00,
2013-11-14 18:12:00,43.7,18.5,30.19,WNW,297,0.0,1.0,36,0.00,,,0.00,520,WeatherCatV1.22B15,2013-11-14 23:12:00,
2013-11-14 18:13:00,43.6,18.4,30.19,WNW,297,0.0,1.0,36,0.00,,,0.00,520,WeatherCatV1.22B15,2013-11-14 23:13:00,
2013-11-14 18:14:00,43.6,18.4,30.19,WNW,297,1.0,1.0,36,0.00,,,0.00,520,WeatherCatV1.22B15,2013-11-14 23:14:00,
2013-11-14 18:15:00,43.5,18.3,30.19,WNW,297,1.0,2.0,36,0.00,,,0.00,520,WeatherCatV1.22B15,2013-11-14 23:15:00,
2013-11-14 18:17:00,43.4,18.2,30.19,WNW,297,1.0,1.0,36,0.00,,,0.00,520,WeatherCatV1.22B15,2013-11-14 23:17:00,
2013-11-14 18:18:00,43.4,18.2,30.19,WNW,297,0.0,1.0,36,0.00,,,0.00,520,WeatherCatV1.22B15,2013-11-14 23:18:00,
2013-11-14 18:19:00,43.3,18.2,30.19,WNW,297,1.0,1.0,36,0.00,,,0.00,520,WeatherCatV1.22B15,2013-11-14 23:19:00,
2013-11-14 18:20:00,43.3,17.5,30.19,WNW,297,1.0,2.0,35,0.00,,,0.00,520,WeatherCatV1.22B15,2013-11-14 23:20:00,
2013-11-14 18:22:00,43.4,17.6,30.19,WNW,297,0.0,1.0,35,0.00,,,0.00,520,WeatherCatV1.22B15,2013-11-14 23:22:00,
2013-11-14 18:23:00,43.4,18.2,30.19,WNW,297,0.0,0.0,36,0.00,,,0.00,520,WeatherCatV1.22B15,2013-11-14 23:23:00,
2013-11-14 18:24:00,43.4,18.2,30.20,WNW,297,0.0,0.0,36,0.00,,,0.00,520,WeatherCatV1.22B15,2013-11-14 23:24:00,
2013-11-14 18:25:00,43.3,18.2,30.19,WNW,297,0.0,1.0,36,0.00,,,0.00,520,WeatherCatV1.22B15,2013-11-14 23:25:00,
2013-11-14 18:27:00,43.2,17.4,30.20,WNW,297,0.0,0.0,35,0.00,,,0.00,520,WeatherCatV1.22B15,2013-11-14 23:27:00,
2013-11-14 18:28:00,43.1,18.0,30.20,WNW,297,0.0,0.0,36,0.00,,,0.00,520,WeatherCatV1.22B15,2013-11-14 23:28:00,
2013-11-14 18:29:00,43.1,18.0,30.20,WNW,297,0.0,0.0,36,0.00,,,0.00,520,WeatherCatV1.22B15,2013-11-14 23:29:00,
2013-11-14 18:30:00,43.0,17.9,30.19,WNW,297,0.0,1.0,36,0.00,,,0.00,520,WeatherCatV1.22B15,2013-11-14 23:30:00,
2013-11-14 18:32:00,43.0,17.9,30.20,WNW,297,0.0,3.0,36,0.00,,,0.00,520,WeatherCatV1.22B15,2013-11-14 23:32:00,
2013-11-14 18:34:00,42.9,17.8,30.20,WNW,297,0.0,1.0,36,0.00,,,0.00,520,WeatherCatV1.22B15,2013-11-14 23:34:00,
2013-11-14 18:35:00,42.9,17.8,30.19,WNW,297,1.0,1.0,36,0.00,,,0.00,520,WeatherCatV1.22B15,2013-11-14 23:35:00,
2013-11-14 18:37:00,42.9,17.8,30.19,WNW,297,1.0,1.0,36,0.00,,,0.00,520,WeatherCatV1.22B15,2013-11-14 23:37:00,
2013-11-14 18:39:00,42.8,17.7,30.19,WNW,297,0.0,1.0,36,0.00,,,0.00,520,WeatherCatV1.22B15,2013-11-14 23:39:00,
2013-11-14 18:40:00,42.8,17.7,30.19,WNW,297,0.0,1.0,36,0.00,,,0.00,520,WeatherCatV1.22B15,2013-11-14 23:40:00,
2013-11-14 18:41:00,42.7,17.6,30.19,WNW,297,0.0,0.0,36,0.00,,,0.00,520,WeatherCatV1.22B15,2013-11-14 23:41:00,
2013-11-14 18:42:00,42.6,17.5,30.19,WNW,297,0.0,1.0,36,0.00,,,0.00,520,WeatherCatV1.22B15,2013-11-14 23:42:00,
2013-11-14 18:43:00,42.6,17.5,30.19,WNW,297,0.0,1.0,36,0.00,,,0.00,520,WeatherCatV1.22B15,2013-11-14 23:43:00,
2013-11-14 18:44:00,42.6,17.5,30.19,WNW,297,1.0,1.0,36,0.00,,,0.00,520,WeatherCatV1.22B15,2013-11-14 23:44:00,
2013-11-14 18:45:00,42.6,16.9,30.19,WNW,297,0.0,1.0,35,0.00,,,0.00,520,WeatherCatV1.22B15,2013-11-14 23:45:00,
2013-11-14 18:46:00,42.6,16.9,30.19,WNW,297,0.0,1.0,35,0.00,,,0.00,520,WeatherCatV1.22B15,2013-11-14 23:46:00,
2013-11-14 18:47:00,42.7,17.0,30.19,WNW,297,0.0,1.0,35,0.00,,,0.00,520,WeatherCatV1.22B15,2013-11-14 23:47:00,
2013-11-14 18:48:00,42.7,17.6,30.19,WNW,297,0.0,1.0,36,0.00,,,0.00,520,WeatherCatV1.22B15,2013-11-14 23:48:00,
2013-11-14 18:49:00,42.7,17.0,30.19,WNW,297,1.0,1.0,35,0.00,,,0.00,520,WeatherCatV1.22B15,2013-11-14 23:49:00,
2013-11-14 18:50:00,42.7,17.0,30.19,WNW,297,0.0,1.0,35,0.00,,,0.00,520,WeatherCatV1.22B15,2013-11-14 23:50:00,
2013-11-14 18:51:00,42.8,17.1,30.19,WNW,297,0.0,0.0,35,0.00,,,0.00,520,WeatherCatV1.22B15,2013-11-14 23:51:00,
2013-11-14 18:53:00,42.8,17.7,30.19,WNW,297,0.0,1.0,36,0.00,,,0.00,520,WeatherCatV1.22B15,2013-11-14 23:53:00,
2013-11-14 18:54:00,42.8,17.7,30.19,WNW,297,0.0,1.0,36,0.00,,,0.00,520,WeatherCatV1.22B15,2013-11-14 23:54:00,
2013-11-14 18:55:00,42.7,17.6,30.19,WNW,297,1.0,1.0,36,0.00,,,0.00,520,WeatherCatV1.22B15,2013-11-14 23:55:00,
2013-11-14 18:56:00,42.7,17.6,30.19,WNW,297,2.0,2.0,36,0.00,,,0.00,520,WeatherCatV1.22B15,2013-11-14 23:56:00,
2013-11-14 18:58:00,42.8,17.7,30.19,WNW,297,0.0,0.0,36,0.00,,,0.00,520,WeatherCatV1.22B15,2013-11-14 23:58:00,
2013-11-14 18:59:00,42.8,17.7,30.19,WNW,297,0.0,0.0,36,0.00,,,0.00,520,WeatherCatV1.22B15,2013-11-14 23:59:00,
2013-11-14 19:00:00,42.8,17.7,30.19,WNW,297,0.0,0.0,36,0.00,,,0.00,520,WeatherCatV1.22B15,2013-11-15 00:00:00,
2013-11-14 19:01:00,42.8,17.7,30.19,WNW,297,0.0,0.0,36,0.00,,,0.00,520,WeatherCatV1.22B15,2013-11-15 00:01:00,
2013-11-14 19:03:00,42.7,17.0,30.20,WNW,297,0.0,0.0,35,0.00,,,0.00,520,WeatherCatV1.22B15,2013-11-15 00:03:00,
2013-11-14 19:04:00,42.7,17.0,30.20,WNW,297,0.0,0.0,35,0.00,,,0.00,520,WeatherCatV1.22B15,2013-11-15 00:04:00,
2013-11-14 19:06:00,42.5,16.8,30.20,WNW,297,0.0,0.0,35,0.00,,,0.00,520,WeatherCatV1.22B15,2013-11-15 00:06:00,
2013-11-14 19:08:00,42.4,16.7,30.20,WNW,297,0.0,0.0,35,0.00,,,0.00,520,WeatherCatV1.22B15,2013-11-15 00:08:00,
2013-11-14 19:09:00,42.3,16.6,30.20,WNW,297,0.0,0.0,35,0.00,,,0.00,520,WeatherCatV1.22B15,2013-11-15 00:09:00,
2013-11-14 19:11:00,42.2,16.5,30.19,WNW,297,0.0,0.0,35,0.00,,,0.00,520,WeatherCatV1.22B15,2013-11-15 00:11:00,
2013-11-14 19:12:00,42.2,17.2,30.20,WNW,297,0.0,0.0,36,0.00,,,0.00,520,WeatherCatV1.22B15,2013-11-15 00:12:00,
2013-11-14 19:13:00,42.1,17.1,30.20,WNW,297,0.0,0.0,36,0.00,,,0.00,520,WeatherCatV1.22B15,2013-11-15 00:13:00,
2013-11-14 19:14:00,42.0,17.0,30.20,WNW,297,0.0,0.0,36,0.00,,,0.00,520,WeatherCatV1.22B15,2013-11-15 00:14:00,
2013-11-14 19:15:00,42.0,17.0,30.20,WNW,297,0.0,0.0,36,0.00,,,0.00,520,WeatherCatV1.22B15,2013-11-15 00:15:00,
2013-11-14 19:16:00,41.9,16.9,30.20,WNW,297,0.0,0.0,36,0.00,,,0.00,520,WeatherCatV1.22B15,2013-11-15 00:16:00,
2013-11-14 19:17:00,41.9,16.9,30.20,WNW,297,0.0,0.0,36,0.00,,,0.00,520,WeatherCatV1.22B15,2013-11-15 00:17:00,
2013-11-14 19:19:00,41.7,16.7,30.20,WNW,297,0.0,0.0,36,0.00,,,0.00,520,WeatherCatV1.22B15,2013-11-15 00:19:00,
2013-11-14 19:20:00,41.7,16.7,30.20,WNW,297,0.0,0.0,36,0.00,,,0.00,520,WeatherCatV1.22B15,2013-11-15 00:20:00,
2013-11-14 19:22:00,41.6,16.6,30.20,WNW,297,0.0,0.0,36,0.00,,,0.00,520,WeatherCatV1.22B15,2013-11-15 00:22:00,
2013-11-14 19:25:00,41.5,16.6,30.20,WNW,297,0.0,0.0,36,0.00,,,0.00,520,WeatherCatV1.22B15,2013-11-15 00:25:00,
2013-11-14 19:26:00,41.5,16.6,30.20,WNW,297,0.0,0.0,36,0.00,,,0.00,520,WeatherCatV1.22B15,2013-11-15 00:26:00,
2013-11-14 19:27:00,41.4,16.5,30.20,WNW,297,0.0,0.0,36,0.00,,,0.00,520,WeatherCatV1.22B15,2013-11-15 00:27:00,
2013-11-14 19:30:00,41.2,16.3,30.19,WNW,297,0.0,0.0,36,0.00,,,0.00,520,WeatherCatV1.22B15,2013-11-15 00:30:00,
2013-11-14 19:31:00,41.2,16.3,30.19,WNW,297,0.0,0.0,36,0.00,,,0.00,520,WeatherCatV1.22B15,2013-11-15 00:31:00,
2013-11-14 19:32:00,41.1,16.2,30.19,WNW,297,0.0,0.0,36,0.00,,,0.00,520,WeatherCatV1.22B15,2013-11-15 00:32:00,
2013-11-14 19:36:00,41.0,16.8,30.19,WNW,297,0.0,0.0,37,0.00,,,0.00,520,WeatherCatV1.22B15,2013-11-15 00:36:00,
2013-11-14 19:37:00,40.9,16.0,30.19,WNW,297,0.0,0.0,36,0.00,,,0.00,520,WeatherCatV1.22B15,2013-11-15 00:37:00,
2013-11-14 19:41:00,40.8,16.6,30.19,WNW,297,0.0,0.0,37,0.00,,,0.00,520,WeatherCatV1.22B15,2013-11-15 00:41:00,
2013-11-14 19:42:00,40.8,16.6,30.19,WNW,297,0.0,0.0,37,0.00,,,0.00,520,WeatherCatV1.22B15,2013-11-15 00:42:00,
2013-11-14 19:43:00,40.8,16.6,30.19,WNW,297,0.0,0.0,37,0.00,,,0.00,520,WeatherCatV1.22B15,2013-11-15 00:43:00,
2013-11-14 19:46:00,40.7,16.5,30.19,WNW,297,0.0,0.0,37,0.00,,,0.00,520,WeatherCatV1.22B15,2013-11-15 00:46:00,
2013-11-14 19:47:00,40.7,16.5,30.19,WNW,297,0.0,0.0,37,0.00,,,0.00,520,WeatherCatV1.22B15,2013-11-15 00:47:00,
2013-11-14 19:48:00,40.7,16.5,30.19,WNW,297,0.0,0.0,37,0.00,,,0.00,520,WeatherCatV1.22B15,2013-11-15 00:48:00,
2013-11-14 19:51:00,40.7,16.5,30.19,WNW,297,0.0,0.0,37,0.00,,,0.00,520,WeatherCatV1.22B15,2013-11-15 00:51:00,
2013-11-14 19:52:00,40.7,16.5,30.19,WNW,297,0.0,0.0,37,0.00,,,0.00,520,WeatherCatV1.22B15,2013-11-15 00:52:00,
2013-11-14 19:53:00,40.7,16.5,30.19,WNW,297,0.0,0.0,37,0.00,,,0.00,520,WeatherCatV1.22B15,2013-11-15 00:53:00,
2013-11-14 19:54:00,40.7,16.5,30.19,WNW,297,0.0,0.0,37,0.00,,,0.00,520,WeatherCatV1.22B15,2013-11-15 00:54:00,
2013-11-14 19:56:00,40.7,16.5,30.19,WNW,297,0.0,0.0,37,0.00,,,0.00,520,WeatherCatV1.22B15,2013-11-15 00:56:00,
2013-11-14 19:57:00,40.7,16.5,30.19,WNW,297,0.0,0.0,37,0.00,,,0.00,520,WeatherCatV1.22B15,2013-11-15 00:57:00,
2013-11-14 19:58:00,40.7,16.5,30.19,WNW,297,0.0,0.0,37,0.00,,,0.00,520,WeatherCatV1.22B15,2013-11-15 00:58:00,
2013-11-14 19:59:00,40.6,16.4,30.19,WNW,297,0.0,0.0,37,0.00,,,0.00,520,WeatherCatV1.22B15,2013-11-15 00:59:00,
2013-11-14 20:01:00,40.5,16.3,30.19,WNW,297,0.0,0.0,37,0.00,,,0.00,520,WeatherCatV1.22B15,2013-11-15 01:01:00,
2013-11-14 20:02:00,40.5,16.3,30.19,WNW,297,0.0,0.0,37,0.00,,,0.00,520,WeatherCatV1.22B15,2013-11-15 01:02:00,
2013-11-14 20:03:00,40.5,16.3,30.19,WNW,297,0.0,0.0,37,0.00,,,0.00,520,WeatherCatV1.22B15,2013-11-15 01:03:00,
2013-11-14 20:04:00,40.5,16.3,30.19,WNW,297,0.0,0.0,37,0.00,,,0.00,520,WeatherCatV1.22B15,2013-11-15 01:04:00,
2013-11-14 20:06:00,40.4,16.2,30.19,WNW,297,0.0,0.0,37,0.00,,,0.00,520,WeatherCatV1.22B15,2013-11-15 01:06:00,
2013-11-14 20:07:00,40.3,16.1,30.19,WNW,297,0.0,0.0,37,0.00,,,0.00,520,WeatherCatV1.22B15,2013-11-15 01:07:00,
2013-11-14 20:08:00,40.3,16.1,30.19,WNW,297,0.0,0.0,37,0.00,,,0.00,520,WeatherCatV1.22B15,2013-11-15 01:08:00,
2013-11-14 20:09:00,40.2,16.6,30.19,WNW,297,0.0,0.0,38,0.00,,,0.00,520,WeatherCatV1.22B15,2013-11-15 01:09:00,
2013-11-14 20:11:00,40.1,15.9,30.19,WNW,297,0.0,0.0,37,0.00,,,0.00,520,WeatherCatV1.22B15,2013-11-15 01:11:00,
2013-11-14 20:12:00,40.0,15.9,30.19,WNW,297,0.0,0.0,37,0.00,,,0.00,520,WeatherCatV1.22B15,2013-11-15 01:12:00,
2013-11-14 20:13:00,40.0,15.9,30.19,WNW,297,0.0,0.0,37,0.00,,,0.00,520,WeatherCatV1.22B15,2013-11-15 01:13:00,
2013-11-14 20:15:00,39.9,16.4,30.19,WNW,297,0.0,0.0,38,0.00,,,0.00,520,WeatherCatV1.22B15,2013-11-15 01:15:00,
2013-11-14 20:17:00,39.9,15.8,30.19,WNW,297,0.0,0.0,37,0.00,,,0.00,520,WeatherCatV1.22B15,2013-11-15 01:17:00,
2013-11-14 20:18:00,39.8,16.3,30.19,WNW,297,0.0,0.0,38,0.00,,,0.00,520,WeatherCatV1.22B15,2013-11-15 01:18:00,
2013-11-14 20:19:00,39.8,16.3,30.19,WNW,297,0.0,0.0,38,0.00,,,0.00,520,WeatherCatV1.22B15,2013-11-15 01:19:00,
2013-11-14 20:20:00,39.8,16.3,30.19,WNW,297,0.0,0.0,38,0.00,,,0.00,520,WeatherCatV1.22B15,2013-11-15 01:20:00,
2013-11-14 20:22:00,39.7,15.6,30.19,WNW,297,0.0,0.0,37,0.00,,,0.00,520,WeatherCatV1.22B15,2013-11-15 01:22:00,
2013-11-14 20:23:00,39.7,15.6,30.19,WNW,297,0.0,0.0,37,0.00,,,0.00,520,WeatherCatV1.22B15,2013-11-15 01:23:00,
2013-11-14 20:24:00,39.6,15.5,30.19,WNW,297,0.0,0.0,37,0.00,,,0.00,520,WeatherCatV1.22B15,2013-11-15 01:24:00,
2013-11-14 20:26:00,39.5,15.4,30.19,WNW,297,0.0,0.0,37,0.00,,,0.00,520,WeatherCatV1.22B15,2013-11-15 01:26:00,
2013-11-14 20:27:00,39.5,16.0,30.19,WNW,297,0.0,0.0,38,0.00,,,0.00,520,WeatherCatV1.22B15,2013-11-15 01:27:00,
2013-11-14 20:28:00,39.4,15.9,30.19,WNW,297,0.0,0.0,38,0.00,,,0.00,520,WeatherCatV1.22B15,2013-11-15 01:28:00,
2013-11-14 20:29:00,39.3,15.8,30.19,WNW,297,0.0,0.0,38,0.00,,,0.00,520,WeatherCatV1.22B15,2013-11-15 01:29:00,
2013-11-14 20:31:00,39.3,15.8,30.19,WNW,297,0.0,0.0,38,0.00,,,0.00,520,WeatherCatV1.22B15,2013-11-15 01:31:00,
2013-11-14 20:32:00,39.3,15.8,30.19,WNW,297,0.0,0.0,38,0.00,,,0.00,520,WeatherCatV1.22B15,2013-11-15 01:32:00,
2013-11-14 20:33:00,39.3,15.8,30.19,WNW,297,0.0,0.0,38,0.00,,,0.00,520,WeatherCatV1.22B15,2013-11-15 01:33:00,
2013-11-14 20:34:00,39.3,15.8,30.19,WNW,297,0.0,0.0,38,0.00,,,0.00,520,WeatherCatV1.22B15,2013-11-15 01:34:00,
2013-11-14 20:35:00,39.3,15.8,30.19,WNW,297,0.0,0.0,38,0.00,,,0.00,520,WeatherCatV1.22B15,2013-11-15 01:35:00,
2013-11-14 20:36:00,39.4,16.5,30.19,WNW,297,0.0,0.0,39,0.00,,,0.00,520,WeatherCatV1.22B15,2013-11-15 01:36:00,
2013-11-14 20:38:00,39.5,16.6,30.19,WNW,297,0.0,0.0,39,0.00,,,0.00,520,WeatherCatV1.22B15,2013-11-15 01:38:00,
2013-11-14 20:39:00,39.6,16.1,30.19,WNW,297,0.0,0.0,38,0.00,,,0.00,520,WeatherCatV1.22B15,2013-11-15 01:39:00,
2013-11-14 20:40:00,39.6,16.1,30.19,WNW,297,0.0,0.0,38,0.00,,,0.00,520,WeatherCatV1.22B15,2013-11-15 01:40:00,
2013-11-14 20:41:00,39.6,16.1,30.19,WNW,297,0.0,0.0,38,0.00,,,0.00,520,WeatherCatV1.22B15,2013-11-15 01:41:00,
2013-11-14 20:43:00,39.7,16.2,30.19,WNW,297,0.0,0.0,38,0.00,,,0.00,520,WeatherCatV1.22B15,2013-11-15 01:43:00,
2013-11-14 20:44:00,39.7,16.2,30.19,WNW,297,0.0,0.0,38,0.00,,,0.00,520,WeatherCatV1.22B15,2013-11-15 01:44:00,
2013-11-14 20:45:00,39.7,16.2,30.19,WNW,297,0.0,0.0,38,0.00,,,0.00,520,WeatherCatV1.22B15,2013-11-15 01:45:00,
2013-11-14 20:46:00,39.7,16.8,30.19,WNW,297,0.0,0.0,39,0.00,,,0.00,520,WeatherCatV1.22B15,2013-11-15 01:46:00,
2013-11-14 20:48:00,39.7,16.8,30.19,WNW,297,0.0,0.0,39,0.00,,,0.00,520,WeatherCatV1.22B15,2013-11-15 01:48:00,
2013-11-14 20:49:00,39.7,16.8,30.19,WNW,297,0.0,0.0,39,0.00,,,0.00,520,WeatherCatV1.22B15,2013-11-15 01:49:00,
2013-11-14 20:50:00,39.7,16.2,30.19,WNW,297,0.0,0.0,38,0.00,,,0.00,520,WeatherCatV1.22B15,2013-11-15 01:50:00,
2013-11-14 20:51:00,39.7,16.2,30.19,WNW,297,0.0,0.0,38,0.00,,,0.00,520,WeatherCatV1.22B15,2013-11-15 01:51:00,
2013-11-14 20:53:00,39.7,16.2,30.19,WNW,297,0.0,0.0,38,0.00,,,0.00,520,WeatherCatV1.22B15,2013-11-15 01:53:00,
2013-11-14 20:54:00,39.7,16.8,30.19,WNW,297,0.0,0.0,39,0.00,,,0.00,520,WeatherCatV1.22B15,2013-11-15 01:54:00,
2013-11-14 20:55:00,39.7,16.2,30.19,WNW,297,0.0,0.0,38,0.00,,,0.00,520,WeatherCatV1.22B15,2013-11-15 01:55:00,
2013-11-14 20:56:00,39.8,16.3,30.19,WNW,297,0.0,1.0,38,0.00,,,0.00,520,WeatherCatV1.22B15,2013-11-15 01:56:00,
2013-11-14 20:58:00,39.9,16.4,30.19,WNW,297,0.0,0.0,38,0.00,,,0.00,520,WeatherCatV1.22B15,2013-11-15 01:58:00,
2013-11-14 20:59:00,39.9,16.4,30.19,WNW,297,0.0,0.0,38,0.00,,,0.00,520,WeatherCatV1.22B15,2013-11-15 01:59:00,
2013-11-14 21:00:00,39.9,16.4,30.19,WNW,297,0.0,0.0,38,0.00,,,0.00,520,WeatherCatV1.22B15,2013-11-15 02:00:00,
2013-11-14 21:01:00,39.9,16.4,30.19,WNW,297,0.0,1.0,38,0.00,,,0.00,520,WeatherCatV1.22B15,2013-11-15 02:01:00,
2013-11-14 21:02:00,39.9,16.4,30.19,WNW,297,0.0,1.0,38,0.00,,,0.00,520,WeatherCatV1.22B15,2013-11-15 02:02:00,
2013-11-14 21:03:00,39.9,16.4,30.19,WNW,297,0.0,0.0,38,0.00,,,0.00,520,WeatherCatV1.22B15,2013-11-15 02:03:00,
2013-11-14 21:04:00,39.9,16.4,30.19,WNW,297,0.0,0.0,38,0.00,,,0.00,520,WeatherCatV1.22B15,2013-11-15 02:04:00,
2013-11-14 21:05:00,39.8,15.7,30.19,WNW,297,0.0,0.0,37,0.00,,,0.00,520,WeatherCatV1.22B15,2013-11-15 02:05:00,
2013-11-14 21:06:00,39.8,16.3,30.19,WNW,297,0.0,0.0,38,0.00,,,0.00,520,WeatherCatV1.22B15,2013-11-15 02:06:00,
2013-11-14 21:07:00,39.8,15.7,30.19,WNW,297,0.0,0.0,37,0.00,,,0.00,520,WeatherCatV1.22B15,2013-11-15 02:07:00,
2013-11-14 21:09:00,39.7,15.6,30.19,WNW,297,0.0,1.0,37,0.00,,,0.00,520,WeatherCatV1.22B15,2013-11-15 02:09:00,
2013-11-14 21:10:00,39.7,15.6,30.19,WNW,297,0.0,0.0,37,0.00,,,0.00,520,WeatherCatV1.22B15,2013-11-15 02:10:00,
2013-11-14 21:11:00,39.7,16.2,30.19,WNW,297,0.0,0.0,38,0.00,,,0.00,520,WeatherCatV1.22B15,2013-11-15 02:11:00,
2013-11-14 21:13:00,39.6,16.1,30.19,WNW,297,0.0,1.0,38,0.00,,,0.00,520,WeatherCatV1.22B15,2013-11-15 02:13:00,
2013-11-14 21:14:00,39.6,16.1,30.19,WNW,297,0.0,1.0,38,0.00,,,0.00,520,WeatherCatV1.22B15,2013-11-15 02:14:00,
2013-11-14 21:16:00,39.5,16.0,30.19,WNW,297,0.0,1.0,38,0.00,,,0.00,520,WeatherCatV1.22B15,2013-11-15 02:16:00,
2013-11-14 21:17:00,39.6,16.7,30.19,WNW,297,0.0,0.0,39,0.00,,,0.00,520,WeatherCatV1.22B15,2013-11-15 02:17:00,
2013-11-14 21:19:00,39.5,16.6,30.19,WNW,297,0.0,0.0,39,0.00,,,0.00,520,WeatherCatV1.22B15,2013-11-15 02:19:00,
2013-11-14 21:20:00,39.5,16.0,30.19,WNW,297,0.0,0.0,38,0.00,,,0.00,520,WeatherCatV1.22B15,2013-11-15 02:20:00,
2013-11-14 21:21:00,39.5,16.6,30.19,WNW,297,0.0,0.0,39,0.00,,,0.00,520,WeatherCatV1.22B15,2013-11-15 02:21:00,
2013-11-14 21:22:00,39.5,16.0,30.19,WNW,297,0.0,0.0,38,0.00,,,0.00,520,WeatherCatV1.22B15,2013-11-15 02:22:00,
2013-11-14 21:24:00,39.5,16.0,30.19,WNW,297,0.0,1.0,38,0.00,,,0.00,520,WeatherCatV1.22B15,2013-11-15 02:24:00,
2013-11-14 21:25:00,39.5,16.6,30.19,WNW,297,0.0,0.0,39,0.00,,,0.00,520,WeatherCatV1.22B15,2013-11-15 02:25:00,
2013-11-14 21:26:00,39.4,15.9,30.19,WNW,297,0.0,0.0,38,0.00,,,0.00,520,WeatherCatV1.22B15,2013-11-15 02:26:00,
2013-11-14 21:27:00,39.4,16.5,30.19,WNW,297,1.0,1.0,39,0.00,,,0.00,520,WeatherCatV1.22B15,2013-11-15 02:27:00,
2013-11-14 21:29:00,39.3,16.4,30.19,WNW,297,0.0,0.0,39,0.00,,,0.00,520,WeatherCatV1.22B15,2013-11-15 02:29:00,
2013-11-14 21:30:00,39.2,16.4,30.19,WNW,297,0.0,0.0,39,0.00,,,0.00,520,WeatherCatV1.22B15,2013-11-15 02:30:00,
2013-11-14 21:32:00,39.1,16.3,30.19,WNW,297,0.0,0.0,39,0.00,,,0.00,520,WeatherCatV1.22B15,2013-11-15 02:32:00,
2013-11-14 21:34:00,38.9,16.1,30.19,WNW,297,0.0,0.0,39,0.00,,,0.00,520,WeatherCatV1.22B15,2013-11-15 02:34:00,
2013-11-14 21:35:00,38.8,16.0,30.19,WNW,297,0.0,0.0,39,0.00,,,0.00,520,WeatherCatV1.22B15,2013-11-15 02:35:00,
2013-11-14 21:37:00,38.7,15.9,30.19,WNW,297,0.0,0.0,39,0.00,,,0.00,520,WeatherCatV1.22B15,2013-11-15 02:37:00,
2013-11-14 21:38:00,38.6,15.8,30.19,WNW,297,0.0,0.0,39,0.00,,,0.00,520,WeatherCatV1.22B15,2013-11-15 02:38:00,
2013-11-14 21:39:00,38.5,15.7,30.19,WNW,297,0.0,0.0,39,0.00,,,0.00,520,WeatherCatV1.22B15,2013-11-15 02:39:00,
2013-11-14 21:40:00,38.5,15.7,30.19,WNW,297,0.0,0.0,39,0.00,,,0.00,520,WeatherCatV1.22B15,2013-11-15 02:40:00,
2013-11-14 21:42:00,38.3,16.1,30.19,WNW,297,0.0,0.0,40,0.00,,,0.00,520,WeatherCatV1.22B15,2013-11-15 02:42:00,
2013-11-14 21:43:00,38.3,16.1,30.19,WNW,297,0.0,0.0,40,0.00,,,0.00,520,WeatherCatV1.22B15,2013-11-15 02:43:00,
2013-11-14 21:44:00,38.3,16.1,30.19,WNW,297,0.0,0.0,40,0.00,,,0.00,520,WeatherCatV1.22B15,2013-11-15 02:44:00,
2013-11-14 21:45:00,38.3,16.1,30.19,WNW,297,0.0,0.0,40,0.00,,,0.00,520,WeatherCatV1.22B15,2013-11-15 02:45:00,
2013-11-14 21:47:00,38.1,16.5,30.19,WNW,297,0.0,0.0,41,0.00,,,0.00,520,WeatherCatV1.22B15,2013-11-15 02:47:00,
2013-11-14 21:48:00,38.1,16.5,30.19,WNW,297,0.0,0.0,41,0.00,,,0.00,520,WeatherCatV1.22B15,2013-11-15 02:48:00,
2013-11-14 21:49:00,38.1,15.9,30.19,WNW,297,0.0,0.0,40,0.00,,,0.00,520,WeatherCatV1.22B15,2013-11-15 02:49:00,
2013-11-14 21:50:00,38.1,15.9,30.19,WNW,297,0.0,0.0,40,0.00,,,0.00,520,WeatherCatV1.22B15,2013-11-15 02:50:00,
2013-11-14 21:51:00,38.0,15.9,30.19,WNW,297,0.0,0.0,40,0.00,,,0.00,520,WeatherCatV1.22B15,2013-11-15 02:51:00,
2013-11-14 21:52:00,38.0,15.9,30.19,WNW,297,0.0,0.0,40,0.00,,,0.00,520,WeatherCatV1.22B15,2013-11-15 02:52:00,
2013-11-14 21:53:00,38.0,15.9,30.19,WNW,297,0.0,0.0,40,0.00,,,0.00,520,WeatherCatV1.22B15,2013-11-15 02:53:00,
2013-11-14 21:55:00,38.0,16.4,30.19,WNW,297,0.0,1.0,41,0.00,,,0.00,520,WeatherCatV1.22B15,2013-11-15 02:55:00,
2013-11-14 21:56:00,38.0,16.4,30.19,WNW,297,0.0,1.0,41,0.00,,,0.00,520,WeatherCatV1.22B15,2013-11-15 02:56:00,
2013-11-14 21:57:00,38.0,16.4,30.19,WNW,297,0.0,0.0,41,0.00,,,0.00,520,WeatherCatV1.22B15,2013-11-15 02:57:00,
2013-11-14 21:58:00,37.9,16.3,30.19,WNW,297,0.0,0.0,41,0.00,,,0.00,520,WeatherCatV1.22B15,2013-11-15 02:58:00,
2013-11-14 22:00:00,37.9,16.3,30.19,WNW,297,0.0,0.0,41,0.00,,,0.00,520,WeatherCatV1.22B15,2013-11-15 03:00:00,
2013-11-14 22:01:00,37.8,16.2,30.19,WNW,297,0.0,0.0,41,0.00,,,0.00,520,WeatherCatV1.22B15,2013-11-15 03:01:00,
2013-11-14 22:02:00,37.7,16.1,30.19,WNW,297,0.0,0.0,41,0.00,,,0.00,520,WeatherCatV1.22B15,2013-11-15 03:02:00,
2013-11-14 22:03:00,37.7,16.1,30.19,WNW,297,0.0,0.0,41,0.00,,,0.00,520,WeatherCatV1.22B15,2013-11-15 03:03:00,
2013-11-14 22:05:00,37.6,16.1,30.19,WNW,297,0.0,0.0,41,0.00,,,0.00,520,WeatherCatV1.22B15,2013-11-15 03:05:00,
2013-11-14 22:06:00,37.5,16.0,30.19,WNW,297,0.0,0.0,41,0.00,,,0.00,520,WeatherCatV1.22B15,2013-11-15 03:06:00,
2013-11-14 22:08:00,37.5,16.0,30.19,WNW,297,0.0,0.0,41,0.00,,,0.00,520,WeatherCatV1.22B15,2013-11-15 03:08:00,
2013-11-14 22:09:00,37.4,16.4,30.19,WNW,297,0.0,0.0,42,0.00,,,0.00,520,WeatherCatV1.22B15,2013-11-15 03:09:00,
2013-11-14 22:10:00,37.3,16.3,30.19,WNW,297,0.0,0.0,42,0.00,,,0.00,520,WeatherCatV1.22B15,2013-11-15 03:10:00,
2013-11-14 22:11:00,37.3,16.3,30.19,WNW,297,0.0,0.0,42,0.00,,,0.00,520,WeatherCatV1.22B15,2013-11-15 03:11:00,
2013-11-14 22:13:00,37.2,16.2,30.19,WNW,297,0.0,0.0,42,0.00,,,0.00,520,WeatherCatV1.22B15,2013-11-15 03:13:00,
2013-11-14 22:14:00,37.2,16.8,30.19,WNW,297,0.0,0.0,43,0.00,,,0.00,520,WeatherCatV1.22B15,2013-11-15 03:14:00,
2013-11-14 22:15:00,37.2,16.8,30.19,WNW,297,0.0,0.0,43,0.00,,,0.00,520,WeatherCatV1.22B15,2013-11-15 03:15:00,
2013-11-14 22:16:00,37.2,16.8,30.19,WNW,297,0.0,0.0,43,0.00,,,0.00,520,WeatherCatV1.22B15,2013-11-15 03:16:00,
2013-11-14 22:17:00,37.1,16.7,30.19,WNW,297,0.0,0.0,43,0.00,,,0.00,520,WeatherCatV1.22B15,2013-11-15 03:17:00,
2013-11-14 22:18:00,37.2,16.2,30.19,WNW,297,0.0,0.0,42,0.00,,,0.00,520,WeatherCatV1.22B15,2013-11-15 03:18:00,
2013-11-14 22:19:00,37.2,16.2,30.19,WNW,297,0.0,0.0,42,0.00,,,0.00,520,WeatherCatV1.22B15,2013-11-15 03:19:00,
2013-11-14 22:20:00,37.2,16.2,30.19,WNW,297,0.0,0.0,42,0.00,,,0.00,520,WeatherCatV1.22B15,2013-11-15 03:20:00,
2013-11-14 22:22:00,37.2,16.2,30.19,WNW,297,0.0,0.0,42,0.00,,,0.00,520,WeatherCatV1.22B15,2013-11-15 03:22:00,
2013-11-14 22:24:00,37.3,16.3,30.19,WNW,297,0.0,0.0,42,0.00,,,0.00,520,WeatherCatV1.22B15,2013-11-15 03:24:00,
2013-11-14 22:25:00,37.3,16.3,30.19,WNW,297,0.0,0.0,42,0.00,,,0.00,520,WeatherCatV1.22B15,2013-11-15 03:25:00,
2013-11-14 22:27:00,37.3,15.8,30.19,WNW,297,0.0,0.0,41,0.00,,,0.00,520,WeatherCatV1.22B15,2013-11-15 03:27:00,
2013-11-14 22:29:00,37.4,16.4,30.19,WNW,297,0.0,1.0,42,0.00,,,0.00,520,WeatherCatV1.22B15,2013-11-15 03:29:00,
2013-11-14 22:30:00,37.4,16.4,30.19,WNW,297,0.0,0.0,42,0.00,,,0.00,520,WeatherCatV1.22B15,2013-11-15 03:30:00,
2013-11-14 22:31:00,37.4,15.9,30.19,WNW,297,0.0,0.0,41,0.00,,,0.00,520,WeatherCatV1.22B15,2013-11-15 03:31:00,
2013-11-14 22:32:00,37.4,16.4,30.19,WNW,297,0.0,0.0,42,0.00,,,0.00,520,WeatherCatV1.22B15,2013-11-15 03:32:00,
2013-11-14 22:34:00,37.3,15.8,30.19,WNW,297,0.0,0.0,41,0.00,,,0.00,520,WeatherCatV1.22B15,2013-11-15 03:34:00,
2013-11-14 22:35:00,37.3,16.3,30.19,WNW,297,0.0,0.0,42,0.00,,,0.00,520,WeatherCatV1.22B15,2013-11-15 03:35:00,
2013-11-14 22:36:00,37.3,16.3,30.19,WNW,297,0.0,0.0,42,0.00,,,0.00,520,WeatherCatV1.22B15,2013-11-15 03:36:00,
2013-11-14 22:37:00,37.2,16.2,30.19,WNW,297,0.0,0.0,42,0.00,,,0.00,520,WeatherCatV1.22B15,2013-11-15 03:37:00,
2013-11-14 22:39:00,37.1,15.6,30.19,WNW,297,0.0,0.0,41,0.00,,,0.00,520,WeatherCatV1.22B15,2013-11-15 03:39:00,
2013-11-14 22:40:00,37.1,16.2,30.19,WNW,297,0.0,0.0,42,0.00,,,0.00,520,WeatherCatV1.22B15,2013-11-15 03:40:00,
2013-11-14 22:41:00,37.0,16.1,30.19,WNW,297,0.0,0.0,42,0.00,,,0.00,520,WeatherCatV1.22B15,2013-11-15 03:41:00,
2013-11-14 22:42:00,37.0,16.1,30.19,WNW,297,0.0,0.0,42,0.00,,,0.00,520,WeatherCatV1.22B15,2013-11-15 03:42:00,
2013-11-14 22:45:00,36.9,16.0,30.19,WNW,297,0.0,0.0,42,0.00,,,0.00,520,WeatherCatV1.22B15,2013-11-15 03:45:00,
2013-11-14 22:46:00,37.0,16.1,30.19,WNW,297,0.0,0.0,42,0.00,,,0.00,520,WeatherCatV1.22B15,2013-11-15 03:46:00,
2013-11-14 22:47:00,37.0,16.1,30.19,WNW,297,0.0,0.0,42,0.00,,,0.00,520,WeatherCatV1.22B15,2013-11-15 03:47:00,
2013-11-14 22:48:00,37.0,16.1,30.19,WNW,297,0.0,1.0,42,0.00,,,0.00,520,WeatherCatV1.22B15,2013-11-15 03:48:00,
2013-11-14 22:50:00,37.1,16.2,30.19,WNW,297,0.0,0.0,42,0.00,,,0.00,520,WeatherCatV1.22B15,2013-11-15 03:50:00,
2013-11-14 22:51:00,37.1,16.2,30.19,WNW,297,0.0,0.0,42,0.00,,,0.00,520,WeatherCatV1.22B15,2013-11-15 03:51:00,
2013-11-14 22:52:00,37.1,16.2,30.19,WNW,297,0.0,0.0,42,0.00,,,0.00,520,WeatherCatV1.22B15,2013-11-15 03:52:00,
2013-11-14 22:53:00,37.1,16.2,30.19,WNW,297,0.0,0.0,42,0.00,,,0.00,520,WeatherCatV1.22B15,2013-11-15 03:53:00,
2013-11-14 22:55:00,37.1,16.2,30.19,WNW,297,0.0,0.0,42,0.00,,,0.00,520,WeatherCatV1.22B15,2013-11-15 03:55:00,
2013-11-14 22:56:00,37.1,16.2,30.19,WNW,297,0.0,0.0,42,0.00,,,0.00,520,WeatherCatV1.22B15,2013-11-15 03:56:00,
2013-11-14 22:57:00,37.2,16.2,30.19,WNW,297,1.0,2.0,42,0.00,,,0.00,520,WeatherCatV1.22B15,2013-11-15 03:57:00,
2013-11-14 22:58:00,37.3,16.3,30.19,WNW,297,0.0,2.0,42,0.00,,,0.00,520,WeatherCatV1.22B15,2013-11-15 03:58:00,
2013-11-14 23:00:00,37.4,17.0,30.19,WNW,297,0.0,0.0,43,0.00,,,0.00,520,WeatherCatV1.22B15,2013-11-15 04:00:00,
2013-11-14 23:01:00,37.4,16.4,30.19,WNW,297,0.0,0.0,42,0.00,,,0.00,520,WeatherCatV1.22B15,2013-11-15 04:01:00,
2013-11-14 23:02:00,37.5,16.5,30.19,WNW,297,0.0,0.0,42,0.00,,,0.00,520,WeatherCatV1.22B15,2013-11-15 04:02:00,
2013-11-14 23:04:00,37.4,17.0,30.19,WNW,297,0.0,0.0,43,0.00,,,0.00,520,WeatherCatV1.22B15,2013-11-15 04:04:00,
2013-11-14 23:05:00,37.4,17.0,30.19,WNW,297,0.0,0.0,43,0.00,,,0.00,520,WeatherCatV1.22B15,2013-11-15 04:05:00,
2013-11-14 23:06:00,37.3,16.9,30.19,WNW,297,0.0,0.0,43,0.00,,,0.00,520,WeatherCatV1.22B15,2013-11-15 04:06:00,
2013-11-14 23:07:00,37.3,16.9,30.19,WNW,297,0.0,0.0,43,0.00,,,0.00,520,WeatherCatV1.22B15,2013-11-15 04:07:00,
2013-11-14 23:09:00,37.2,16.8,30.19,WNW,297,0.0,0.0,43,0.00,,,0.00,520,WeatherCatV1.22B15,2013-11-15 04:09:00,
2013-11-14 23:10:00,37.1,16.7,30.19,WNW,297,0.0,0.0,43,0.00,,,0.00,520,WeatherCatV1.22B15,2013-11-15 04:10:00,
2013-11-14 23:11:00,37.0,17.1,30.19,WNW,297,0.0,0.0,44,0.00,,,0.00,520,WeatherCatV1.22B15,2013-11-15 04:11:00,
2013-11-14 23:12:00,37.0,17.1,30.19,WNW,297,0.0,0.0,44,0.00,,,0.00,520,WeatherCatV1.22B15,2013-11-15 04:12:00,
2013-11-14 23:13:00,37.0,17.1,30.19,WNW,297,0.0,0.0,44,0.00,,,0.00,520,WeatherCatV1.22B15,2013-11-15 04:13:00,
2013-11-14 23:15:00,36.8,17.0,30.19,WNW,297,0.0,0.0,44,0.00,,,0.00,520,WeatherCatV1.22B15,2013-11-15 04:15:00,
2013-11-14 23:16:00,36.7,16.9,30.19,WNW,297,0.0,0.0,44,0.00,,,0.00,520,WeatherCatV1.22B15,2013-11-15 04:16:00,
2013-11-14 23:17:00,36.7,16.9,30.19,WNW,297,0.0,0.0,44,0.00,,,0.00,520,WeatherCatV1.22B15,2013-11-15 04:17:00,
2013-11-14 23:18:00,36.7,16.9,30.19,WNW,297,0.0,0.0,44,0.00,,,0.00,520,WeatherCatV1.22B15,2013-11-15 04:18:00,
2013-11-14 23:20:00,36.6,17.3,30.19,WNW,297,0.0,0.0,45,0.00,,,0.00,520,WeatherCatV1.22B15,2013-11-15 04:20:00,
2013-11-14 23:21:00,36.6,17.3,30.19,WNW,297,0.0,0.0,45,0.00,,,0.00,520,WeatherCatV1.22B15,2013-11-15 04:21:00,
2013-11-14 23:22:00,36.6,17.3,30.19,WNW,297,0.0,0.0,45,0.00,,,0.00,520,WeatherCatV1.22B15,2013-11-15 04:22:00,
2013-11-14 23:23:00,36.5,17.2,30.19,WNW,297,0.0,0.0,45,0.00,,,0.00,520,WeatherCatV1.22B15,2013-11-15 04:23:00,
2013-11-14 23:26:00,36.5,17.2,30.19,WNW,297,0.0,0.0,45,0.00,,,0.00,520,WeatherCatV1.22B15,2013-11-15 04:26:00,
2013-11-14 23:27:00,36.4,17.1,30.19,WNW,297,0.0,0.0,45,0.00,,,0.00,520,WeatherCatV1.22B15,2013-11-15 04:27:00,
2013-11-14 23:28:00,36.4,17.1,30.19,WNW,297,0.0,0.0,45,0.00,,,0.00,520,WeatherCatV1.22B15,2013-11-15 04:28:00,
2013-11-14 23:29:00,36.4,17.1,30.19,WNW,297,0.0,0.0,45,0.00,,,0.00,520,WeatherCatV1.22B15,2013-11-15 04:29:00,
2013-11-14 23:31:00,36.3,17.5,30.19,WNW,297,0.0,0.0,46,0.00,,,0.00,520,WeatherCatV1.22B15,2013-11-15 04:31:00,
2013-11-14 23:32:00,36.4,17.6,30.19,WNW,297,0.0,0.0,46,0.00,,,0.00,520,WeatherCatV1.22B15,2013-11-15 04:32:00,
2013-11-14 23:33:00,36.4,17.6,30.19,WNW,297,0.0,0.0,46,0.00,,,0.00,520,WeatherCatV1.22B15,2013-11-15 04:33:00,
2013-11-14 23:34:00,36.4,17.6,30.19,WNW,297,0.0,0.0,46,0.00,,,0.00,520,WeatherCatV1.22B15,2013-11-15 04:34:00,
2013-11-14 23:36:00,36.4,17.6,30.19,WNW,297,0.0,0.0,46,0.00,,,0.00,520,WeatherCatV1.22B15,2013-11-15 04:36:00,
2013-11-14 23:37:00,36.5,17.7,30.19,WNW,297,0.0,0.0,46,0.00,,,0.00,520,WeatherCatV1.22B15,2013-11-15 04:37:00,
2013-11-14 23:38:00,36.5,17.7,30.19,WNW,297,0.0,1.0,46,0.00,,,0.00,520,WeatherCatV1.22B15,2013-11-15 04:38:00,
2013-11-14 23:40:00,36.5,17.7,30.19,WNW,297,0.0,1.0,46,0.00,,,0.00,520,WeatherCatV1.22B15,2013-11-15 04:40:00,
2013-11-14 23:41:00,36.6,17.3,30.19,WNW,297,0.0,0.0,45,0.00,,,0.00,520,WeatherCatV1.22B15,2013-11-15 04:41:00,
2013-11-14 23:42:00,36.6,17.3,30.19,WNW,297,0.0,0.0,45,0.00,,,0.00,520,WeatherCatV1.22B15,2013-11-15 04:42:00,
2013-11-14 23:43:00,36.6,17.3,30.19,WNW,297,0.0,0.0,45,0.00,,,0.00,520,WeatherCatV1.22B15,2013-11-15 04:43:00,
2013-11-14 23:45:00,36.7,17.4,30.20,WNW,297,0.0,1.0,45,0.00,,,0.00,520,WeatherCatV1.22B15,2013-11-15 04:45:00,
2013-11-14 23:46:00,36.7,17.4,30.20,WNW,297,0.0,0.0,45,0.00,,,0.00,520,WeatherCatV1.22B15,2013-11-15 04:46:00,
2013-11-14 23:47:00,36.7,17.4,30.19,WNW,297,0.0,0.0,45,0.00,,,0.00,520,WeatherCatV1.22B15,2013-11-15 04:47:00,
2013-11-14 23:48:00,36.7,17.4,30.19,WNW,297,0.0,1.0,45,0.00,,,0.00,520,WeatherCatV1.22B15,2013-11-15 04:48:00,
2013-11-14 23:49:00,36.8,17.5,30.19,WNW,297,0.0,1.0,45,0.00,,,0.00,520,WeatherCatV1.22B15,2013-11-15 04:49:00,
2013-11-14 23:50:00,36.8,17.5,30.19,WNW,297,0.0,1.0,45,0.00,,,0.00,520,WeatherCatV1.22B15,2013-11-15 04:50:00,
2013-11-14 23:52:00,36.8,18.0,30.19,WNW,297,1.0,1.0,46,0.00,,,0.00,520,WeatherCatV1.22B15,2013-11-15 04:52:00,
2013-11-14 23:54:00,36.7,17.9,30.19,WNW,297,0.0,1.0,46,0.00,,,0.00,520,WeatherCatV1.22B15,2013-11-15 04:54:00,
2013-11-14 23:55:00,36.7,17.9,30.19,WNW,297,0.0,0.0,46,0.00,,,0.00,520,WeatherCatV1.22B15,2013-11-15 04:55:00,
2013-11-14 23:57:00,36.7,17.9,30.19,WNW,297,0.0,0.0,46,0.00,,,0.00,520,WeatherCatV1.22B15,2013-11-15 04:57:00,
2013-11-14 23:58:00,36.7,17.9,30.19,WNW,297,0.0,0.0,46,0.00,,,0.00,520,WeatherCatV1.22B15,2013-11-15 04:58:00,
2013-11-14 23:59:00,36.6,17.8,30.19,WNW,297,0.0,0.0,46,0.00,,,0.00,520,WeatherCatV1.22B15,2013-11-15 04:59:00,